[[{"header":{"parameterUnit":"m.s-1","parameterCategory":1,"la1":30.6,"la2":29.2853,"lo1":-89.7004,"lo2":-87.6739,"dx":0.0162,"dy":0.0183,"nx":112,"ny":82,"refTime":"2023-02-13T06:00:00:Z","depth":0,"parameterNumber":2,"parameterNumberName":"U-component_of_WINDS"},"data":[0.0,0.0,0.0,0.0,0.0,0.0,0.0,0.0,0.0,0.0,0.0,0.0,0.0,0.0,0.0,0.0,0.0,0.0,0.0,0.0,0.0,0.0,0.0,0.0,0.0,0.0,0.0,0.0,0.0,0.0,0.0,0.0,0.0,0.0,0.0,0.0,0.0,0.0,0.0,0.0,0.0,0.0,0.0,0.0,0.0,0.0,0.0,0.0,0.0,0.0,0.0,0.0,0.0,0.0,0.0,0.0,0.0,0.0,0.0,0.0,0.0,0.0,0.0,0.0,0.0,0.0,0.0,0.0,0.0,0.0,0.0,0.0,0.0,0.0,0.0,0.0,0.0,0.0,0.0,0.0,0.0,0.0,0.0,0.0,0.0,0.0,0.0,0.0,0.0,0.0,0.0,7.7304,7.7304,7.7304,7.7304,7.7304,7.7304,7.7304,0.0,0.0,0.0,0.0,0.0,0.0,0.0,0.0,0.0,0.0,0.0,0.0,0.0,0.0,0.0,0.0,0.0,0.0,0.0,0.0,0.0,0.0,0.0,0.0,0.0,0.0,0.0,0.0,0.0,0.0,0.0,0.0,0.0,0.0,0.0,0.0,0.0,0.0,0.0,0.0,0.0,0.0,0.0,0.0,0.0,0.0,0.0,0.0,0.0,0.0,0.0,0.0,0.0,0.0,0.0,0.0,0.0,0.0,0.0,0.0,0.0,0.0,0.0,0.0,0.0,0.0,0.0,0.0,0.0,0.0,0.0,0.0,0.0,0.0,0.0,0.0,0.0,0.0,0.0,0.0,0.0,0.0,0.0,0.0,0.0,0.0,0.0,0.0,0.0,0.0,0.0,0.0,0.0,0.0,0.0,0.0,0.0,0.0,0.0,0.0,0.0,0.0,0.0,0.0,7.7304,7.7304,7.7304,7.7304,7.7304,7.7304,7.7304,7.7304,0.0,0.0,0.0,0.0,0.0,0.0,0.0,0.0,0.0,0.0,0.0,0.0,0.0,0.0,0.0,0.0,0.0,0.0,0.0,0.0,0.0,0.0,0.0,0.0,0.0,0.0,0.0,0.0,0.0,0.0,0.0,0.0,0.0,0.0,0.0,0.0,0.0,0.0,0.0,0.0,0.0,0.0,0.0,0.0,0.0,0.0,0.0,0.0,0.0,0.0,0.0,0.0,0.0,0.0,0.0,0.0,0.0,0.0,0.0,0.0,0.0,0.0,0.0,0.0,0.0,0.0,0.0,0.0,0.0,0.0,0.0,0.0,0.0,0.0,0.0,0.0,0.0,0.0,0.0,0.0,0.0,0.0,0.0,0.0,0.0,0.0,0.0,0.0,0.0,0.0,0.0,0.0,0.0,0.0,0.0,0.0,0.0,0.0,0.0,0.0,0.0,0.0,0.0,7.7304,7.7304,7.7304,7.7745,7.7818,7.7378,7.7745,7.7818,7.7341,7.7304,0.0,0.0,0.0,0.0,0.0,0.0,0.0,0.0,0.0,0.0,0.0,0.0,0.0,0.0,0.0,0.0,0.0,0.0,0.0,0.0,0.0,0.0,0.0,0.0,0.0,0.0,0.0,0.0,0.0,0.0,0.0,0.0,0.0,0.0,0.0,0.0,0.0,0.0,0.0,0.0,0.0,0.0,0.0,0.0,0.0,0.0,0.0,0.0,0.0,0.0,0.0,0.0,0.0,0.0,0.0,0.0,0.0,0.0,0.0,0.0,0.0,0.0,0.0,0.0,0.0,0.0,0.0,0.0,0.0,0.0,0.0,0.0,0.0,0.0,0.0,0.0,0.0,0.0,0.0,0.0,0.0,0.0,0.0,0.0,0.0,0.0,0.0,0.0,0.0,0.0,0.0,0.0,0.0,0.0,0.0,0.0,0.0,0.0,0.0,0.0,0.0,0.0,7.7781,7.7892,7.7892,7.8479,7.8626,7.7965,7.8516,7.8589,7.7928,7.7892,0.0,0.0,0.0,0.0,0.0,0.0,0.0,0.0,0.0,0.0,0.0,0.0,0.0,0.0,0.0,0.0,0.0,0.0,0.0,0.0,0.0,0.0,0.0,0.0,0.0,0.0,0.0,0.0,0.0,0.0,0.0,0.0,0.0,0.0,0.0,0.0,0.0,0.0,0.0,0.0,0.0,0.0,0.0,0.0,0.0,0.0,0.0,0.0,0.0,0.0,0.0,0.0,0.0,0.0,0.0,0.0,0.0,0.0,0.0,0.0,0.0,0.0,0.0,0.0,0.0,0.0,0.0,0.0,0.0,0.0,0.0,0.0,0.0,0.0,0.0,0.0,0.0,0.0,0.0,0.0,0.0,0.0,0.0,0.0,0.0,0.0,0.0,0.0,0.0,0.0,0.0,0.0,0.0,0.0,0.0,0.0,0.0,0.0,0.0,0.0,0.0,0.0,7.914,7.9617,7.9617,7.9653,7.969,7.9617,7.9653,7.969,7.9617,7.9617,0.0,0.0,0.0,0.0,0.0,0.0,0.0,0.0,0.0,0.0,0.0,0.0,0.0,0.0,0.0,0.0,0.0,0.0,0.0,0.0,0.0,0.0,0.0,0.0,0.0,0.0,0.0,0.0,0.0,0.0,0.0,0.0,0.0,0.0,0.0,0.0,0.0,0.0,0.0,0.0,0.0,0.0,0.0,0.0,0.0,0.0,0.0,0.0,0.0,0.0,0.0,0.0,0.0,0.0,0.0,0.0,0.0,0.0,0.0,0.0,0.0,0.0,0.0,0.0,0.0,0.0,0.0,0.0,0.0,0.0,0.0,0.0,0.0,0.0,0.0,0.0,0.0,0.0,0.0,0.0,0.0,0.0,0.0,0.0,0.0,0.0,0.0,0.0,0.0,0.0,0.0,0.0,0.0,0.0,0.0,0.0,0.0,0.0,0.0,0.0,0.0,0.0,7.958,7.98,0.0,8.0241,8.0504,8.0341,8.0456,8.0467,8.0304,0.0,0.0,0.0,0.0,0.0,0.0,0.0,0.0,0.0,0.0,0.0,0.0,0.0,0.0,0.0,0.0,0.0,0.0,0.0,0.0,0.0,0.0,0.0,0.0,0.0,0.0,0.0,0.0,0.0,0.0,0.0,0.0,0.0,0.0,0.0,0.0,0.0,0.0,0.0,0.0,0.0,0.0,0.0,0.0,0.0,0.0,0.0,0.0,0.0,0.0,0.0,0.0,0.0,0.0,0.0,0.0,0.0,0.0,0.0,0.0,0.0,0.0,0.0,0.0,0.0,0.0,0.0,0.0,0.0,0.0,0.0,0.0,0.0,0.0,0.0,0.0,0.0,0.0,0.0,0.0,0.0,0.0,0.0,0.0,0.0,0.0,0.0,0.0,0.0,0.0,0.0,0.0,0.0,0.0,0.0,0.0,0.0,0.0,0.0,0.0,0.0,0.0,8.0231,8.0541,8.0813,0.0,8.1292,8.1551,8.1397,8.1501,8.1489,8.1141,0.0,0.0,0.0,0.0,0.0,0.0,0.0,0.0,0.0,0.0,0.0,0.0,0.0,0.0,0.0,0.0,0.0,0.0,0.0,0.0,0.0,0.0,0.0,0.0,0.0,0.0,0.0,0.0,0.0,0.0,0.0,0.0,0.0,0.0,0.0,0.0,0.0,0.0,0.0,0.0,0.0,0.0,0.0,0.0,0.0,0.0,0.0,0.0,0.0,0.0,0.0,0.0,0.0,0.0,0.0,0.0,0.0,0.0,0.0,0.0,0.0,0.0,0.0,0.0,0.0,0.0,0.0,0.0,0.0,0.0,0.0,0.0,0.0,0.0,0.0,0.0,0.0,0.0,0.0,0.0,0.0,0.0,0.0,0.0,0.0,0.0,0.0,0.0,0.0,0.0,0.0,0.0,0.0,0.0,0.0,0.0,0.0,0.0,0.0,0.0,0.0,0.0,8.1076,8.2166,8.2994,8.2994,8.2994,8.2994,8.2994,8.2994,8.2793,0.0,0.0,0.0,0.0,0.0,0.0,0.0,0.0,0.0,0.0,0.0,0.0,0.0,0.0,0.0,0.0,0.0,0.0,0.0,0.0,0.0,0.0,0.0,0.0,0.0,0.0,0.0,0.0,0.0,0.0,0.0,0.0,0.0,0.0,0.0,0.0,0.0,0.0,0.0,0.0,0.0,0.0,0.0,0.0,0.0,0.0,0.0,0.0,0.0,0.0,0.0,0.0,0.0,0.0,0.0,0.0,0.0,0.0,0.0,0.0,0.0,0.0,0.0,0.0,0.0,0.0,0.0,0.0,0.0,0.0,0.0,0.0,0.0,0.0,0.0,0.0,0.0,0.0,0.0,0.0,0.0,0.0,0.0,0.0,0.0,0.0,0.0,0.0,0.0,0.0,0.0,0.0,0.0,0.0,0.0,0.0,0.0,0.0,0.0,0.0,0.0,0.0,0.0,0.0,8.2765,8.3169,8.3618,8.3618,8.3779,8.4155,8.3847,8.3563,8.3396,0.0,0.0,0.0,0.0,0.0,0.0,0.0,0.0,0.0,0.0,0.0,0.0,0.0,0.0,0.0,0.0,0.0,0.0,0.0,0.0,0.0,0.0,0.0,0.0,0.0,0.0,0.0,0.0,0.0,0.0,0.0,0.0,0.0,0.0,0.0,0.0,0.0,0.0,0.0,0.0,0.0,0.0,0.0,0.0,0.0,0.0,0.0,0.0,0.0,0.0,0.0,0.0,0.0,0.0,0.0,0.0,0.0,0.0,0.0,0.0,0.0,0.0,0.0,0.0,0.0,0.0,0.0,0.0,0.0,0.0,0.0,0.0,0.0,0.0,0.0,0.0,0.0,0.0,0.0,0.0,0.0,0.0,0.0,0.0,0.0,0.0,0.0,0.0,0.0,0.0,0.0,0.0,0.0,0.0,0.0,0.0,0.0,0.0,0.0,0.0,0.0,0.0,8.3032,8.3396,8.3795,8.4193,8.4041,8.4142,8.4627,8.4193,8.3885,8.3885,0.0,0.0,0.0,0.0,0.0,0.0,0.0,0.0,0.0,0.0,0.0,0.0,0.0,0.0,0.0,0.0,0.0,0.0,0.0,0.0,0.0,0.0,0.0,0.0,0.0,0.0,0.0,0.0,0.0,0.0,0.0,0.0,0.0,0.0,0.0,0.0,0.0,0.0,0.0,0.0,0.0,0.0,0.0,0.0,0.0,0.0,0.0,0.0,0.0,0.0,0.0,0.0,0.0,0.0,0.0,0.0,0.0,0.0,0.0,0.0,0.0,0.0,0.0,0.0,0.0,0.0,0.0,0.0,0.0,0.0,0.0,0.0,0.0,0.0,0.0,0.0,0.0,0.0,0.0,0.0,0.0,0.0,0.0,0.0,0.0,0.0,0.0,0.0,0.0,0.0,0.0,0.0,0.0,0.0,0.0,0.0,0.0,0.0,0.0,0.0,0.0,0.0,8.3111,8.4027,8.4779,8.4871,8.453,8.4431,8.4871,8.4454,8.4116,8.3989,0.0,0.0,0.0,0.0,0.0,0.0,0.0,0.0,0.0,0.0,0.0,0.0,0.0,0.0,0.0,0.0,0.0,0.0,0.0,0.0,0.0,0.0,0.0,0.0,0.0,0.0,0.0,0.0,0.0,0.0,0.0,0.0,0.0,0.0,0.0,0.0,0.0,0.0,0.0,0.0,0.0,0.0,0.0,0.0,0.0,0.0,0.0,0.0,0.0,0.0,0.0,0.0,0.0,0.0,0.0,0.0,0.0,0.0,0.0,0.0,8.3563,0.0,0.0,0.0,0.0,0.0,0.0,0.0,0.0,0.0,0.0,0.0,0.0,0.0,0.0,0.0,0.0,0.0,0.0,0.0,0.0,0.0,0.0,0.0,0.0,0.0,0.0,0.0,0.0,0.0,0.0,0.0,0.0,0.0,0.0,0.0,0.0,0.0,0.0,0.0,0.0,0.0,8.3618,8.4463,8.5372,8.6261,8.6871,8.6942,8.6379,8.6219,8.5741,8.4571,0.0,0.0,0.0,0.0,0.0,0.0,0.0,0.0,0.0,0.0,0.0,0.0,0.0,0.0,0.0,0.0,0.0,0.0,0.0,0.0,0.0,0.0,0.0,0.0,0.0,0.0,0.0,0.0,0.0,0.0,0.0,0.0,0.0,0.0,0.0,0.0,0.0,0.0,0.0,0.0,0.0,0.0,0.0,0.0,0.0,0.0,0.0,0.0,0.0,0.0,0.0,0.0,0.0,0.0,0.0,0.0,0.0,0.0,0.0,0.0,0.0,8.4212,0.0,0.0,0.0,0.0,0.0,0.0,0.0,0.0,0.0,0.0,0.0,0.0,0.0,0.0,0.0,0.0,0.0,0.0,0.0,0.0,0.0,0.0,0.0,0.0,0.0,0.0,0.0,0.0,0.0,0.0,0.0,0.0,0.0,0.0,0.0,0.0,0.0,0.0,0.0,0.0,8.5361,8.6123,8.6753,8.7381,8.7599,8.7633,8.746,8.7138,8.678,8.6361,8.5683,0.0,0.0,0.0,0.0,0.0,0.0,0.0,0.0,0.0,0.0,0.0,0.0,0.0,0.0,0.0,0.0,0.0,0.0,0.0,0.0,0.0,0.0,0.0,0.0,0.0,0.0,0.0,0.0,0.0,0.0,0.0,0.0,0.0,0.0,0.0,0.0,0.0,0.0,0.0,0.0,0.0,0.0,0.0,0.0,0.0,0.0,0.0,0.0,0.0,0.0,0.0,0.0,0.0,0.0,0.0,8.5511,8.5511,8.5511,8.5511,8.5511,8.5511,8.5511,0.0,0.0,0.0,0.0,0.0,0.0,0.0,0.0,0.0,0.0,0.0,0.0,0.0,0.0,0.0,0.0,0.0,0.0,0.0,0.0,0.0,0.0,0.0,0.0,0.0,8.597,8.5851,0.0,0.0,0.0,0.0,0.0,0.0,0.0,0.0,0.0,0.0,0.0,0.0,8.7127,8.7769,8.8218,8.8301,8.7998,8.7953,8.8259,8.7845,8.7725,8.811,8.7008,8.632,0.0,0.0,0.0,0.0,0.0,0.0,0.0,0.0,0.0,0.0,0.0,0.0,0.0,0.0,0.0,0.0,0.0,0.0,0.0,0.0,0.0,0.0,0.0,0.0,0.0,0.0,0.0,0.0,0.0,0.0,0.0,0.0,8.0506,8.0506,0.0,0.0,0.0,0.0,0.0,0.0,0.0,0.0,0.0,0.0,0.0,0.0,0.0,0.0,8.4136,8.4938,8.5358,8.5358,8.5473,8.5511,8.5511,8.5511,8.5511,8.5511,8.5511,0.0,8.5511,8.5511,0.0,0.0,0.0,0.0,0.0,0.0,0.0,0.0,0.0,0.0,0.0,0.0,0.0,0.0,0.0,0.0,0.0,0.0,0.0,0.0,0.0,0.0,8.7766,8.7766,8.7766,8.7766,0.0,8.6742,8.6084,8.6539,0.0,0.0,0.0,0.0,0.0,0.0,0.0,0.0,8.7127,8.7952,8.8631,8.91,8.9749,8.9859,8.9218,8.91,8.8794,8.8148,8.7954,8.759,8.707,8.618,0.0,0.0,0.0,0.0,0.0,0.0,0.0,0.0,0.0,0.0,0.0,0.0,0.0,0.0,0.0,0.0,0.0,0.0,0.0,0.0,0.0,0.0,0.0,0.0,0.0,0.0,0.0,0.0,0.0,8.0506,8.0506,8.0506,8.0926,8.1232,0.0,0.0,0.0,0.0,0.0,0.0,0.0,0.0,0.0,8.4403,8.4785,8.4976,8.4976,8.532,8.5511,8.5511,8.6008,8.6237,8.6275,8.6734,8.6963,8.6963,8.6963,8.6963,8.6925,0.0,8.6505,8.6963,0.0,0.0,0.0,0.0,0.0,0.0,0.0,0.0,0.0,0.0,0.0,0.0,0.0,0.0,0.0,0.0,0.0,0.0,0.0,0.0,0.0,8.811,8.811,8.8224,8.8683,8.8286,8.7687,0.0,8.7175,8.7127,8.6883,0.0,0.0,0.0,0.0,0.0,8.9063,8.9413,8.992,9.0631,9.1052,9.1319,9.1434,9.0975,9.0555,9.0211,8.9294,8.8676,8.8428,8.7285,8.6549,0.0,0.0,0.0,0.0,0.0,0.0,0.0,0.0,0.0,0.0,0.0,0.0,0.0,0.0,0.0,0.0,0.0,0.0,0.0,0.0,0.0,0.0,0.0,0.0,0.0,0.0,0.0,0.0,8.0812,0.0,8.1117,8.169,8.2111,0.0,0.0,0.0,0.0,0.0,0.0,0.0,8.4594,8.49,8.5473,8.5511,8.5626,8.5855,8.5855,8.5932,8.6161,8.681,8.7154,8.7154,8.7804,8.811,8.811,8.811,8.8224,8.8339,8.7498,8.7498,8.811,8.811,0.0,0.0,0.0,8.811,8.811,8.811,8.811,0.0,8.811,0.0,8.8415,8.8415,0.0,0.0,0.0,0.0,8.8721,8.8721,0.0,8.8721,8.8721,8.8721,8.8912,8.9485,8.9638,8.9325,0.0,8.8045,8.8091,8.8045,0.0,0.0,0.0,0.0,9.0388,9.0856,9.109,9.1472,9.2083,9.2121,9.2389,9.3038,9.2504,9.2121,9.2121,9.0975,9.0173,8.9944,8.8765,8.7977,0.0,0.0,0.0,0.0,0.0,0.0,0.0,0.0,0.0,0.0,0.0,0.0,0.0,0.0,0.0,0.0,0.0,0.0,0.0,0.0,0.0,0.0,0.0,0.0,0.0,0.0,0.0,0.0,0.0,0.0,8.276,8.2913,0.0,0.0,0.0,0.0,0.0,8.4938,8.5397,8.5435,8.5435,8.5473,8.5511,8.5511,8.5893,8.6734,8.6734,8.7154,8.7957,8.7995,8.8033,8.8033,8.8071,8.811,8.811,8.811,8.853,8.9179,8.8377,8.8071,8.811,8.811,8.811,8.811,8.811,8.811,8.811,8.811,8.811,8.811,8.811,8.8606,8.9256,8.9256,8.9829,0.0,0.0,9.0478,9.0478,9.0478,9.0478,9.0478,9.0478,9.0478,9.0478,9.0555,9.0555,9.0517,0.0,9.0436,0.0,9.0436,0.0,0.0,9.0555,9.1162,9.1697,9.1739,9.2465,9.3,9.3038,9.3038,9.3038,9.3115,9.3077,9.3038,9.3038,9.2962,9.2542,9.1701,9.0856,9.0054,8.9214,8.7787,0.0,0.0,0.0,0.0,0.0,0.0,0.0,0.0,0.0,0.0,0.0,0.0,0.0,0.0,0.0,0.0,0.0,0.0,0.0,0.0,0.0,0.0,0.0,0.0,0.0,0.0,0.0,0.0,8.2951,8.3486,0.0,0.0,8.4594,8.5053,8.5053,8.5358,8.5511,8.5511,8.6046,8.6352,8.6352,8.6887,8.7307,8.7613,8.7651,8.7804,8.811,8.8606,8.8874,8.8874,8.9447,8.9714,8.9714,8.9714,8.9867,9.0135,8.9829,8.9714,8.9714,8.9714,8.9714,8.9714,8.9714,8.9714,8.9714,8.9714,8.9714,8.9714,8.9714,8.9905,9.0135,9.0135,9.0364,9.0593,9.0593,9.0593,9.0593,9.0593,9.0593,9.0593,9.0593,9.0593,9.0746,9.1281,9.1357,9.1548,9.2121,9.1357,9.0784,9.1281,9.1357,9.1548,9.2121,9.2465,9.2656,9.2656,9.2924,9.3306,9.3879,9.3955,9.4146,9.4643,9.4223,9.3955,9.3955,9.3421,9.2962,9.2656,9.2351,9.1816,9.0937,8.9888,8.8767,0.0,0.0,0.0,0.0,0.0,0.0,0.0,0.0,0.0,0.0,0.0,0.0,0.0,0.0,0.0,0.0,0.0,0.0,0.0,0.0,0.0,0.0,0.0,0.0,0.0,0.0,8.3524,8.3792,8.4365,8.4709,8.4709,8.5206,8.5511,8.5511,8.5779,8.5932,8.5932,8.6772,8.7231,8.7231,8.7804,8.8224,8.8492,8.8492,8.8644,8.895,8.9485,8.9752,8.9752,9.0364,9.0593,9.0593,9.0593,9.0746,9.1013,9.1013,9.1204,9.1395,9.0822,9.0593,9.0593,9.0593,9.0593,9.0593,9.0593,9.0593,9.0593,9.0593,9.0593,9.0593,9.0593,9.0593,9.0593,9.0593,9.0593,9.0669,9.0937,9.1013,9.109,9.1357,9.1434,9.1586,9.2121,9.2236,9.2427,9.3,9.2198,9.1625,9.216,9.2236,9.2427,9.3,9.3344,9.3535,9.3535,9.3764,9.4146,9.4758,9.4796,9.5025,9.556,9.5102,9.4796,9.4796,9.4261,9.3803,9.3535,9.3535,9.3028,9.1979,9.1095,8.9944,8.83,0.0,0.0,0.0,0.0,0.0,0.0,0.0,0.0,0.0,0.0,0.0,0.0,0.0,0.0,0.0,0.0,0.0,0.0,0.0,0.0,0.0,0.0,0.0,8.4327,8.4327,8.4632,8.5397,8.5511,8.5511,8.5511,8.5511,8.555,8.555,8.6352,8.6849,8.6849,8.7689,8.8148,8.8148,8.8148,8.853,8.9332,8.9332,8.9791,9.0631,9.0631,9.0669,9.0708,9.0708,9.0708,9.0708,9.0708,9.1128,9.1854,9.1854,9.2351,9.2924,9.1319,9.0708,9.0708,9.0708,9.0708,9.0708,9.0708,9.0708,9.0708,9.0708,9.0708,9.0708,9.0708,9.0708,9.0708,9.0708,9.0708,9.0861,9.1625,9.1854,9.2045,9.2886,9.3115,9.3115,9.3115,9.3153,9.3153,9.3153,9.3191,9.3153,9.3153,9.3153,9.3153,9.3153,9.3917,0.0,9.4452,9.5102,9.5598,9.5598,9.5598,9.5598,9.5598,9.5598,9.5598,9.5598,9.5598,9.5255,9.449,9.4452,9.377,9.2292,9.142,9.0548,8.9714,0.0,0.0,0.0,0.0,0.0,0.0,0.0,0.0,0.0,0.0,0.0,0.0,0.0,0.0,0.0,0.0,0.0,0.0,0.0,0.0,0.0,0.0,8.5167,8.5167,8.5167,8.5244,8.5473,8.5511,8.5511,8.5511,8.6084,8.6467,8.6467,8.7269,8.7727,8.7727,8.853,8.8988,8.8988,8.96,9.002,9.0249,9.0249,9.0669,9.1472,9.1472,9.1816,9.2427,9.2427,9.2427,9.2427,9.2427,9.2542,9.2733,9.2733,9.2886,9.3038,9.258,9.2427,9.2427,9.2427,9.2427,9.2427,9.2427,9.2427,9.2427,9.2427,9.2427,9.2427,9.2427,9.2427,9.2427,9.2427,9.2427,9.2465,9.2695,9.2733,9.2809,9.3038,9.3115,9.3268,9.3917,9.4032,9.4223,9.4796,9.4911,9.472,9.4146,9.4032,9.4261,9.4834,0.0,0.0,9.5255,9.5446,9.5598,9.5598,9.5598,9.5598,9.5598,9.5598,9.5598,0.0,9.5598,9.5484,9.5293,9.5255,9.479,9.3732,9.2489,9.1217,0.0,0.0,0.0,0.0,0.0,0.0,0.0,0.0,0.0,0.0,0.0,0.0,0.0,0.0,0.0,0.0,0.0,0.0,0.0,0.0,0.0,0.0,8.5206,8.5511,8.5511,8.5511,8.5511,8.5511,8.5817,8.6046,8.6046,8.6849,8.7345,8.7345,8.8148,8.8606,8.8606,8.9409,8.9829,8.9829,9.0669,9.109,9.109,9.1472,9.1892,9.2351,9.2351,9.2618,9.3115,9.3115,9.3115,0.0,9.3115,9.3306,9.365,9.3612,9.3841,0.0,0.0,0.0,0.0,0.0,9.3115,9.3115,9.3115,9.3115,9.3115,9.3115,9.3115,9.3115,9.3115,9.3115,9.3115,9.3115,9.3115,9.3191,9.3535,9.365,9.3726,9.407,9.4146,9.4299,9.4796,9.4911,9.5025,9.5522,0.0,0.0,9.4987,9.4911,9.5064,9.5522,9.5598,9.5598,0.0,9.5598,9.5598,9.5598,9.5942,9.6133,9.6133,9.6439,0.0,0.0,0.0,9.5981,9.5598,9.5379,0.0,0.0,0.0,9.2186,0.0,0.0,0.0,0.0,8.5734,8.4425,0.0,0.0,0.0,0.0,0.0,0.0,0.0,0.0,0.0,0.0,0.0,0.0,0.0,0.0,0.0,0.0,8.5588,8.5664,8.5664,8.5741,8.5779,8.5664,8.6428,8.6963,8.6963,8.7727,8.8224,8.8224,8.8988,8.9485,0.0,0.0,0.0,0.0,0.0,9.193,9.193,9.2695,9.3153,9.3268,9.3268,9.3306,9.3382,9.3497,9.3535,9.3535,9.3612,9.4108,9.4834,9.4758,9.5178,9.5713,9.4032,9.3382,9.3382,9.3382,9.3382,0.0,0.0,0.0,0.0,9.3382,9.3382,9.3382,9.3382,9.3382,9.3382,9.3382,9.3382,9.3573,9.4338,9.4529,9.472,9.5446,9.5598,9.5598,9.5598,9.5598,9.5637,9.5713,9.5751,9.5789,9.5866,9.5713,9.5637,9.5713,9.5751,0.0,9.5866,9.5866,9.5866,9.5866,0.0,0.0,9.705,9.77,9.7815,9.7089,9.705,9.663,9.5789,9.5219,9.5132,9.5598,9.3766,9.3373,9.4312,9.1883,9.0851,9.1163,8.7748,8.5783,0.0,0.0,0.0,0.0,0.0,0.0,0.0,0.0,0.0,0.0,0.0,0.0,0.0,0.0,0.0,8.5511,8.6084,8.6543,8.6543,8.7154,8.7345,8.6619,8.7307,8.7842,8.7842,8.8606,8.9065,8.9065,8.9867,9.0631,9.1281,9.1472,0.0,9.258,9.2771,9.2847,9.2847,9.3038,9.3459,9.4146,0.0,0.0,9.514,9.5828,9.6172,9.621,9.6859,9.7241,9.7394,9.7394,9.7471,9.7471,9.5789,9.5102,9.5102,9.5102,9.5102,9.5102,9.5102,9.5102,9.5102,9.5102,9.5102,9.5102,9.5102,9.5102,0.0,9.5102,9.5102,9.514,9.5331,9.5369,9.5407,9.556,9.5598,9.5598,9.5598,9.5598,9.5789,9.6515,9.663,9.6859,9.7509,9.6515,9.5828,9.6554,9.663,9.6898,9.7547,9.7623,9.7623,9.7623,9.7776,9.7891,9.7891,9.8006,9.8044,9.7891,9.7891,9.7509,9.6668,9.654,9.6196,9.5598,9.5227,9.4604,9.384,9.331,9.2268,9.0721,8.9375,8.828,0.0,0.0,0.0,0.0,0.0,0.0,0.0,0.0,0.0,0.0,0.0,8.5511,0.0,0.0,8.6161,8.6161,8.6887,8.746,8.746,8.8186,8.8377,8.7536,8.8186,8.8683,8.8683,8.9447,9.0135,9.0517,9.0937,9.1586,9.2427,9.2465,9.2656,9.3077,9.3535,9.3764,9.3764,9.4567,9.5216,9.5675,9.6057,9.6477,9.6859,9.7318,9.7509,9.7509,9.7929,9.7891,9.7509,9.7509,9.7509,9.7471,9.7012,9.6859,9.6859,9.6859,9.6859,9.6783,9.6401,9.6248,9.6172,9.5751,9.5598,9.5598,9.5598,9.5598,9.5598,9.5598,9.5598,9.5598,9.5598,9.5904,9.6248,9.6248,9.6554,9.6859,9.6859,9.6859,9.6974,9.7432,9.7509,9.7623,9.8044,9.7432,9.7012,9.7432,9.7509,9.7662,9.8044,9.812,9.812,9.812,9.8502,9.877,9.877,9.877,9.877,9.877,9.8349,9.7929,9.7509,9.7509,9.7127,9.6286,9.5943,9.5387,9.4642,9.3723,9.2865,9.2133,9.1094,8.9968,0.0,0.0,0.0,0.0,0.0,0.0,0.0,0.0,8.5511,8.5511,8.5511,8.555,8.5741,8.6352,8.6887,8.704,8.7766,8.8339,8.8339,8.9027,8.937,8.8874,8.9256,8.96,8.9791,9.044,9.1166,9.2007,9.2045,9.2427,9.3306,9.3344,9.3421,9.3573,9.4452,9.4911,9.4911,9.6401,9.7127,9.7127,9.7815,9.812,9.812,9.8273,9.8349,9.8388,9.8693,9.8579,9.812,9.812,9.812,9.8197,9.8846,9.9114,9.8999,9.8349,9.812,9.8006,9.7356,9.7127,9.7012,9.6324,9.6095,9.6095,9.6095,9.6095,9.6095,9.6095,9.6095,9.6095,9.6095,9.6592,9.7127,9.7127,9.7623,9.812,9.812,9.812,9.8158,9.8311,9.8349,9.8464,9.877,9.8693,9.8541,9.8388,9.8349,9.8426,9.8579,9.8617,9.8617,9.8617,9.9381,9.9954,10.0107,10.0107,10.0107,9.9878,9.9228,9.877,9.8617,9.8464,9.8044,9.7394,9.6714,9.6159,9.5921,9.4119,9.3375,9.3709,9.2405,9.1106,8.3945,8.4671,8.5244,8.5358,8.5435,8.5511,0.0,0.0,8.5511,8.5511,8.5511,8.5741,8.6505,8.6734,8.704,8.7842,8.8644,8.9179,8.9179,8.9905,9.0708,9.1319,9.0822,9.0746,9.1434,9.1625,9.2007,9.2886,9.2962,9.3344,9.4223,9.4261,9.4567,9.5293,9.6172,9.663,9.663,9.7509,9.7967,9.7967,9.8082,9.812,9.812,9.8884,9.9228,9.9343,10.0795,10.1903,10.2476,10.2476,10.2476,10.2476,10.2591,10.2591,10.2285,9.9228,9.812,9.8082,9.8006,9.7967,9.7967,9.7853,9.7815,9.7815,9.7815,9.7815,9.7815,9.7815,9.7815,9.7815,9.7815,9.7891,9.7967,9.7967,9.8044,9.812,9.812,9.812,9.8349,9.9114,9.9228,9.9725,10.1215,10.0795,10.0107,9.9343,9.9228,9.9496,10.0222,10.0298,10.0298,10.0298,10.11,10.1903,10.2705,10.2782,10.24,10.1712,10.1521,10.11,10.0413,9.961,9.919,9.9114,9.8304,9.7572,9.702,9.5479,9.4448,9.3937,9.2491,9.1693,8.49,8.5244,0.0,0.0,8.5511,8.5511,8.5511,8.5511,8.5664,8.6161,8.6275,8.6543,8.7384,8.7957,8.8377,0.0,8.9523,9.0058,9.0058,9.0784,9.1434,9.1739,9.1969,9.2198,9.2504,9.2542,9.2924,9.3803,9.3879,9.4223,9.5064,9.5598,9.6019,9.6363,9.7165,9.7623,9.7623,9.8426,9.9075,9.9572,10.0107,10.0604,10.11,10.1406,10.1597,10.1597,10.1788,10.2094,10.24,10.24,10.24,10.2514,10.3011,10.3202,10.3011,10.1024,10.0298,10.0222,9.919,9.8846,9.877,9.8273,9.812,9.812,9.812,9.812,9.812,9.812,9.812,9.812,9.812,9.8808,9.9572,9.9572,10.0298,10.0909,10.0413,10.0718,10.0986,10.0909,10.1292,10.1788,10.2514,10.24,10.1979,10.1674,10.1215,10.1215,10.1979,10.2094,10.2094,10.2094,10.24,10.2782,10.3202,10.3202,10.3011,10.2705,10.2705,10.2514,10.2094,10.1292,10.0604,10.0107,9.9266,9.8486,9.7714,9.6749,9.5911,9.5245,9.4332,9.3634,8.5511,0.0,0.0,8.5511,8.5511,8.555,8.5817,8.5855,8.6123,8.7001,8.7154,8.7422,8.8262,8.8912,0.0,8.9638,9.0364,9.0937,9.0937,9.1625,9.2236,9.2504,9.3077,9.3535,9.3764,9.3573,9.3803,9.4681,9.4949,9.5331,9.5942,9.6783,9.7241,9.7241,9.8044,9.8579,9.8808,9.9649,10.0489,10.1292,10.2018,10.2591,10.3202,10.3202,10.3278,10.3508,10.2896,10.2705,10.2896,10.2896,10.2896,10.3011,10.3584,10.389,10.3813,10.2896,10.24,10.2094,10.0909,10.0413,10.0298,9.9725,9.9534,9.9534,9.9534,9.9534,9.9458,9.9228,9.9343,9.9458,9.9228,10.0222,10.1292,10.1292,10.2285,10.3011,10.24,10.2782,10.3011,10.24,10.2782,10.3278,10.3508,10.3278,10.3393,10.3813,10.3393,10.3011,10.3202,10.3202,10.3278,10.3508,10.3508,10.3584,10.389,10.389,10.3813,10.3508,10.3508,10.3508,10.3508,10.2705,10.2094,10.1712,10.0909,9.9992,9.9152,9.8135,9.7234,9.6539,9.55,9.4773,0.0,0.0,8.5511,8.5511,8.5511,8.5741,8.6581,8.6772,8.7001,8.788,8.8071,8.8301,8.9103,8.9294,8.96,9.044,9.1243,9.1739,9.1739,9.2504,9.3382,9.4223,9.4338,9.4681,0.0,9.4834,9.472,9.5484,9.6363,9.6821,9.6859,9.7623,9.8082,9.8082,9.8923,9.9725,10.0489,10.1406,10.2285,10.3087,10.3087,10.3202,10.3202,10.3202,10.3584,10.4386,10.431,10.4807,10.5609,10.5609,10.5609,10.5609,10.5609,10.5609,10.5495,10.4616,10.3813,10.3202,10.3087,10.3087,10.3087,10.3087,10.3011,10.3011,10.3011,10.3011,10.2896,10.2018,10.24,10.2896,10.2018,10.24,10.3087,10.3087,10.3202,10.3202,10.3202,10.3202,10.3202,10.3202,10.3202,10.3393,10.4195,10.3699,10.3775,10.5418,10.5609,10.4998,10.3393,10.3202,10.3508,10.431,10.4386,10.4692,10.5609,10.5609,10.5303,10.4386,10.4386,10.4386,10.4386,10.3584,10.3508,10.431,10.3508,10.2705,10.1826,9.967,9.8252,9.744,9.5355,9.4299,0.0,0.0,8.5664,8.6237,8.6352,8.6581,8.746,8.7651,8.788,8.8721,8.8912,8.9179,9.002,9.0173,9.044,9.1281,9.1625,9.2007,9.258,9.3421,9.407,9.4376,9.4872,0.0,0.0,0.0,0.0,9.6401,9.6745,9.7127,9.7662,9.8502,9.9228,9.9763,10.0604,10.1483,10.2285,10.2591,10.3202,10.4004,10.4616,10.5112,10.5686,10.5686,10.6106,10.6908,10.6908,10.7099,10.7405,10.7405,10.7405,10.7405,10.7405,10.7405,10.729,10.6985,10.6717,10.6182,10.4004,10.3202,10.3202,10.3202,10.3202,10.3202,10.3202,10.3202,10.3087,10.2782,10.3011,10.3087,10.2782,10.3393,10.4004,10.4004,10.4386,10.4692,10.4119,10.4501,10.4883,10.4883,10.5303,10.5915,10.6794,10.6679,10.6717,10.729,10.6908,10.6488,10.6488,10.6488,10.6603,10.6908,10.6908,10.6985,10.729,10.7405,10.7214,10.6908,10.6908,10.6908,10.6908,10.6106,10.5495,10.5303,10.4386,10.3584,10.2782,10.1979,10.1088,9.9881,9.8609,9.7529,0.0,8.597,8.6161,8.704,8.7269,8.7498,8.8339,8.853,8.8759,8.96,8.9752,9.002,9.0861,9.1052,9.1319,9.2121,9.2542,9.2924,9.3497,9.4299,9.4834,9.4834,9.556,0.0,0.0,0.0,0.0,9.728,9.7623,9.8158,9.8961,9.984,10.068,10.1483,10.2094,10.2782,10.3584,10.3584,10.4195,10.5303,10.6182,10.6908,10.7405,10.7405,10.7711,10.8207,10.8207,10.8219,10.8295,10.8169,10.8295,10.8317,10.8219,10.8219,10.8295,10.8169,10.8219,10.799,10.5762,10.4998,10.4998,10.4998,10.4998,10.4998,10.4998,10.4998,10.4883,10.4577,10.4692,10.4883,10.4577,10.5112,10.58,10.58,10.6182,10.6412,10.5915,10.622,10.6603,10.6603,10.6985,10.7481,10.8093,10.8207,10.8284,10.8589,10.8207,10.7902,10.8207,10.8207,10.8207,10.8207,10.8207,10.8207,10.8207,10.8207,10.8207,10.8207,10.8207,10.8207,10.8207,10.7711,10.7099,10.6603,10.5991,10.538,10.4501,10.4265,10.3618,10.2395,10.0993,9.9959,8.6581,8.6849,8.7078,8.7918,8.8148,8.8377,8.9179,8.937,8.96,9.044,9.0593,9.0861,0.0,0.0,9.2083,9.3038,9.3879,9.4414,9.4452,9.5102,9.5598,0.0,0.0,0.0,0.0,0.0,0.0,9.8311,0.0,9.9801,10.0604,10.1521,10.24,10.3202,10.3278,10.3699,10.4501,10.4616,10.5418,10.6985,10.7787,10.8207,10.8284,10.8284,10.8284,10.8284,10.8284,10.8421,10.8519,10.841,10.8509,10.8699,10.8383,10.8421,10.8519,10.8372,10.8421,10.848,10.8372,10.8284,10.8207,10.8207,10.8207,10.8207,10.8207,10.8207,10.8016,10.7214,10.7596,10.8016,10.7176,10.7596,10.8207,10.8207,10.8207,10.8207,10.8207,10.8207,10.8207,10.8284,10.8284,10.8284,10.8284,10.8284,10.8589,10.9392,10.9506,10.9201,10.8398,10.8284,10.8284,10.8284,10.8284,10.8284,10.8284,10.8284,10.8284,10.8284,10.8284,10.8284,10.8284,10.8284,10.8284,10.8284,10.8284,10.7787,10.6985,10.6273,10.5614,10.4666,10.2594,10.1493,8.6734,8.7269,8.7957,8.8797,8.8988,8.9218,9.0058,9.0287,9.0326,9.0555,9.0593,9.0861,0.0,0.0,0.0,9.3841,9.4261,0.0,9.5216,9.5484,0.0,0.0,0.0,9.7394,9.8655,9.8961,0.0,0.0,10.0489,10.0718,10.1521,10.24,10.3202,10.4081,10.4081,10.4807,10.6182,10.6908,10.7405,10.7902,10.8093,10.8513,10.9124,10.9124,10.9392,11.008,11.008,11.008,11.0092,11.008,11.0092,11.0181,11.013,11.0104,11.0318,11.0192,11.0328,11.0386,11.0376,10.9524,10.8317,10.8219,10.8207,10.8207,10.8207,10.8207,10.8207,10.7902,10.8016,10.8093,10.7902,10.8016,10.8207,10.8207,10.8207,10.8207,10.8207,10.8207,10.8398,10.901,10.9583,11.008,11.008,11.008,11.008,11.0309,11.0385,11.0309,11.008,11.008,11.008,11.008,11.008,11.008,11.008,11.008,11.008,11.008,11.008,11.008,11.008,11.008,10.9812,10.9124,10.9124,10.8704,10.7902,10.7673,10.6998,10.5698,10.4509,10.3418,8.7689,8.8262,8.8835,8.9676,8.9867,9.002,9.0478,9.0593,9.0708,9.1052,9.1128,0.0,0.0,0.0,0.0,0.0,0.0,0.0,9.5522,9.5942,9.6363,0.0,9.7547,0.0,9.9801,10.0298,10.0986,0.0,0.0,10.1712,10.2896,10.3508,10.431,10.5495,10.5495,10.6106,10.7481,10.8284,10.8704,10.8704,10.9086,10.9506,11.0003,11.0003,11.0194,11.0691,0.0,11.0793,11.093,11.093,11.0903,11.0999,11.0892,11.0979,11.1076,11.0989,11.1076,11.117,11.1114,11.0415,10.9562,10.9427,10.9289,10.9315,10.9315,10.9315,10.9315,10.9315,10.9315,10.9315,10.9315,10.9315,10.9315,10.9315,10.9315,10.9315,10.9315,10.9315,10.9392,10.9889,11.0385,11.0691,11.0691,11.0691,11.0691,11.0691,11.0691,11.0691,11.0691,11.0691,11.0691,11.0691,11.0691,11.0691,11.0691,11.0691,11.0691,11.0691,11.0691,11.0691,11.0691,11.0691,11.05,11.0003,11.0003,10.9697,10.9315,10.9315,10.8686,10.7584,10.6537,10.5272,8.8912,8.937,8.9638,9.0402,9.0593,9.0593,9.0593,9.0669,9.0975,9.1663,0.0,9.2465,9.4108,0.0,9.4681,9.5484,0.0,9.5637,9.5751,9.6401,9.6974,9.7203,9.8617,9.9878,10.0718,10.1597,10.24,10.3278,10.2705,10.2896,10.431,10.4616,10.5495,10.6985,10.7214,10.7596,10.8398,10.9201,10.9621,10.9621,11.0309,11.0691,11.0691,11.0691,11.0691,11.0704,0.0,0.0,11.1085,11.1085,11.1224,11.1396,11.1216,11.1216,11.1307,11.117,11.1178,11.1307,11.1076,11.0999,11.1085,11.0892,11.0793,11.0691,11.0691,11.0691,11.0691,11.0691,11.0691,11.0691,11.0691,11.0691,11.0691,11.0691,11.0691,11.0691,11.0691,11.0691,11.0691,11.0691,11.0691,11.0691,11.0691,11.0691,11.0691,11.0691,11.0691,11.0691,11.0691,11.0691,11.0691,11.0691,11.0691,11.0691,11.0691,11.0691,11.0691,11.0691,11.0691,11.0691,11.0691,11.0691,11.0691,11.0691,11.0691,11.0691,11.0691,11.0691,11.0297,10.9417,10.8135,10.7016,8.9218,8.9829,9.0402,9.0555,9.0593,9.0593,9.0593,9.1128,0.0,0.0,0.0,9.3191,9.4223,9.4414,0.0,9.5484,0.0,0.0,0.0,0.0,9.7394,0.0,0.0,0.0,0.0,0.0,0.0,0.0,0.0,0.0,0.0,10.5686,10.6908,10.7902,10.8589,10.901,10.9201,11.0003,11.05,11.05,11.0614,11.0691,11.0691,11.0691,11.078,11.0881,0.0,0.0,11.1085,11.1085,11.1085,11.117,11.1085,11.1216,11.1307,11.1307,11.139,11.1478,11.1396,11.1314,11.1178,11.0881,11.0691,11.0691,11.0691,11.0691,11.0691,11.0691,11.0691,11.0691,11.0691,11.0691,11.0691,11.0691,11.0691,11.0691,11.0691,11.0691,11.0691,11.0691,11.0691,11.0691,11.0691,11.0691,11.0691,11.0691,11.0691,11.0691,11.0691,11.0691,11.0691,11.0691,11.0691,11.0691,11.0691,11.0691,11.0691,11.0691,11.0691,11.0691,11.0691,11.0691,11.0691,11.0691,11.0691,11.0691,11.0691,11.0691,10.9999,10.8719,10.8397,10.7626,8.9867,9.0287,9.0593,9.0593,9.0593,9.0708,9.1128,0.0,0.0,0.0,0.0,9.4032,9.4872,0.0,0.0,0.0,0.0,0.0,0.0,0.0,0.0,0.0,0.0,0.0,0.0,0.0,0.0,0.0,0.0,0.0,0.0,10.729,10.8398,10.8819,10.9621,11.0118,11.0118,11.05,11.0691,11.0691,11.0691,11.0704,11.0793,11.0793,11.093,11.0989,0.0,0.0,0.0,11.1307,11.1307,11.1307,11.1307,11.1314,11.1396,11.1396,11.1401,11.1522,11.1396,11.139,11.13,11.0989,11.0892,11.0892,11.0793,11.0793,11.0793,11.0691,11.0691,11.0691,11.0691,11.0691,11.0691,11.0691,11.0691,11.0691,11.0691,11.0691,11.0691,11.0691,11.0691,11.0691,11.0691,11.0691,11.0691,11.0691,11.0691,11.0691,11.0691,11.0691,11.0691,11.0691,11.0691,11.0691,11.0691,11.0691,11.0691,11.0691,11.0691,11.0691,11.0691,11.0691,11.0691,11.0691,11.0691,11.0691,11.0691,11.0691,11.0111,10.9081,10.9081,10.8517,9.0402,9.0593,9.0593,9.0593,9.0593,9.0822,9.1625,9.193,0.0,0.0,0.0,9.4872,9.5484,0.0,0.0,0.0,0.0,0.0,0.0,0.0,0.0,0.0,0.0,0.0,0.0,0.0,0.0,0.0,0.0,0.0,0.0,10.8704,10.9506,10.9697,11.0309,11.0691,11.0691,11.0691,11.0691,11.0691,11.0704,11.0793,11.0892,11.0892,11.0989,11.1093,0.0,0.0,0.0,11.1517,11.1522,11.1522,11.1522,11.1522,11.1522,11.1522,11.1522,11.1522,11.1435,11.1314,11.1314,11.1178,11.1093,11.1123,11.0979,11.0903,11.0892,11.0793,11.0793,11.0831,11.078,11.0704,11.0704,11.0691,11.0691,11.0691,11.0691,11.0691,11.0691,11.0691,11.0691,11.0691,11.0691,11.0691,11.0691,11.0691,11.0691,11.0691,11.0691,11.0691,11.0691,11.0691,11.0691,11.0691,11.0691,11.0691,11.0691,11.0691,11.0691,11.0691,11.0691,11.0691,11.0691,11.0691,11.0691,11.0691,11.0691,11.0691,11.0313,10.9575,10.9575,10.917,9.0593,9.0593,9.0593,9.0593,9.0593,9.0822,9.1625,0.0,0.0,0.0,0.0,0.0,0.0,0.0,0.0,0.0,0.0,9.705,0.0,9.8732,9.9916,10.1597,0.0,0.0,0.0,0.0,0.0,0.0,0.0,0.0,0.0,0.0,10.9812,11.0576,11.0691,11.0691,11.0691,11.0691,11.0691,11.0691,11.0793,11.093,11.0892,11.0989,11.1208,11.1307,0.0,0.0,0.0,11.1522,11.1522,11.1522,11.1522,11.1522,11.1522,11.1522,11.1522,11.1522,11.1522,11.1522,11.1478,11.1478,11.1307,11.1085,11.1123,11.1123,11.1123,11.1076,11.1076,11.0999,11.0892,11.093,11.0919,11.0704,11.0691,11.0691,11.0691,11.0691,11.0691,11.0691,11.0691,11.0691,11.0691,11.0691,11.0691,11.0691,11.0691,11.0691,11.0691,11.0691,11.0691,11.0691,11.0691,11.0691,11.0691,11.0691,11.0691,11.0691,11.0691,11.0691,11.0691,11.0691,11.0691,11.0691,11.0691,11.0691,11.0691,11.0691,11.0313,10.9575,10.9575,10.917,9.0593,9.0593,9.0593,9.0593,9.0975,9.1548,9.2389,0.0,0.0,0.0,0.0,0.0,9.5598,0.0,0.0,0.0,0.0,0.0,9.8006,9.8846,10.0183,10.24,0.0,0.0,0.0,0.0,0.0,0.0,0.0,0.0,0.0,0.0,11.0309,11.0691,11.0691,11.0691,11.0691,11.0831,11.0793,11.0793,11.0979,11.1076,11.1093,11.1216,11.1307,0.0,0.0,0.0,0.0,11.1522,11.1522,11.1522,11.1522,11.1522,11.1522,11.1522,11.1522,11.1522,11.1522,11.1522,11.1522,11.1522,11.1396,11.1269,11.1224,11.1178,11.1178,11.1085,11.1085,11.1123,11.1037,11.0979,11.0881,11.0704,11.0691,11.0691,11.0691,11.0691,11.0691,11.0691,11.0691,11.0691,11.0691,11.0691,11.0691,11.0691,11.0691,11.0691,11.0691,11.0691,11.0691,11.0691,11.0691,11.0691,11.0691,11.0691,11.0691,11.0691,11.0691,11.0691,11.0691,11.0691,11.0691,11.0691,11.0691,11.0691,11.0691,11.0691,11.0511,11.0297,11.0297,11.0093,9.0593,9.0593,9.0593,9.0593,9.1204,9.2045,0.0,0.0,0.0,0.0,0.0,9.5598,9.5598,9.5598,9.5598,9.5598,9.6324,9.7165,9.8006,9.9075,10.0604,0.0,0.0,0.0,0.0,0.0,0.0,0.0,0.0,0.0,0.0,0.0,11.0691,11.0691,11.0691,11.0691,11.0691,11.0804,11.0892,11.0892,11.1123,11.1178,11.1307,11.1314,11.1396,0.0,0.0,0.0,0.0,11.1522,11.1522,11.1522,11.1522,11.1522,11.1522,11.1522,11.1522,11.1522,11.1522,11.1522,11.1522,11.1522,11.1522,11.1522,11.1396,11.139,11.1314,11.1224,11.1208,11.1085,11.1085,11.0979,11.0793,11.0742,11.0691,11.0691,11.0691,11.0691,11.0691,11.0691,11.0691,11.0691,11.0691,11.0691,11.0691,11.0691,11.0691,11.0691,11.0691,11.0691,11.0691,11.0691,11.0691,11.0691,11.0691,11.0691,11.0691,11.0691,11.0691,11.0691,11.0691,11.0691,11.0691,11.0691,11.0691,11.0691,11.0691,11.0691,11.0691,11.0691,11.0691,11.0587,9.0593,9.0593,9.0593,9.0593,9.1204,9.2045,0.0,0.0,0.0,0.0,0.0,9.5598,9.5598,9.5598,9.5598,9.5598,9.6324,9.7165,9.8006,9.9534,10.1215,0.0,0.0,0.0,0.0,0.0,0.0,0.0,0.0,0.0,0.0,0.0,0.0,11.0691,11.0691,11.0691,11.0691,11.0804,11.0892,11.0892,11.117,11.1307,11.1307,11.1401,0.0,0.0,0.0,0.0,0.0,11.1522,11.1522,11.1522,11.1522,11.1522,11.1522,11.1522,11.1522,11.1522,11.1522,11.1522,11.1522,11.1522,11.1522,11.1522,11.1522,11.1522,11.1522,11.1522,11.1307,11.1085,11.1085,11.0892,11.0691,11.0691,11.0691,11.0691,11.0691,11.0691,11.0691,11.0691,11.0691,11.0691,11.0691,11.0691,11.0691,11.0691,11.0691,11.0691,11.0691,11.0691,11.0691,11.0691,11.0691,11.0691,11.0691,11.0691,11.0691,11.0691,11.0691,11.0691,11.0691,11.0691,11.0691,11.0691,11.0691,11.0691,11.0691,11.0691,11.0691,11.0691,11.0691,11.0259,9.0593,9.0593,9.0746,9.1281,9.2045,9.2924,9.3803,0.0,0.0,0.0,0.0,0.0,9.5598,9.5598,9.5598,9.5598,9.6783,9.7815,0.0,0.0,0.0,0.0,0.0,0.0,0.0,0.0,0.0,0.0,0.0,0.0,0.0,0.0,0.0,11.0691,11.0691,11.0691,11.0691,11.0892,11.0999,11.0999,11.1307,11.1401,11.1401,0.0,0.0,0.0,0.0,0.0,0.0,11.1522,11.1522,11.1522,11.1522,11.1522,11.1522,11.1522,11.1522,11.1522,11.1522,11.1522,11.1522,11.1522,11.1522,11.1522,11.1522,11.1522,11.1522,11.1522,11.1401,11.1314,11.1093,11.0999,11.0903,11.0704,11.0691,11.0691,11.0691,11.0691,11.0691,11.0691,11.0691,11.0691,11.0691,11.0691,11.0691,11.0691,11.0691,11.0691,11.0691,11.0691,11.0691,11.0691,11.0691,11.0691,11.0691,11.0691,11.0691,11.0691,11.0691,11.0691,11.0691,11.0691,11.0691,11.0691,11.0691,11.0691,11.0691,11.0691,11.0691,11.0691,11.0691,11.0297,0.0,9.0822,9.1166,9.1663,9.2695,0.0,0.0,0.0,0.0,0.0,0.0,0.0,9.5598,9.5598,9.5598,9.5598,9.6745,9.7738,9.8082,0.0,0.0,0.0,0.0,0.0,0.0,0.0,0.0,0.0,0.0,0.0,0.0,0.0,0.0,0.0,11.0691,11.0704,11.0831,11.0989,11.1085,11.1216,11.1396,11.1522,11.1522,0.0,0.0,0.0,0.0,0.0,0.0,11.1522,11.1522,11.1522,11.1522,11.1522,11.1522,11.1522,11.1522,11.1522,11.1522,11.1522,11.1522,11.1522,11.1522,11.1522,11.1522,11.1522,11.1522,11.1522,11.1396,11.1307,11.1093,11.0989,11.0892,11.0704,11.0691,11.0691,11.0691,11.0691,11.0691,11.0691,11.0691,11.0691,11.0691,11.0691,11.0691,11.0691,11.0691,11.0691,11.0691,11.0997,11.1188,11.1188,11.1493,11.1608,11.1608,11.1111,11.0691,11.0691,11.0691,11.0691,11.0691,11.0691,11.0691,11.0691,11.0691,11.0691,11.0691,11.0691,11.0691,11.0691,11.0691,11.0535,0.0,0.0,0.0,0.0,0.0,0.0,0.0,0.0,0.0,0.0,0.0,0.0,0.0,9.5598,9.5598,9.5675,9.6401,9.728,0.0,0.0,0.0,0.0,0.0,0.0,0.0,0.0,0.0,0.0,0.0,0.0,0.0,0.0,0.0,0.0,0.0,11.078,11.093,11.0989,11.117,11.1307,11.1401,11.1522,11.1522,0.0,0.0,0.0,0.0,0.0,0.0,11.1522,11.1522,11.1522,11.1522,11.1522,11.1522,11.1522,11.1522,11.1522,11.1522,11.1522,11.1522,11.1522,11.1522,11.1522,11.1522,11.1522,11.1522,11.1522,11.1269,11.1085,11.1085,11.0892,11.0704,11.0691,11.0691,11.0691,11.0691,11.0691,11.0691,11.0691,11.0691,11.0691,11.0691,11.0806,11.0806,11.0806,11.0806,11.0882,11.0882,11.1608,11.2105,11.2105,11.2792,11.3213,11.3213,11.1799,11.0882,11.0882,11.0882,11.0882,11.0882,11.0806,11.0806,11.0806,11.0691,11.0691,11.0691,11.0691,11.0691,11.0691,11.0691,11.0691,0.0,0.0,0.0,0.0,0.0,0.0,0.0,0.0,0.0,0.0,0.0,0.0,0.0,0.0,9.5828,9.6477,9.728,9.8349,9.9801,0.0,0.0,0.0,0.0,0.0,0.0,0.0,0.0,0.0,0.0,0.0,0.0,0.0,0.0,0.0,0.0,11.0793,11.0704,11.1028,11.1085,11.1093,11.1396,11.1522,0.0,0.0,0.0,0.0,0.0,0.0,0.0,11.1522,11.1522,11.1522,11.1522,11.1522,11.1522,11.1522,11.1522,11.1522,11.1522,11.1522,11.1522,11.1522,11.1522,11.1522,11.1522,11.1522,11.1522,11.1522,11.1517,11.139,11.1208,11.1076,11.0979,11.0704,11.0691,11.0691,11.0691,11.0691,11.0691,11.0691,11.0691,11.0691,11.0691,11.1302,11.1684,11.1684,11.2219,11.2601,11.2601,11.2792,11.2907,11.2907,11.3098,11.3213,11.3213,11.2792,11.2601,11.2601,11.2601,11.2601,11.2601,11.199,11.1684,11.1684,11.0997,11.0691,11.0691,11.0691,11.0691,11.0691,11.0691,11.0691,0.0,0.0,0.0,0.0,0.0,0.0,0.0,0.0,0.0,0.0,0.0,0.0,0.0,0.0,0.0,9.6745,9.7585,9.8961,0.0,0.0,0.0,0.0,0.0,0.0,0.0,0.0,0.0,0.0,0.0,0.0,0.0,0.0,0.0,0.0,0.0,11.0793,11.0793,11.0989,11.1132,11.1216,11.1396,11.1522,0.0,0.0,0.0,0.0,0.0,0.0,11.1522,11.1522,11.1522,11.1522,11.1522,11.1522,11.1522,11.1522,11.1522,11.1522,11.1522,11.1522,11.1522,11.1522,11.1522,11.1522,11.1522,11.1522,11.1522,11.1522,11.1396,11.1307,11.1132,11.0989,11.093,11.0704,11.0691,11.0691,11.0691,11.0997,11.1302,11.1302,11.1608,11.1799,11.1799,11.2219,11.2601,11.2601,11.2907,11.3213,11.3213,11.3518,11.3786,11.3786,11.4091,11.4321,11.4321,11.4321,11.4015,11.3213,11.3213,11.3213,11.3213,11.2792,11.241,11.199,11.1493,11.1111,11.0691,11.0691,11.0691,11.0691,11.0691,11.0691,0.0,0.0,0.0,0.0,0.0,0.0,0.0,0.0,0.0,0.0,0.0,0.0,0.0,0.0,0.0,0.0,0.0,0.0,0.0,0.0,0.0,0.0,0.0,0.0,0.0,0.0,0.0,0.0,0.0,0.0,0.0,0.0,0.0,0.0,0.0,0.0,11.0892,11.0999,11.1208,11.1307,11.1396,11.1522,11.1522,0.0,0.0,0.0,0.0,0.0,11.1714,11.1714,11.1791,11.1906,11.1906,11.1906,11.1906,11.1906,11.1906,11.1906,11.1906,11.1906,11.1906,11.1906,11.1906,11.1906,11.1906,11.1906,11.1906,11.1906,11.1576,11.1276,11.1506,11.1275,11.1124,11.1073,11.1111,11.1111,11.1111,11.1684,11.2181,11.2181,11.2716,11.3213,11.3213,11.3289,11.3404,11.3404,11.3518,11.3595,11.3595,11.4206,11.4703,11.4703,11.5314,11.5696,11.5696,11.5696,11.5085,11.3709,11.3595,11.3518,11.3404,11.3404,11.3022,11.2181,11.2105,11.1608,11.0882,11.0806,11.0691,11.0691,11.0691,11.0691,9.1434,0.0,0.0,0.0,0.0,0.0,0.0,0.0,0.0,0.0,0.0,0.0,0.0,0.0,0.0,0.0,0.0,0.0,0.0,0.0,0.0,0.0,0.0,0.0,0.0,0.0,0.0,0.0,0.0,0.0,0.0,0.0,0.0,0.0,0.0,0.0,0.0,11.1123,11.1085,11.1132,11.1435,11.1522,11.1522,11.1522,0.0,0.0,0.0,0.0,11.2522,11.2522,11.2983,11.3599,11.3599,11.3599,11.3599,11.3599,11.3599,11.3599,11.3599,11.3599,11.3599,11.3599,11.3599,11.3599,11.3599,11.3599,11.3599,11.3599,11.3011,11.2414,11.3126,11.3135,11.3023,11.2792,11.2792,11.2792,11.2792,11.2907,11.3022,11.3022,11.3098,11.3213,11.3213,11.3786,11.4283,11.4283,11.4894,11.5314,11.5314,11.5391,11.5505,11.5505,11.562,11.5696,11.5696,11.5696,11.562,11.5314,11.5314,11.5008,11.4283,11.4283,11.39,11.3022,11.2296,11.1914,11.1799,11.1111,11.0691,11.0691,11.0691,11.0691,9.1586,9.2427,0.0,0.0,0.0,0.0,0.0,0.0,0.0,0.0,0.0,0.0,0.0,0.0,0.0,0.0,0.0,0.0,0.0,0.0,0.0,0.0,0.0,0.0,0.0,0.0,0.0,0.0,0.0,0.0,0.0,0.0,0.0,0.0,0.0,0.0,0.0,11.117,11.1178,11.1178,11.1396,11.1714,11.2099,11.2099,11.2406,0.0,0.0,11.3099,11.3407,11.3407,11.3599,11.3984,11.3984,11.3984,11.3984,11.3984,11.3984,11.3984,11.3984,11.3984,11.3984,11.3984,11.3984,11.3984,11.3984,11.3984,11.4099,11.4599,11.3888,11.3165,11.35,11.3392,11.3265,11.3174,11.3213,11.3213,11.3213,11.3595,11.39,11.39,11.4283,11.4588,11.4588,11.4894,11.5085,11.5085,11.5505,11.5696,11.5696,11.5696,11.5696,11.5696,11.5696,11.5696,11.5696,11.5696,11.5696,11.5696,11.5696,11.5505,11.52,11.5085,11.4779,11.39,11.3098,11.241,11.199,11.1111,11.0691,11.0691,11.0691,11.0691,9.1816,9.258,0.0,0.0,0.0,0.0,0.0,0.0,0.0,0.0,0.0,0.0,0.0,0.0,0.0,0.0,0.0,0.0,0.0,0.0,0.0,0.0,0.0,0.0,0.0,0.0,0.0,0.0,0.0,0.0,0.0,0.0,0.0,0.0,0.0,0.0,0.0,11.1492,11.1576,11.1576,11.1709,11.2214,11.3022,11.3022,11.3407,11.3984,11.3984,11.4099,11.4291,11.4291,11.4407,11.4599,11.4599,11.4599,11.4599,11.4599,11.4599,11.4599,11.4599,11.4599,11.4599,11.4599,11.4599,11.4599,11.4599,11.4599,11.4714,11.5407,11.4925,11.42,11.4191,11.3993,11.38,11.3786,11.3824,11.3824,11.3824,11.4283,11.4779,11.4779,11.5314,11.5696,11.5696,11.5696,11.5696,11.5696,11.5696,11.5696,11.5696,11.5696,11.5696,11.5696,11.5696,11.5696,11.5696,11.5696,11.5696,11.5696,11.5696,11.5696,11.5696,11.5696,11.5391,11.4779,11.39,11.3098,11.2296,11.1417,11.0882,11.0691,11.0691,11.0691,9.258,9.3038,0.0,0.0,0.0,0.0,0.0,0.0,0.0,0.0,0.0,0.0,0.0,0.0,0.0,0.0,0.0,0.0,0.0,0.0,0.0,0.0,0.0,0.0,0.0,0.0,0.0,0.0,0.0,0.0,0.0,0.0,0.0,0.0,0.0,0.0,0.0,0.0,11.2383,11.2383,11.2517,11.3099,11.3907,11.3907,11.3907,11.3984,11.3984,11.4484,11.5215,11.5215,11.5599,11.6292,11.6292,11.6292,11.6292,11.6292,11.6292,11.6292,11.6292,11.6292,11.6292,11.6292,11.6292,11.6292,11.6292,11.6292,11.6292,11.6407,11.6316,11.6099,11.6003,11.5817,11.5702,11.5467,11.5505,11.5505,11.5505,11.5582,11.562,11.562,11.5696,11.5696,11.5696,11.5696,11.5696,11.5696,11.5696,11.5696,11.5696,11.5696,11.5696,11.5696,11.5696,11.5696,11.5696,11.5696,11.5696,11.5696,11.5696,11.5696,11.5696,11.5696,11.5696,11.562,11.4779,11.4015,11.3098,11.2296,11.1493,11.0691,11.0691,11.0691,9.2771,9.3502,0.0,0.0,0.0,0.0,0.0,0.0,0.0,0.0,0.0,0.0,0.0,0.0,0.0,0.0,0.0,0.0,0.0,0.0,0.0,0.0,0.0,0.0,0.0,0.0,0.0,0.0,0.0,0.0,0.0,0.0,0.0,0.0,0.0,0.0,0.0,0.0,11.3209,11.4209,11.3714,11.3984,11.4791,11.4791,11.5099,11.5599,11.5599,11.5715,11.5984,11.5984,11.6176,11.6484,11.6484,11.6484,11.6484,11.6484,11.6484,11.6484,11.6484,11.6484,11.6484,11.6484,11.6484,11.6484,11.6484,11.6484,11.6484,11.6484,11.6477,11.6386,11.6195,11.6008,11.5893,11.5711,11.5696,11.5696,11.5696,11.5696,11.5696,11.5696,11.5696,11.5696,11.5696,11.5696,11.5696,11.5696,11.5696,11.5696,11.5696,11.5696,11.5696,11.5696,11.5696,11.5696,11.5696,11.5696,11.5696,11.5696,11.5696,11.5696,11.5696,11.5696,11.5696,11.5696,11.4894,11.4091,11.3213,11.241,11.1608,11.0691,11.0691,11.0691,9.2847,9.3769,0.0,0.0,0.0,0.0,0.0,0.0,0.0,0.0,0.0,0.0,0.0,0.0,0.0,0.0,0.0,0.0,0.0,0.0,0.0,0.0,0.0,0.0,0.0,0.0,0.0,0.0,0.0,0.0,0.0,0.0,0.0,0.0,0.0,0.0,0.0,0.0,11.4099,11.5291,11.4984,11.5099,11.5676,11.5676,11.5984,11.6484,11.6484,11.6484,11.6484,11.6484,11.6484,11.6484,11.6484,11.6484,11.6484,11.6484,11.6484,11.6484,11.6484,11.6484,11.6484,11.6484,11.6484,11.6484,11.6484,11.6484,11.6484,11.6484,11.6484,11.64,11.6167,11.6108,11.6008,11.5802,11.5788,11.5788,11.5696,11.5696,11.5696,11.5696,11.5696,11.5696,11.5696,11.5696,11.5696,11.5696,11.5696,11.5696,11.5696,11.5696,11.5696,11.5696,11.5696,11.5696,11.5696,11.5696,11.5696,11.5696,11.5696,11.5696,11.5696,11.5696,11.5696,11.5696,11.52,11.4512,11.3595,11.2792,11.1914,11.1111,11.0806,11.0691,9.2886,0.0,0.0,0.0,0.0,0.0,0.0,0.0,0.0,0.0,0.0,0.0,0.0,0.0,0.0,0.0,0.0,0.0,0.0,0.0,0.0,0.0,0.0,0.0,0.0,0.0,0.0,0.0,0.0,0.0,0.0,0.0,0.0,0.0,0.0,0.0,0.0,0.0,11.5291,11.5291,11.6099,11.6484,11.6484,11.6484,11.6484,11.6484,11.6484,11.6484,11.6484,11.6484,11.6484,11.6484,11.6484,11.6484,11.6484,11.6484,11.6484,11.6484,11.6484,11.6484,11.6484,11.6484,11.6484,11.6484,11.6484,11.6484,11.6484,11.6484,11.6484,11.6522,11.6309,11.63,11.6167,11.5996,11.5906,11.5893,11.5711,11.5696,11.5696,11.5696,11.5696,11.5696,11.5696,11.5696,11.5696,11.5696,11.5696,11.5696,11.5696,11.5696,11.5696,11.5696,11.5696,11.5696,11.5696,11.5696,11.5696,11.5696,11.5696,11.5696,11.5696,11.5696,11.5696,11.5696,11.5696,11.5314,11.4474,11.3595,11.2792,11.199,11.1111,11.0691,9.3803,0.0,0.0,0.0,0.0,0.0,0.0,0.0,0.0,0.0,0.0,0.0,0.0,0.0,0.0,0.0,0.0,0.0,0.0,0.0,0.0,0.0,0.0,0.0,0.0,0.0,0.0,0.0,0.0,0.0,0.0,0.0,0.0,0.0,0.0,0.0,0.0,0.0,0.0,11.6099,11.6407,11.6484,11.6484,11.6484,11.6484,11.6484,11.6484,11.6484,11.6484,11.6484,11.6484,11.6484,11.6484,11.6484,11.6407,11.5907,11.5676,11.5599,11.4984,11.4714,11.4791,11.5484,11.5676,11.5792,11.6292,11.6484,11.6484,11.6484,11.6484,11.6484,11.6477,11.6386,11.6167,11.5996,11.5906,11.5893,11.5711,11.5696,11.5696,11.5696,11.5696,11.5505,11.5008,11.4894,11.4894,11.4894,11.4894,11.5085,11.562,11.5696,11.5696,11.5696,11.5696,11.5696,11.5696,11.5696,11.5696,11.5696,11.5696,11.5696,11.5696,11.5696,11.5696,11.5696,11.5696,11.5314,11.4474,11.3595,11.2792,11.199,11.1111,11.0691,0.0,0.0,0.0,0.0,0.0,0.0,0.0,0.0,0.0,0.0,0.0,0.0,0.0,0.0,0.0,0.0,0.0,0.0,0.0,0.0,0.0,0.0,0.0,0.0,0.0,0.0,0.0,0.0,0.0,0.0,0.0,0.0,0.0,0.0,0.0,0.0,0.0,0.0,0.0,11.6484,11.6484,11.6484,11.6484,11.6484,11.6484,11.6484,11.6484,11.6484,11.6484,11.6176,11.5984,11.5984,11.5599,11.5676,11.5984,11.5484,11.5484,11.5676,11.5215,11.4984,11.5099,11.5599,11.5792,11.5907,11.6407,11.6484,11.6484,11.6484,11.6484,11.6484,11.6484,11.6393,11.6215,11.597,11.5919,11.5893,11.5711,11.5696,11.5696,11.5696,11.5696,11.5505,11.5085,11.5008,11.5008,11.5008,11.5008,11.52,11.562,11.5696,11.5696,11.5696,11.5696,11.5696,11.5696,11.5696,11.5696,11.5696,11.5696,11.5696,11.5696,11.5696,11.5696,11.5696,11.5696,11.5505,11.5008,11.3786,11.3022,11.241,11.1302,11.0691,0.0,0.0,0.0,0.0,0.0,0.0,0.0,0.0,0.0,0.0,0.0,0.0,0.0,0.0,0.0,0.0,0.0,0.0,0.0,0.0,0.0,0.0,0.0,0.0,0.0,0.0,0.0,0.0,0.0,0.0,0.0,0.0,0.0,0.0,0.0,0.0,0.0,0.0,0.0,0.0,11.6484,11.6484,11.6407,11.6484,11.6484,11.6407,11.6407,11.6292,11.6176,11.5599,11.5291,11.5215,11.4484,11.4714,11.5407,11.5291,11.5792,11.6407,11.6292,11.6292,11.6292,11.6407,11.6407,11.6407,11.6484,11.6484,11.6484,11.6484,11.6484,11.6484,11.6484,11.6393,11.6291,11.6069,11.6008,11.5893,11.5711,11.5696,11.5696,11.5696,11.5696,11.5696,11.562,11.5582,11.5582,11.5582,11.5696,11.5696,11.5696,11.5696,11.5696,11.5696,11.5696,11.5696,11.5696,11.5696,11.5696,11.5696,11.5696,11.5696,11.5696,11.5696,11.5696,11.5696,11.5696,11.5696,11.5696,11.4091,11.3289,11.3213,11.1608,11.0806,0.0,0.0,0.0,0.0,0.0,0.0,0.0,0.0,0.0,0.0,0.0,0.0,0.0,0.0,0.0,0.0,0.0,0.0,0.0,0.0,0.0,0.0,0.0,0.0,0.0,0.0,0.0,0.0,0.0,0.0,0.0,0.0,0.0,0.0,0.0,0.0,0.0,11.6407,11.6484,0.0,11.6484,11.6176,11.5599,11.6176,11.6176,11.5599,11.5599,11.5176,11.4599,11.5099,11.5291,11.5291,11.5792,11.6099,11.6176,11.5484,11.5407,11.5484,11.4791,11.4484,11.4714,11.5291,11.5599,11.5676,11.6292,11.6484,11.6484,11.6484,11.6484,11.6484,11.6484,11.6393,11.6291,11.6069,11.6008,11.5893,11.5711,11.5696,11.5696,11.5696,11.5696,11.5505,11.4894,11.4779,11.4779,11.4779,11.5314,11.5696,11.5696,11.5696,11.5696,11.5696,11.5696,11.5696,11.5696,11.5696,11.5696,11.5696,11.5696,11.5696,11.5696,11.5696,11.5696,11.5696,11.5696,11.5696,11.5696,11.4703,11.39,11.3213,11.2181,11.1379,0.0,0.0,0.0,0.0,0.0,0.0,0.0,0.0,0.0,0.0,0.0,0.0,0.0,0.0,0.0,0.0,0.0,0.0,0.0,0.0,0.0,0.0,0.0,0.0,0.0,0.0,0.0,0.0,0.0,0.0,0.0,0.0,0.0,0.0,0.0,0.0,11.6484,11.6484,11.6292,11.5907,11.6292,11.6292,11.5907,11.5907,11.5676,11.5291,11.5676,11.5599,11.5215,11.5291,11.5291,11.5291,11.5291,11.5599,11.5907,11.5484,11.5484,11.5792,11.5407,11.5215,11.5291,11.5676,11.5907,11.5984,11.6407,11.6484,11.6484,11.6484,11.6484,11.6484,11.6484,11.6386,11.6205,11.6108,11.6008,11.5893,11.5711,11.5696,11.5696,11.5696,11.5696,11.5582,11.5085,11.5085,11.5085,11.5085,11.5391,11.5696,11.5696,11.5696,11.5696,11.5696,11.5696,11.5696,11.5696,11.5696,11.5696,11.5696,11.5696,11.5696,11.5696,11.5696,11.5696,11.5696,11.5696,11.5696,11.5696,11.4894,11.4091,11.3213,11.241,11.1493,0.0,0.0,0.0,0.0,0.0,0.0,0.0,0.0,0.0,0.0,0.0,0.0,0.0,0.0,0.0,0.0,0.0,0.0,0.0,0.0,0.0,0.0,0.0,0.0,0.0,0.0,0.0,0.0,0.0,0.0,0.0,0.0,0.0,0.0,0.0,11.5792,11.6292,11.6292,11.5984,11.5291,11.5984,11.6292,11.6292,11.5599,11.5291,11.5291,11.5984,11.6176,11.5984,11.5484,11.5291,11.5215,11.4714,11.4907,11.5484,11.5484,11.5907,11.6484,11.6484,11.6484,11.6484,11.6484,11.6484,11.6484,11.6484,11.6484,11.6484,11.6484,11.6484,11.6484,11.6522,11.63,11.6069,11.6097,11.6008,11.5893,11.5711,11.5696,11.5696,11.5696,11.5696,11.5696,11.5696,11.5696,11.5696,11.5696,11.5696,11.5696,11.5696,11.5696,11.5696,11.5696,11.5696,11.5696,11.5696,11.5696,11.5696,11.5696,11.5696,11.5696,11.5696,11.5696,11.5696,11.5696,11.5696,11.5696,11.5696,11.5008,11.4206,11.3213,11.2487,11.1684,0.0,0.0,0.0,0.0,0.0,0.0,0.0,0.0,0.0,0.0,0.0,0.0,0.0,0.0,0.0,0.0,0.0,0.0,0.0,0.0,0.0,0.0,0.0,0.0,0.0,0.0,0.0,0.0,0.0,0.0,0.0,0.0,11.4214,11.5099,11.5907,0.0,11.5484,11.5484,11.5407,11.5291,11.5407,11.5484,11.5484,11.5291,11.5291,11.5291,11.5407,11.4984,11.4407,11.4984,11.5291,11.5407,11.5907,11.6176,11.6292,11.6292,11.6407,11.6484,11.6484,11.6484,11.6484,11.6484,11.6484,11.6484,11.6484,11.6484,11.6484,11.6484,11.6484,11.6522,11.6386,11.63,11.6205,11.6008,11.5906,11.5893,11.5711,11.5696,11.5696,11.5696,11.5696,11.5696,11.5696,11.5696,11.5696,11.5696,11.5696,11.5696,11.5696,11.5696,11.5696,11.5696,11.5696,11.5696,11.5696,11.5696,11.5696,11.5696,11.5696,11.5696,11.5696,11.5696,11.5696,11.5696,11.5696,11.5696,11.5696,11.5582,11.4703,11.3213,11.3098,11.2219,0.0,0.0,0.0,0.0,0.0,0.0,0.0,0.0,0.0,0.0,0.0,0.0,0.0,0.0,0.0,0.0,0.0,0.0,0.0,0.0,0.0,0.0,0.0,0.0,0.0,0.0,0.0,0.0,0.0,0.0,0.0,11.3483,11.4407,11.5291,11.5599,0.0,11.5291,11.5291,11.5484,11.5984,11.5484,11.5484,11.5984,11.5984,11.5676,11.5291,11.5792,11.5792,11.5407,11.5792,11.5984,11.5984,11.6407,11.6484,11.6484,11.6484,11.6484,11.6484,11.6484,11.6484,11.6484,11.6484,11.6484,11.6484,11.6484,11.6484,11.6484,11.6484,11.6484,11.6522,11.6309,11.6215,11.6118,11.5919,11.5816,11.5788,11.5696,11.5696,11.5696,11.5696,11.5696,11.5696,11.5696,11.5696,11.5696,11.5696,11.5696,11.5696,11.5696,11.5696,11.5696,11.5696,11.5696,11.5696,11.5696,11.5696,11.5696,11.5696,11.5696,11.5696,11.5696,11.5696,11.5696,11.5696,11.5696,11.5696,11.5696,11.5696,11.4817,11.3213,11.3213,11.2296,0.0,0.0,0.0,0.0,0.0,0.0,0.0,0.0,0.0,0.0,0.0,0.0,0.0,0.0,0.0,0.0,0.0,0.0,0.0,0.0,0.0,0.0,0.0,0.0,0.0,0.0,0.0,0.0,0.0,0.0,11.2983,11.3599,11.4407,11.5291,11.5291,11.5176,11.4984,11.5176,11.5599,11.6176,11.5792,11.5907,11.6484,11.6484,11.6176,11.5599,11.6176,11.6484,11.6484,11.6484,11.6484,11.6484,11.6484,11.6484,11.6484,11.6484,11.6484,11.6484,11.6484,11.6484,11.6484,11.6484,11.6484,11.6484,11.6484,11.6484,11.6484,11.6484,11.6484,11.6477,11.63,11.6195,11.6097,11.5906,11.5788,11.5696,11.5696,11.5696,11.5696,11.5696,11.5696,11.5696,11.5696,11.5696,11.5696,11.5696,11.5696,11.5696,11.5696,11.5696,11.5696,11.5696,11.5696,11.5696,11.5696,11.5696,11.5696,11.5696,11.5696,11.5696,11.5696,11.5696,11.5696,11.5696,11.5696,11.5696,11.5696,11.5696,11.5008,11.3518,11.3289,11.241,0.0,0.0,0.0,0.0,0.0,0.0,0.0,0.0,0.0,0.0,0.0,0.0,0.0,0.0,0.0,0.0,0.0,0.0,0.0,0.0,0.0,0.0,0.0,0.0,0.0,0.0,0.0,0.0,0.0,0.0,11.3791,11.3984,11.4407,11.5291,11.5291,11.4907,11.4099,11.4907,11.5291,11.5407,11.6099,11.6484,11.6484,11.6484,11.6484,11.6407,11.6484,11.6484,11.6484,11.6484,11.6484,11.6484,11.6484,11.6484,11.6484,11.6484,11.6484,11.6484,11.6484,11.6484,11.6484,11.6484,11.6484,11.6484,11.6484,11.6484,11.6484,11.6484,11.6484,11.64,11.6205,11.6108,11.602,11.5788,11.5696,11.5696,11.5696,11.5696,11.5696,11.5696,11.5696,11.5696,11.5696,11.5696,11.5696,11.5696,11.5696,11.5696,11.5696,11.5696,11.5696,11.5696,11.5696,11.5696,11.5696,11.5696,11.5696,11.5696,11.5696,11.5696,11.5696,11.5696,11.5696,11.5696,11.5696,11.5696,11.5696,11.5696,11.5314,11.4397,11.3595,11.2716,0.0,0.0,0.0,0.0,0.0,0.0,0.0,0.0,0.0,0.0,0.0,0.0,0.0,0.0,0.0,0.0,0.0,0.0,0.0,0.0,0.0,0.0,0.0,0.0,0.0,0.0,0.0,0.0,0.0,0.0,11.3907,11.3984,11.4407,11.5291,11.4791,11.4291,11.3984,11.4907,11.5599,11.6099,11.6407,11.6484,11.6484,11.6484,11.6484,11.6484,11.6484,11.6484,11.6484,11.6484,11.6484,11.6484,11.6484,11.6484,11.6484,11.6484,11.6484,11.6484,11.6484,11.6484,11.6484,11.6484,11.6484,11.6484,11.6484,11.6484,11.6484,11.6484,11.6484,11.64,11.6195,11.6108,11.602,11.5788,11.5696,11.5696,11.5696,11.5696,11.5696,11.5696,11.5696,11.5696,11.5696,11.5696,11.5696,11.5696,11.5696,11.5696,11.5696,11.5696,11.5696,11.5696,11.5696,11.5696,11.5696,11.5696,11.5696,11.5696,11.5696,11.5696,11.5696,11.5696,11.5696,11.5696,11.5696,11.5696,11.5696,11.5696,11.5314,11.4474,11.4206,11.3289,0.0,0.0,0.0,0.0,0.0,0.0,0.0,0.0,0.0,0.0,0.0,0.0,0.0,0.0,0.0,0.0,0.0,0.0,0.0,0.0,0.0,0.0,0.0,0.0,0.0,0.0,0.0,0.0,0.0,0.0,11.3907,11.3714,11.3984,11.4791,11.4291,11.4099,11.4407,11.5291,11.5984,11.6484,11.6484,11.6484,11.6484,11.6484,11.6484,11.6484,11.6484,11.6484,11.6484,11.6484,11.6484,11.6484,11.6484,11.6484,11.6484,11.6484,11.6484,11.6484,11.6484,11.6484,11.6484,11.6484,11.6484,11.6484,11.6484,11.6484,11.6484,11.6484,11.6484,11.64,11.6195,11.602,11.5868,11.5711,11.5696,11.5696,11.5696,11.5696,11.5696,11.5696,11.5696,11.5696,11.5696,11.5696,11.5696,11.5696,11.5696,11.5696,11.5696,11.5696,11.5696,11.5696,11.5696,11.5696,11.5696,11.5696,11.5696,11.5696,11.5696,11.5696,11.5696,11.5696,11.5696,11.5696,11.5696,11.5696,11.5696,11.5696,11.5391,11.4894,11.4588,11.3595,0.0,0.0,0.0,0.0,0.0,0.0,0.0,0.0,0.0,0.0,0.0,0.0,0.0,0.0,0.0,0.0,0.0,0.0,0.0,0.0,0.0,0.0,0.0,0.0,0.0,0.0,0.0,0.0,0.0,11.2214,11.3907,11.3214,11.3099,11.3984,11.3984,11.4407,11.5291,11.6099,11.6484,11.6484,11.6484,11.6484,11.6484,11.6484,11.6484,11.6484,11.6484,11.6484,11.6484,11.6484,11.6484,11.6484,11.6484,11.6484,11.6484,11.6484,11.6484,11.6484,11.6484,11.6484,11.6484,11.6484,11.6484,11.6484,11.6484,11.6484,11.6484,11.6484,11.6484,11.6516,11.6195,11.5906,11.5696,11.5696,11.5696,11.5696,11.5696,11.5696,11.5696,11.5696,11.5696,11.5696,11.5696,11.5696,11.5696,11.5696,11.5696,11.5696,11.5696,11.5696,11.5696,11.5696,11.5696,11.5696,11.5696,11.5696,11.5696,11.5696,11.5696,11.5696,11.5696,11.5696,11.5696,11.5696,11.5696,11.5696,11.5696,11.5696,11.5696,11.5696,11.4779,11.3595,9.6288,0.0,0.0,0.0,0.0,0.0,0.0,0.0,0.0,0.0,0.0,0.0,0.0,0.0,0.0,0.0,0.0,0.0,0.0,0.0,0.0,0.0,0.0,0.0,0.0,0.0,0.0,0.0,0.0,11.2214,11.3907,11.3791,11.3791,11.3984,11.3984,11.4407,11.5291,11.6099,11.6484,11.6484,11.6484,11.6484,11.6484,11.6484,11.6484,11.6484,11.6484,11.6484,11.6484,11.6484,11.6484,11.6484,11.6484,11.6484,11.6484,11.6484,11.6484,11.6484,11.6484,11.6484,11.6484,11.6484,11.6484,11.6484,11.6484,11.6484,11.6484,11.6484,11.6984,11.74,11.7077,11.6787,11.6499,11.5811,11.5696,11.5696,11.5696,11.5696,11.5696,11.5696,11.5696,11.5696,11.5696,11.5696,11.5696,11.5696,11.5696,11.5696,11.5696,11.5696,11.5696,11.5696,11.5696,11.5696,11.5696,11.5696,11.5696,11.5696,11.5696,11.5696,11.5696,11.5696,11.5696,11.5696,11.5696,11.5696,11.5696,11.5696,11.5696,11.5696,11.4206,11.3289,0.0,0.0,0.0,0.0,0.0,0.0,0.0,10.2597,0.0,0.0,0.0,0.0,0.0,0.0,0.0,0.0,0.0,0.0,0.0,0.0,0.0,0.0,0.0,0.0,0.0,0.0,0.0,0.0,11.1522,11.1906,11.2906,11.3291,11.3599,11.3984,11.3984,11.4599,11.5792,11.6292,11.6484,11.6484,11.6484,11.6484,11.6484,11.6484,11.6484,11.6484,11.6484,11.6484,11.6484,11.6484,11.6484,11.6484,11.6484,11.6484,11.6484,11.6484,11.6484,11.6484,11.6484,11.6484,11.6484,11.6484,11.6715,11.6984,11.6984,11.7292,11.76,11.76,11.7892,11.8106,11.786,11.7691,11.7301,11.6422,11.6193,11.6117,11.5811,11.5696,11.5696,11.5696,11.5696,11.5696,11.5696,11.5696,11.5696,11.5696,11.5696,11.5696,11.5696,11.5696,11.5696,11.5696,11.5696,11.5696,11.5696,11.5696,11.5696,11.5696,11.5696,11.5696,11.5696,11.5696,11.5696,11.5696,11.5696,11.5696,11.5696,11.5696,11.5696,11.5696,11.4015,11.3213,0.0,0.0,0.0,0.0,0.0,0.0,10.1096,10.2597,10.3905,0.0,0.0,0.0,0.0,0.0,0.0,0.0,0.0,0.0,0.0,0.0,0.0,0.0,0.0,0.0,0.0,0.0,0.0,11.1522,11.1598,11.1598,11.1522,11.2291,11.3099,11.3984,11.3984,11.4791,11.6484,11.6484,11.6484,11.6484,11.6484,11.6484,11.6484,11.6484,11.6484,11.6484,11.6484,11.6484,11.6484,11.6484,11.6484,11.6484,11.6484,11.6484,11.6484,11.6599,11.6599,11.6676,11.6792,11.6792,11.6792,11.6792,11.7292,11.7907,11.7907,11.8484,11.91,11.9215,11.9027,11.8818,11.8638,11.848,11.818,11.7225,11.6995,11.6804,11.5887,11.5696,11.5696,11.5696,11.5696,11.5696,11.5696,11.5696,11.5696,11.5696,11.5696,11.5696,11.5696,11.5696,11.5696,11.5696,11.5696,11.5696,11.5696,11.5696,11.5696,11.5696,11.5696,11.5696,11.5696,11.5696,11.5696,11.5696,11.5696,11.5696,11.5696,11.5696,11.5696,11.5696,11.4015,11.3213,0.0,0.0,0.0,0.0,0.0,0.0,10.1096,10.2597,10.3905,0.0,0.0,0.0,0.0,0.0,0.0,0.0,0.0,0.0,0.0,0.0,0.0,0.0,0.0,0.0,0.0,0.0,11.1522,11.1522,11.2099,11.2214,11.1522,11.2291,11.3099,11.3984,11.3984,11.4791,11.6484,11.6484,11.6484,11.6484,11.6484,11.6484,11.6484,11.6484,11.6484,11.6484,11.6484,11.6484,11.6484,11.6484,11.6484,11.6484,11.6484,11.6484,11.6599,11.7292,11.7484,11.76,11.8292,11.86,11.86,11.86,11.8715,11.8792,11.8792,11.8985,11.9215,11.9767,11.9724,11.9519,11.9505,11.9397,11.8906,11.7416,11.6995,11.6804,11.5887,11.5696,11.5696,11.5696,11.5696,11.5696,11.5696,11.5696,11.5696,11.5696,11.5696,11.5696,11.5696,11.5696,11.5696,11.5696,11.5696,11.5696,11.5696,11.5696,11.5696,11.5696,11.5696,11.5696,11.5696,11.5696,11.5696,11.5696,11.5696,11.5696,11.5696,11.5696,11.5696,11.5696,11.4015,11.3213,0.0,0.0,0.0,9.9981,0.0,0.0,0.0,10.2597,10.3905,0.0,0.0,0.0,0.0,0.0,0.0,0.0,0.0,0.0,0.0,0.0,0.0,0.0,0.0,0.0,0.0,0.0,11.1522,11.1522,11.1906,11.1906,11.1522,11.1906,11.2714,11.3984,11.3984,11.4791,11.6484,11.6484,11.6484,11.6484,11.6484,11.6484,11.6484,11.6484,11.6484,11.6484,11.6484,11.6484,11.6484,11.6484,11.6484,11.6484,11.6484,11.6484,11.6599,11.6984,11.7215,11.7215,11.7677,11.7792,11.7792,11.7792,11.81,11.8484,11.8484,11.8708,11.9122,11.9324,11.9316,11.9122,11.8977,11.8999,11.8677,11.7798,11.7607,11.7416,11.6499,11.6308,11.6193,11.5811,11.5696,11.5696,11.5696,11.5696,11.5696,11.5696,11.5696,11.5696,11.5696,11.5696,11.5696,11.5696,11.5696,11.5696,11.5696,11.5696,11.5696,11.5696,11.5696,11.5696,11.5696,11.5696,11.5696,11.5696,11.5696,11.5696,11.5696,11.5696,11.5696,11.5696,11.4015,11.3213,0.0,0.0,0.0,0.0,0.0,10.1289,0.0,0.0,0.0,10.4097,0.0,0.0,0.0,0.0,0.0,0.0,0.0,0.0,0.0,0.0,0.0,0.0,0.0,0.0,0.0,0.0,11.1522,11.1522,11.1522,11.1522,11.1522,11.1522,11.2291,11.3907,11.3984,11.4791,11.6484,11.6484,11.6484,11.6484,11.6484,11.6484,11.6484,11.6484,11.6484,11.6484,11.6484,11.6484,11.6484,11.6484,11.6484,11.6484,11.6484,11.6484,11.6484,11.6676,11.6792,11.6792,11.6907,11.6984,11.6984,11.6984,11.7484,11.8023,11.7977,11.8384,11.8825,11.8715,11.86,11.8418,11.8311,11.8294,11.8294,11.8294,11.8294,11.8103,11.7186,11.6995,11.669,11.5887,11.5696,11.5696,11.5696,11.5696,11.5696,11.5696,11.5696,11.5696,11.5696,11.5696,11.5696,11.5696,11.5696,11.5696,11.5696,11.5696,11.5696,11.5696,11.5696,11.5696,11.5696,11.5696,11.5696,11.5696,11.5696,11.5696,11.5696,11.5696,11.5696,11.5696,11.4015,11.3213,0.0,0.0,0.0,0.0,10.1212,0.0,0.0,0.0,10.4097,10.4789,0.0,0.0,0.0,0.0,0.0,0.0,0.0,0.0,0.0,0.0,0.0,0.0,0.0,0.0,0.0,0.0,0.0,11.1522,11.1522,11.1522,11.1522,11.1522,11.2291,11.3907,11.3984,11.4791,11.6484,11.6484,11.6484,11.6484,11.6484,11.6484,11.6484,11.6484,11.6484,11.6484,11.6484,11.6484,11.6484,11.6484,11.6484,11.6484,11.6484,11.6484,11.6599,11.7407,11.7715,11.7792,11.8484,11.8792,11.8792,11.8792,11.8908,11.8908,11.8806,11.8825,11.8715,11.86,11.8418,11.8311,11.8294,11.8294,11.8294,11.8294,11.8294,11.8103,11.7186,11.6995,11.669,11.5887,11.5696,11.5696,11.5696,11.5696,11.5696,11.5696,11.5696,11.5696,11.5696,11.5696,11.5696,11.5696,11.5696,11.5696,11.5696,11.5696,11.5696,11.5696,11.5696,11.5696,11.5696,11.5696,11.5696,11.5696,11.5696,11.5696,11.5696,11.5696,11.5696,11.5696,11.4015,11.3213,0.0,0.0,0.0,0.0,0.0,0.0,0.0,0.0,10.4713,0.0,0.0,0.0,0.0,0.0,0.0,0.0,0.0,0.0,0.0,0.0,0.0,0.0,0.0,0.0,0.0,0.0,0.0,0.0,0.0,11.1522,11.1522,11.1522,11.2291,11.3907,11.3984,11.4791,11.6484,11.6484,11.6484,11.6484,11.6484,11.6484,11.6484,11.6484,11.6484,11.6484,11.6484,11.6484,11.6484,11.6484,11.6484,11.6484,11.6484,11.6484,11.6484,11.6907,11.6984,11.71,11.7484,11.76,11.76,11.76,11.76,11.76,11.7423,11.728,11.717,11.703,11.6912,11.6804,11.6804,11.6804,11.6995,11.8103,11.8294,11.8294,11.8409,11.8103,11.7492,11.6613,11.6002,11.5696,11.5696,11.5696,11.5696,11.5696,11.5696,11.5696,11.5696,11.5696,11.5696,11.5696,11.5696,11.5696,11.5696,11.5696,11.5696,11.5696,11.5696,11.5696,11.5696,11.5696,11.5696,11.5696,11.5696,11.5696,11.5696,11.5696,11.5696,11.5696,11.4015,11.3213,10.3712,0.0,0.0,0.0,0.0,0.0,0.0,0.0,0.0,0.0,0.0,0.0,0.0,0.0,0.0,0.0,0.0,0.0,0.0,0.0,0.0,0.0,0.0,0.0,0.0,0.0,0.0,0.0,11.1522,0.0,11.1522,11.1522,11.2214,11.3599,11.3907,11.4714,11.6176,11.6407,11.6484,11.6484,11.6484,11.6484,11.6484,11.6484,11.6484,11.6484,11.6484,11.6484,11.6484,11.6484,11.6484,11.6484,11.6484,11.6484,11.6484,11.6484,11.6484,11.6484,11.6484,11.6484,11.6484,11.6484,11.6484,11.6522,11.63,11.6195,11.6097,11.5906,11.5788,11.5696,11.5696,11.5696,11.6117,11.7874,11.8294,11.8485,11.9288,11.8906,11.7989,11.7186,11.6308,11.5696,11.5696,11.5696,11.5696,11.5696,11.5696,11.5696,11.5696,11.5696,11.5696,11.5696,11.5696,11.5696,11.5696,11.5696,11.5696,11.5696,11.5696,11.5696,11.5696,11.5696,11.5696,11.5696,11.5696,11.5696,11.5696,11.5696,11.5696,11.5696,11.4015,11.3213,0.0,0.0,0.0,0.0,0.0,0.0,0.0,0.0,10.529,0.0,0.0,0.0,0.0,0.0,0.0,0.0,0.0,0.0,0.0,0.0,0.0,0.0,0.0,0.0,0.0,0.0,0.0,11.1522,11.1522,0.0,11.1522,11.1522,11.1906,11.2714,11.3599,11.4407,11.5291,11.6099,11.6484,11.6484,11.6484,11.6484,11.6484,11.6484,11.6484,11.6484,11.6484,11.6484,11.6484,11.6484,11.6484,11.6484,11.6484,11.6484,11.6484,11.6484,11.6484,11.6484,11.6484,11.6484,11.6484,11.6484,11.6484,11.6477,11.6205,11.6108,11.602,11.5841,11.5696,11.5696,11.5696,11.5696,11.6117,11.7874,11.8294,11.8485,11.9288,11.8906,11.7989,11.7186,11.6308,11.5696,11.5696,11.5696,11.5696,11.5696,11.5696,11.5696,11.5696,11.5696,11.5696,11.5696,11.5696,11.5696,11.5696,11.5696,11.5696,11.5696,11.5696,11.5696,11.5696,11.5696,11.5696,11.5696,11.5696,11.5696,11.5696,11.5696,11.5696,11.5696,11.4015,11.3213,0.0,0.0,10.5597,10.5597,0.0,0.0,0.0,0.0,0.0,0.0,0.0,0.0,0.0,0.0,10.729,10.7598,10.879,0.0,0.0,0.0,0.0,0.0,0.0,0.0,0.0,0.0,0.0,11.1522,11.1522,11.1522,0.0,11.1522,11.1906,11.2714,11.3483,11.4407,11.5291,11.6099,11.6484,11.6484,11.6484,11.6484,11.6484,11.6484,11.6484,11.6484,11.6484,11.6484,11.6484,11.6484,11.6484,11.6484,11.6484,11.6484,11.6484,11.6484,11.6484,11.6484,11.6484,11.6484,11.6484,11.6484,11.6484,11.64,11.6205,11.6108,11.602,11.5788,11.5696,11.5696,11.5696,11.5696,11.6117,11.7874,11.8294,11.8677,12.009,11.9288,11.818,11.7912,11.669,11.5696,11.5696,11.5696,11.5696,11.5696,11.5696,11.5696,11.5696,11.5696,11.5696,11.5696,11.5696,11.5696,11.5696,11.5696,11.5696,11.5696,11.5696,11.5696,11.5696,11.5696,11.5696,11.5696,11.5696,11.5696,11.5696,11.5696,11.5696,11.5696,11.4588,11.3786,10.6597,10.6905,0.0,0.0,10.729,0.0,0.0,0.0,0.0,0.0,0.0,0.0,0.0,0.0,0.0,10.879,10.9598,11.0291,0.0,0.0,0.0,0.0,0.0,0.0,0.0,0.0,11.1522,11.1522,11.1522,11.1522,0.0,0.0,11.1714,11.2291,11.3407,11.4291,11.4791,11.5907,11.6484,11.6484,11.6484,11.6484,11.6484,11.6484,11.6484,11.6484,11.6484,11.6484,11.6484,11.6484,11.6484,11.6484,11.6484,11.6484,11.6484,11.6484,11.6484,11.6484,11.6484,11.6484,11.6484,11.6484,11.6676,11.69,11.6627,11.6798,11.7093,11.7393,11.711,11.6804,11.7416,11.711,11.6995,11.8409,11.8677,11.9097,12.0511,11.9708,11.86,11.8371,11.711,11.6117,11.5811,11.5696,11.5696,11.5696,11.5696,11.5696,11.5696,11.5696,11.5696,11.5696,11.5696,11.5696,11.5696,11.5696,11.5696,11.5696,11.5696,11.5696,11.5696,11.5696,11.5696,11.5696,11.5696,11.5696,11.5696,11.5696,11.5696,11.5696,11.4894,11.4015]},{"header":{"parameterUnit":"m.s-1","parameterCategory":1,"la1":30.6,"la2":29.2853,"lo1":-89.7004,"lo2":-87.6739,"dx":0.0162,"dy":0.0183,"nx":112,"ny":82,"refTime":"2023-02-13T06:00:00:Z","depth":0,"parameterNumber":3,"parameterNumberName":"V-component_of_WINDS"},"data":[0.0,0.0,0.0,0.0,0.0,0.0,0.0,0.0,0.0,0.0,0.0,0.0,0.0,0.0,0.0,0.0,0.0,0.0,0.0,0.0,0.0,0.0,0.0,0.0,0.0,0.0,0.0,0.0,0.0,0.0,0.0,0.0,0.0,0.0,0.0,0.0,0.0,0.0,0.0,0.0,0.0,0.0,0.0,0.0,0.0,0.0,0.0,0.0,0.0,0.0,0.0,0.0,0.0,0.0,0.0,0.0,0.0,0.0,0.0,0.0,0.0,0.0,0.0,0.0,0.0,0.0,0.0,0.0,0.0,0.0,0.0,0.0,0.0,0.0,0.0,0.0,0.0,0.0,0.0,0.0,0.0,0.0,0.0,0.0,0.0,0.0,0.0,0.0,0.0,0.0,0.0,-2.8136,-2.8136,-2.8136,-2.8136,-2.8136,-2.8136,-2.8136,0.0,0.0,0.0,0.0,0.0,0.0,0.0,0.0,0.0,0.0,0.0,0.0,0.0,0.0,0.0,0.0,0.0,0.0,0.0,0.0,0.0,0.0,0.0,0.0,0.0,0.0,0.0,0.0,0.0,0.0,0.0,0.0,0.0,0.0,0.0,0.0,0.0,0.0,0.0,0.0,0.0,0.0,0.0,0.0,0.0,0.0,0.0,0.0,0.0,0.0,0.0,0.0,0.0,0.0,0.0,0.0,0.0,0.0,0.0,0.0,0.0,0.0,0.0,0.0,0.0,0.0,0.0,0.0,0.0,0.0,0.0,0.0,0.0,0.0,0.0,0.0,0.0,0.0,0.0,0.0,0.0,0.0,0.0,0.0,0.0,0.0,0.0,0.0,0.0,0.0,0.0,0.0,0.0,0.0,0.0,0.0,0.0,0.0,0.0,0.0,0.0,0.0,0.0,0.0,-2.8136,-2.8136,-2.8136,-2.8136,-2.8136,-2.8136,-2.8136,-2.8136,0.0,0.0,0.0,0.0,0.0,0.0,0.0,0.0,0.0,0.0,0.0,0.0,0.0,0.0,0.0,0.0,0.0,0.0,0.0,0.0,0.0,0.0,0.0,0.0,0.0,0.0,0.0,0.0,0.0,0.0,0.0,0.0,0.0,0.0,0.0,0.0,0.0,0.0,0.0,0.0,0.0,0.0,0.0,0.0,0.0,0.0,0.0,0.0,0.0,0.0,0.0,0.0,0.0,0.0,0.0,0.0,0.0,0.0,0.0,0.0,0.0,0.0,0.0,0.0,0.0,0.0,0.0,0.0,0.0,0.0,0.0,0.0,0.0,0.0,0.0,0.0,0.0,0.0,0.0,0.0,0.0,0.0,0.0,0.0,0.0,0.0,0.0,0.0,0.0,0.0,0.0,0.0,0.0,0.0,0.0,0.0,0.0,0.0,0.0,0.0,0.0,0.0,0.0,-2.8136,-2.8136,-2.8136,-2.8297,-2.8323,-2.8163,-2.8297,-2.8323,-2.815,-2.8136,0.0,0.0,0.0,0.0,0.0,0.0,0.0,0.0,0.0,0.0,0.0,0.0,0.0,0.0,0.0,0.0,0.0,0.0,0.0,0.0,0.0,0.0,0.0,0.0,0.0,0.0,0.0,0.0,0.0,0.0,0.0,0.0,0.0,0.0,0.0,0.0,0.0,0.0,0.0,0.0,0.0,0.0,0.0,0.0,0.0,0.0,0.0,0.0,0.0,0.0,0.0,0.0,0.0,0.0,0.0,0.0,0.0,0.0,0.0,0.0,0.0,0.0,0.0,0.0,0.0,0.0,0.0,0.0,0.0,0.0,0.0,0.0,0.0,0.0,0.0,0.0,0.0,0.0,0.0,0.0,0.0,0.0,0.0,0.0,0.0,0.0,0.0,0.0,0.0,0.0,0.0,0.0,0.0,0.0,0.0,0.0,0.0,0.0,0.0,0.0,0.0,0.0,-2.831,-2.835,-2.835,-2.8564,-2.8617,-2.8377,-2.8577,-2.8604,-2.8364,-2.835,0.0,0.0,0.0,0.0,0.0,0.0,0.0,0.0,0.0,0.0,0.0,0.0,0.0,0.0,0.0,0.0,0.0,0.0,0.0,0.0,0.0,0.0,0.0,0.0,0.0,0.0,0.0,0.0,0.0,0.0,0.0,0.0,0.0,0.0,0.0,0.0,0.0,0.0,0.0,0.0,0.0,0.0,0.0,0.0,0.0,0.0,0.0,0.0,0.0,0.0,0.0,0.0,0.0,0.0,0.0,0.0,0.0,0.0,0.0,0.0,0.0,0.0,0.0,0.0,0.0,0.0,0.0,0.0,0.0,0.0,0.0,0.0,0.0,0.0,0.0,0.0,0.0,0.0,0.0,0.0,0.0,0.0,0.0,0.0,0.0,0.0,0.0,0.0,0.0,0.0,0.0,0.0,0.0,0.0,0.0,0.0,0.0,0.0,0.0,0.0,0.0,0.0,-2.8804,-2.8978,-2.8978,-2.8991,-2.9005,-2.8978,-2.8991,-2.9005,-2.8978,-2.8978,0.0,0.0,0.0,0.0,0.0,0.0,0.0,0.0,0.0,0.0,0.0,0.0,0.0,0.0,0.0,0.0,0.0,0.0,0.0,0.0,0.0,0.0,0.0,0.0,0.0,0.0,0.0,0.0,0.0,0.0,0.0,0.0,0.0,0.0,0.0,0.0,0.0,0.0,0.0,0.0,0.0,0.0,0.0,0.0,0.0,0.0,0.0,0.0,0.0,0.0,0.0,0.0,0.0,0.0,0.0,0.0,0.0,0.0,0.0,0.0,0.0,0.0,0.0,0.0,0.0,0.0,0.0,0.0,0.0,0.0,0.0,0.0,0.0,0.0,0.0,0.0,0.0,0.0,0.0,0.0,0.0,0.0,0.0,0.0,0.0,0.0,0.0,0.0,0.0,0.0,0.0,0.0,0.0,0.0,0.0,0.0,0.0,0.0,0.0,0.0,0.0,0.0,-2.8965,-2.9045,0.0,-2.9205,-2.8706,-2.7272,-2.8491,-2.8693,-2.726,0.0,0.0,0.0,0.0,0.0,0.0,0.0,0.0,0.0,0.0,0.0,0.0,0.0,0.0,0.0,0.0,0.0,0.0,0.0,0.0,0.0,0.0,0.0,0.0,0.0,0.0,0.0,0.0,0.0,0.0,0.0,0.0,0.0,0.0,0.0,0.0,0.0,0.0,0.0,0.0,0.0,0.0,0.0,0.0,0.0,0.0,0.0,0.0,0.0,0.0,0.0,0.0,0.0,0.0,0.0,0.0,0.0,0.0,0.0,0.0,0.0,0.0,0.0,0.0,0.0,0.0,0.0,0.0,0.0,0.0,0.0,0.0,0.0,0.0,0.0,0.0,0.0,0.0,0.0,0.0,0.0,0.0,0.0,0.0,0.0,0.0,0.0,0.0,0.0,0.0,0.0,0.0,0.0,0.0,0.0,0.0,0.0,0.0,0.0,0.0,0.0,0.0,-2.9004,-2.8719,-2.8419,0.0,-2.8587,-2.808,-2.6447,-2.7864,-2.8258,-2.7346,0.0,0.0,0.0,0.0,0.0,0.0,0.0,0.0,0.0,0.0,0.0,0.0,0.0,0.0,0.0,0.0,0.0,0.0,0.0,0.0,0.0,0.0,0.0,0.0,0.0,0.0,0.0,0.0,0.0,0.0,0.0,0.0,0.0,0.0,0.0,0.0,0.0,0.0,0.0,0.0,0.0,0.0,0.0,0.0,0.0,0.0,0.0,0.0,0.0,0.0,0.0,0.0,0.0,0.0,0.0,0.0,0.0,0.0,0.0,0.0,0.0,0.0,0.0,0.0,0.0,0.0,0.0,0.0,0.0,0.0,0.0,0.0,0.0,0.0,0.0,0.0,0.0,0.0,0.0,0.0,0.0,0.0,0.0,0.0,0.0,0.0,0.0,0.0,0.0,0.0,0.0,0.0,0.0,0.0,0.0,0.0,0.0,0.0,0.0,0.0,0.0,0.0,-2.9309,-2.8092,-2.6966,-2.6966,-2.6966,-2.6966,-2.6966,-2.6966,-2.7702,0.0,0.0,0.0,0.0,0.0,0.0,0.0,0.0,0.0,0.0,0.0,0.0,0.0,0.0,0.0,0.0,0.0,0.0,0.0,0.0,0.0,0.0,0.0,0.0,0.0,0.0,0.0,0.0,0.0,0.0,0.0,0.0,0.0,0.0,0.0,0.0,0.0,0.0,0.0,0.0,0.0,0.0,0.0,0.0,0.0,0.0,0.0,0.0,0.0,0.0,0.0,0.0,0.0,0.0,0.0,0.0,0.0,0.0,0.0,0.0,0.0,0.0,0.0,0.0,0.0,0.0,0.0,0.0,0.0,0.0,0.0,0.0,0.0,0.0,0.0,0.0,0.0,0.0,0.0,0.0,0.0,0.0,0.0,0.0,0.0,0.0,0.0,0.0,0.0,0.0,0.0,0.0,0.0,0.0,0.0,0.0,0.0,0.0,0.0,0.0,0.0,0.0,0.0,0.0,-2.7292,-2.6423,-2.4967,-2.4967,-2.4419,-2.2943,-2.4043,-2.515,-2.5696,0.0,0.0,0.0,0.0,0.0,0.0,0.0,0.0,0.0,0.0,0.0,0.0,0.0,0.0,0.0,0.0,0.0,0.0,0.0,0.0,0.0,0.0,0.0,0.0,0.0,0.0,0.0,0.0,0.0,0.0,0.0,0.0,0.0,0.0,0.0,0.0,0.0,0.0,0.0,0.0,0.0,0.0,0.0,0.0,0.0,0.0,0.0,0.0,0.0,0.0,0.0,0.0,0.0,0.0,0.0,0.0,0.0,0.0,0.0,0.0,0.0,0.0,0.0,0.0,0.0,0.0,0.0,0.0,0.0,0.0,0.0,0.0,0.0,0.0,0.0,0.0,0.0,0.0,0.0,0.0,0.0,0.0,0.0,0.0,0.0,0.0,0.0,0.0,0.0,0.0,0.0,0.0,0.0,0.0,0.0,0.0,0.0,0.0,0.0,0.0,0.0,0.0,-2.6979,-2.5696,-2.4226,-2.2954,-2.3504,-2.3137,-2.1296,-2.2954,-2.4054,-2.4054,0.0,0.0,0.0,0.0,0.0,0.0,0.0,0.0,0.0,0.0,0.0,0.0,0.0,0.0,0.0,0.0,0.0,0.0,0.0,0.0,0.0,0.0,0.0,0.0,0.0,0.0,0.0,0.0,0.0,0.0,0.0,0.0,0.0,0.0,0.0,0.0,0.0,0.0,0.0,0.0,0.0,0.0,0.0,0.0,0.0,0.0,0.0,0.0,0.0,0.0,0.0,0.0,0.0,0.0,0.0,0.0,0.0,0.0,0.0,0.0,0.0,0.0,0.0,0.0,0.0,0.0,0.0,0.0,0.0,0.0,0.0,0.0,0.0,0.0,0.0,0.0,0.0,0.0,0.0,0.0,0.0,0.0,0.0,0.0,0.0,0.0,0.0,0.0,0.0,0.0,0.0,0.0,0.0,0.0,0.0,0.0,0.0,0.0,0.0,0.0,0.0,0.0,-2.6604,-2.3698,-2.1334,-2.0964,-2.2452,-2.2821,-2.0964,-2.2432,-2.3525,-2.3687,0.0,0.0,0.0,0.0,0.0,0.0,0.0,0.0,0.0,0.0,0.0,0.0,0.0,0.0,0.0,0.0,0.0,0.0,0.0,0.0,0.0,0.0,0.0,0.0,0.0,0.0,0.0,0.0,0.0,0.0,0.0,0.0,0.0,0.0,0.0,0.0,0.0,0.0,0.0,0.0,0.0,0.0,0.0,0.0,0.0,0.0,0.0,0.0,0.0,0.0,0.0,0.0,0.0,0.0,0.0,0.0,0.0,0.0,0.0,0.0,-1.7762,0.0,0.0,0.0,0.0,0.0,0.0,0.0,0.0,0.0,0.0,0.0,0.0,0.0,0.0,0.0,0.0,0.0,0.0,0.0,0.0,0.0,0.0,0.0,0.0,0.0,0.0,0.0,0.0,0.0,0.0,0.0,0.0,0.0,0.0,0.0,0.0,0.0,0.0,0.0,0.0,0.0,-2.4967,-2.402,-2.2477,-1.9321,-1.9458,-1.9673,-1.915,-1.9509,-2.0189,-2.1675,0.0,0.0,0.0,0.0,0.0,0.0,0.0,0.0,0.0,0.0,0.0,0.0,0.0,0.0,0.0,0.0,0.0,0.0,0.0,0.0,0.0,0.0,0.0,0.0,0.0,0.0,0.0,0.0,0.0,0.0,0.0,0.0,0.0,0.0,0.0,0.0,0.0,0.0,0.0,0.0,0.0,0.0,0.0,0.0,0.0,0.0,0.0,0.0,0.0,0.0,0.0,0.0,0.0,0.0,0.0,0.0,0.0,0.0,0.0,0.0,0.0,-1.79,0.0,0.0,0.0,0.0,0.0,0.0,0.0,0.0,0.0,0.0,0.0,0.0,0.0,0.0,0.0,0.0,0.0,0.0,0.0,0.0,0.0,0.0,0.0,0.0,0.0,0.0,0.0,0.0,0.0,0.0,0.0,0.0,0.0,0.0,0.0,0.0,0.0,0.0,0.0,0.0,-2.3272,-2.2072,-2.0828,-1.8773,-1.942,-1.9628,-1.859,-1.9517,-2.0035,-1.9938,-2.0768,0.0,0.0,0.0,0.0,0.0,0.0,0.0,0.0,0.0,0.0,0.0,0.0,0.0,0.0,0.0,0.0,0.0,0.0,0.0,0.0,0.0,0.0,0.0,0.0,0.0,0.0,0.0,0.0,0.0,0.0,0.0,0.0,0.0,0.0,0.0,0.0,0.0,0.0,0.0,0.0,0.0,0.0,0.0,0.0,0.0,0.0,0.0,0.0,0.0,0.0,0.0,0.0,0.0,0.0,0.0,-1.8176,-1.8176,-1.8176,-1.8176,-1.8176,-1.8176,-1.8176,0.0,0.0,0.0,0.0,0.0,0.0,0.0,0.0,0.0,0.0,0.0,0.0,0.0,0.0,0.0,0.0,0.0,0.0,0.0,0.0,0.0,0.0,0.0,0.0,0.0,-1.8273,-1.864,0.0,0.0,0.0,0.0,0.0,0.0,0.0,0.0,0.0,0.0,0.0,0.0,-2.1925,-2.0263,-1.9154,-1.8769,-2.0316,-2.0508,-1.8961,-2.0281,-2.0455,-1.8728,-2.0087,-2.1122,0.0,0.0,0.0,0.0,0.0,0.0,0.0,0.0,0.0,0.0,0.0,0.0,0.0,0.0,0.0,0.0,0.0,0.0,0.0,0.0,0.0,0.0,0.0,0.0,0.0,0.0,0.0,0.0,0.0,0.0,0.0,0.0,-1.7112,-1.7112,0.0,0.0,0.0,0.0,0.0,0.0,0.0,0.0,0.0,0.0,0.0,0.0,0.0,0.0,-1.7884,-1.8054,-1.8144,-1.8144,-1.8168,-1.8176,-1.8176,-1.8176,-1.8176,-1.8176,-1.8176,0.0,-1.8176,-1.8176,0.0,0.0,0.0,0.0,0.0,0.0,0.0,0.0,0.0,0.0,0.0,0.0,0.0,0.0,0.0,0.0,0.0,0.0,0.0,0.0,0.0,0.0,-1.8655,-1.8655,-1.8655,-1.8655,0.0,-2.0026,-2.1264,-2.2179,0.0,0.0,0.0,0.0,0.0,0.0,0.0,0.0,-2.1925,-2.1522,-2.087,-1.9142,-1.9281,-1.951,-1.8964,-1.9142,-1.9076,-1.8736,-1.8896,-1.982,-2.1507,-2.1687,0.0,0.0,0.0,0.0,0.0,0.0,0.0,0.0,0.0,0.0,0.0,0.0,0.0,0.0,0.0,0.0,0.0,0.0,0.0,0.0,0.0,0.0,0.0,0.0,0.0,0.0,0.0,0.0,0.0,-1.7112,-1.7112,-1.7112,-1.7201,-1.7266,0.0,0.0,0.0,0.0,0.0,0.0,0.0,0.0,0.0,-1.794,-1.8022,-1.8062,-1.8062,-1.8135,-1.8176,-1.8176,-1.8282,-1.833,-1.8338,-1.8436,-1.8485,-1.8485,-1.8485,-1.8485,-1.8476,0.0,-1.8387,-1.8485,0.0,0.0,0.0,0.0,0.0,0.0,0.0,0.0,0.0,0.0,0.0,0.0,0.0,0.0,0.0,0.0,0.0,0.0,0.0,0.0,0.0,-1.8728,-1.8728,-1.8753,-1.885,-1.9573,-2.0446,0.0,-2.1735,-2.1925,-2.2874,0.0,0.0,0.0,0.0,0.0,-2.0562,-2.0437,-2.0141,-1.9264,-1.9354,-1.941,-1.9435,-1.9337,-1.9248,-1.9175,-1.898,-1.9253,-2.0009,-2.0955,-2.1981,0.0,0.0,0.0,0.0,0.0,0.0,0.0,0.0,0.0,0.0,0.0,0.0,0.0,0.0,0.0,0.0,0.0,0.0,0.0,0.0,0.0,0.0,0.0,0.0,0.0,0.0,0.0,0.0,-1.7177,0.0,-1.7242,-1.7364,-1.7453,0.0,0.0,0.0,0.0,0.0,0.0,0.0,-1.7981,-1.8046,-1.8168,-1.8176,-1.82,-1.8249,-1.8249,-1.8265,-1.8314,-1.8452,-1.8525,-1.8525,-1.8663,-1.8728,-1.8728,-1.8728,-1.8753,-1.8777,-1.8598,-1.8598,-1.8728,-1.8728,0.0,0.0,0.0,-1.8728,-1.8728,-1.8728,-1.8728,0.0,-1.8728,0.0,-1.8793,-1.8793,0.0,0.0,0.0,0.0,-1.8858,-1.8858,0.0,-1.8858,-1.8858,-1.8858,-1.8899,-1.9021,-1.9053,-1.9394,0.0,-2.1138,-2.0946,-2.1138,0.0,0.0,0.0,0.0,-2.1075,-1.9519,-1.9362,-1.9443,-1.9573,-1.9581,-1.9638,-1.9776,-1.9662,-1.9581,-1.9581,-1.9337,-1.9167,-1.9118,-2.0289,-2.0918,0.0,0.0,0.0,0.0,0.0,0.0,0.0,0.0,0.0,0.0,0.0,0.0,0.0,0.0,0.0,0.0,0.0,0.0,0.0,0.0,0.0,0.0,0.0,0.0,0.0,0.0,0.0,0.0,0.0,0.0,-1.7591,-1.7624,0.0,0.0,0.0,0.0,0.0,-1.8054,-1.8152,-1.816,-1.816,-1.8168,-1.8176,-1.8176,-1.8257,-1.8436,-1.8436,-1.8525,-1.8696,-1.8704,-1.8712,-1.8712,-1.872,-1.8728,-1.8728,-1.8728,-1.8818,-1.8956,-1.8785,-1.872,-1.8728,-1.8728,-1.8728,-1.8728,-1.8728,-1.8728,-1.8728,-1.8728,-1.8728,-1.8728,-1.8728,-1.8834,-1.8972,-1.8972,-1.9094,0.0,0.0,-1.9232,-1.9232,-1.9232,-1.9232,-1.9232,-1.9232,-1.9232,-1.9232,-1.9248,-1.9248,-1.924,0.0,-1.9429,0.0,-1.9429,0.0,0.0,-1.9248,-1.9585,-1.97,-1.95,-1.9654,-1.9768,-1.9776,-1.9776,-1.9776,-1.9792,-1.9784,-1.9776,-1.9776,-1.976,-1.967,-1.9492,-1.9519,-1.9347,-1.9167,-2.0873,0.0,0.0,0.0,0.0,0.0,0.0,0.0,0.0,0.0,0.0,0.0,0.0,0.0,0.0,0.0,0.0,0.0,0.0,0.0,0.0,0.0,0.0,0.0,0.0,0.0,0.0,0.0,0.0,-1.7632,-1.7746,0.0,0.0,-1.7981,-1.8079,-1.8079,-1.8144,-1.8176,-1.8176,-1.829,-1.8355,-1.8355,-1.8468,-1.8558,-1.8623,-1.8631,-1.8663,-1.8728,-1.8834,-1.8891,-1.8891,-1.9013,-1.9069,-1.9069,-1.9069,-1.9102,-1.9159,-1.9094,-1.9069,-1.9069,-1.9069,-1.9069,-1.9069,-1.9069,-1.9069,-1.9069,-1.9069,-1.9069,-1.9069,-1.9069,-1.911,-1.9159,-1.9159,-1.9207,-1.9256,-1.9256,-1.9256,-1.9256,-1.9256,-1.9256,-1.9256,-1.9256,-1.9256,-1.9289,-1.9402,-1.9419,-1.9459,-1.9581,-1.9419,-1.9297,-1.9402,-1.9419,-1.9459,-1.9581,-1.9654,-1.9695,-1.9695,-1.9752,-1.9833,-1.9955,-1.9971,-2.0011,-2.0117,-2.0028,-1.9971,-1.9971,-1.9857,-1.976,-1.9695,-1.963,-1.9516,-1.9329,-1.9928,-2.1311,0.0,0.0,0.0,0.0,0.0,0.0,0.0,0.0,0.0,0.0,0.0,0.0,0.0,0.0,0.0,0.0,0.0,0.0,0.0,0.0,0.0,0.0,0.0,0.0,0.0,0.0,-1.7754,-1.7811,-1.7932,-1.8005,-1.8005,-1.8111,-1.8176,-1.8176,-1.8233,-1.8265,-1.8265,-1.8444,-1.8541,-1.8541,-1.8663,-1.8753,-1.8809,-1.8809,-1.8842,-1.8907,-1.9021,-1.9077,-1.9077,-1.9207,-1.9256,-1.9256,-1.9256,-1.9289,-1.9345,-1.9345,-1.9386,-1.9427,-1.9305,-1.9256,-1.9256,-1.9256,-1.9256,-1.9256,-1.9256,-1.9256,-1.9256,-1.9256,-1.9256,-1.9256,-1.9256,-1.9256,-1.9256,-1.9256,-1.9256,-1.9272,-1.9329,-1.9345,-1.9362,-1.9419,-1.9435,-1.9467,-1.9581,-1.9605,-1.9646,-1.9768,-1.9597,-1.9475,-1.9589,-1.9605,-1.9646,-1.9768,-1.9841,-1.9882,-1.9882,-1.993,-2.0011,-2.0141,-2.015,-2.0198,-2.0312,-2.0214,-2.015,-2.015,-2.0036,-1.9938,-1.9882,-1.9882,-2.0198,-2.0602,-2.0613,-2.1594,-2.4073,0.0,0.0,0.0,0.0,0.0,0.0,0.0,0.0,0.0,0.0,0.0,0.0,0.0,0.0,0.0,0.0,0.0,0.0,0.0,0.0,0.0,0.0,0.0,-1.7924,-1.7924,-1.7989,-1.8152,-1.8176,-1.8176,-1.8176,-1.8176,-1.8184,-1.8184,-1.8355,-1.846,-1.846,-1.8639,-1.8736,-1.8736,-1.8736,-1.8818,-1.8988,-1.8988,-1.9086,-1.9264,-1.9264,-1.9272,-1.9281,-1.9281,-1.9281,-1.9281,-1.9281,-1.937,-1.9524,-1.9524,-1.963,-1.9752,-1.941,-1.9281,-1.9281,-1.9281,-1.9281,-1.9281,-1.9281,-1.9281,-1.9281,-1.9281,-1.9281,-1.9281,-1.9281,-1.9281,-1.9281,-1.9281,-1.9281,-1.9313,-1.9475,-1.9524,-1.9565,-1.9743,-1.9792,-1.9792,-1.9792,-1.98,-1.98,-1.98,-1.9808,-1.98,-1.98,-1.98,-1.98,-1.98,-1.9963,0.0,-2.0076,-2.0214,-2.032,-2.032,-2.032,-2.032,-2.032,-2.032,-2.032,-2.032,-2.032,-2.0247,-2.0085,-2.0076,-2.1003,-2.3011,-2.2794,-2.2576,-2.2368,0.0,0.0,0.0,0.0,0.0,0.0,0.0,0.0,0.0,0.0,0.0,0.0,0.0,0.0,0.0,0.0,0.0,0.0,0.0,0.0,0.0,0.0,-1.8103,-1.8103,-1.8103,-1.8119,-1.8168,-1.8176,-1.8176,-1.8176,-1.8298,-1.8379,-1.8379,-1.855,-1.8647,-1.8647,-1.8818,-1.8915,-1.8915,-1.9045,-1.9134,-1.9183,-1.9183,-1.9272,-1.9443,-1.9443,-1.9516,-1.9646,-1.9646,-1.9646,-1.9646,-1.9646,-1.967,-1.9711,-1.9711,-1.9743,-1.9776,-1.9678,-1.9646,-1.9646,-1.9646,-1.9646,-1.9646,-1.9646,-1.9646,-1.9646,-1.9646,-1.9646,-1.9646,-1.9646,-1.9646,-1.9646,-1.9646,-1.9646,-1.9654,-1.9703,-1.9711,-1.9727,-1.9776,-1.9792,-1.9825,-1.9963,-1.9987,-2.0028,-2.015,-2.0174,-2.0133,-2.0011,-1.9987,-2.0036,-2.0158,0.0,0.0,-2.0247,-2.0288,-2.032,-2.032,-2.032,-2.032,-2.032,-2.032,-2.032,0.0,-2.032,-2.0296,-2.0255,-2.0247,-2.0364,-2.0995,-2.2205,-2.359,0.0,0.0,0.0,0.0,0.0,0.0,0.0,0.0,0.0,0.0,0.0,0.0,0.0,0.0,0.0,0.0,0.0,0.0,0.0,0.0,0.0,0.0,-1.8111,-1.8176,-1.8176,-1.8176,-1.8176,-1.8176,-1.8241,-1.829,-1.829,-1.846,-1.8566,-1.8566,-1.8736,-1.8834,-1.8834,-1.9004,-1.9094,-1.9094,-1.9272,-1.9362,-1.9362,-1.9443,-1.9532,-1.963,-1.963,-1.9687,-1.9792,-1.9792,-1.9792,0.0,-1.9792,-1.9833,-1.9906,-1.9898,-1.9946,0.0,0.0,0.0,0.0,0.0,-1.9792,-1.9792,-1.9792,-1.9792,-1.9792,-1.9792,-1.9792,-1.9792,-1.9792,-1.9792,-1.9792,-1.9792,-1.9792,-1.9808,-1.9882,-1.9906,-1.9922,-1.9995,-2.0011,-2.0044,-2.015,-2.0174,-2.0198,-2.0304,0.0,0.0,-2.019,-2.0174,-2.0206,-2.0304,-2.032,-2.032,0.0,-2.032,-2.032,-2.032,-2.0393,-2.0434,-2.0434,-2.0499,0.0,0.0,0.0,-2.0401,-2.032,-2.1145,0.0,0.0,0.0,-2.4056,0.0,0.0,0.0,0.0,-2.973,-3.0728,0.0,0.0,0.0,0.0,0.0,0.0,0.0,0.0,0.0,0.0,0.0,0.0,0.0,0.0,0.0,0.0,-1.8192,-1.8208,-1.8208,-1.8225,-1.8233,-1.8208,-1.8371,-1.8485,-1.8485,-1.8647,-1.8753,-1.8753,-1.8915,-1.9021,0.0,0.0,0.0,0.0,0.0,-1.954,-1.954,-1.9703,-1.98,-1.9825,-1.9825,-1.9833,-1.9849,-1.9873,-1.9882,-1.9882,-1.9898,-2.0003,-2.0158,-2.0141,-2.0231,-2.0344,-1.9987,-1.9849,-1.9849,-1.9849,-1.9849,0.0,0.0,0.0,0.0,-1.9849,-1.9849,-1.9849,-1.9849,-1.9849,-1.9849,-1.9849,-1.9849,-1.989,-2.0052,-2.0093,-2.0133,-2.0288,-2.032,-2.032,-2.032,-2.032,-2.0328,-2.0344,-2.0353,-2.0361,-2.0377,-2.0344,-2.0328,-2.0344,-2.0353,0.0,-2.0377,-2.0377,-2.0377,-2.0377,0.0,0.0,-2.0629,-2.0767,-2.0791,-2.0637,-2.0629,-2.0539,-2.0361,-2.2202,-2.2401,-2.032,-2.4031,-2.4148,-2.0908,-2.6347,-2.8428,-2.7004,-3.0,-3.1223,0.0,0.0,0.0,0.0,0.0,0.0,0.0,0.0,0.0,0.0,0.0,0.0,0.0,0.0,0.0,-1.8176,-1.8298,-1.8395,-1.8395,-1.8525,-1.8566,-1.8412,-1.8558,-1.8671,-1.8671,-1.8834,-1.8931,-1.8931,-1.9102,-1.9264,-1.9402,-1.9443,0.0,-1.9678,-1.9719,-1.9735,-1.9735,-1.9776,-1.9865,-2.0011,0.0,0.0,-2.0223,-2.0369,-2.0442,-2.045,-2.0588,-2.0669,-2.0702,-2.0702,-2.0718,-2.0718,-2.0361,-2.0214,-2.0214,-2.0214,-2.0214,-2.0214,-2.0214,-2.0214,-2.0214,-2.0214,-2.0214,-2.0214,-2.0214,-2.0214,0.0,-2.0214,-2.0214,-2.0223,-2.0263,-2.0271,-2.0279,-2.0312,-2.032,-2.032,-2.032,-2.032,-2.0361,-2.0515,-2.0539,-2.0588,-2.0726,-2.0515,-2.0369,-2.0523,-2.0539,-2.0596,-2.0734,-2.0751,-2.0751,-2.0751,-2.0783,-2.0807,-2.0807,-2.0832,-2.084,-2.0807,-2.0807,-2.0726,-2.0547,-2.0961,-2.0886,-2.032,-2.1111,-2.2931,-2.5584,-2.6756,-2.8871,-3.1681,-3.2089,-3.2131,0.0,0.0,0.0,0.0,0.0,0.0,0.0,0.0,0.0,0.0,0.0,-1.8176,0.0,0.0,-1.8314,-1.8314,-1.8468,-1.859,-1.859,-1.8744,-1.8785,-1.8606,-1.8744,-1.885,-1.885,-1.9013,-1.9159,-1.924,-1.9329,-1.9467,-1.9646,-1.9654,-1.9695,-1.9784,-1.9882,-1.993,-1.993,-2.0101,-2.0239,-2.0336,-2.0418,-2.0507,-2.0588,-2.0686,-2.0726,-2.0726,-2.0815,-2.0807,-2.0726,-2.0726,-2.0726,-2.0718,-2.0621,-2.0588,-2.0588,-2.0588,-2.0588,-2.0572,-2.0491,-2.0458,-2.0442,-2.0353,-2.032,-2.032,-2.032,-2.032,-2.032,-2.032,-2.032,-2.032,-2.032,-2.0385,-2.0458,-2.0458,-2.0523,-2.0588,-2.0588,-2.0588,-2.0612,-2.071,-2.0726,-2.0751,-2.084,-2.071,-2.0621,-2.071,-2.0726,-2.0759,-2.084,-2.0856,-2.0856,-2.0856,-2.0937,-2.0994,-2.0994,-2.0994,-2.0994,-2.0994,-2.0905,-2.0815,-2.0726,-2.0726,-2.0645,-2.0466,-2.149,-2.268,-2.3597,-2.6875,-2.9057,-2.9936,-3.2034,-3.2746,0.0,0.0,0.0,0.0,0.0,0.0,0.0,0.0,-1.8176,-1.8176,-1.8176,-1.8184,-1.8225,-1.8355,-1.8468,-1.8501,-1.8655,-1.8777,-1.8777,-1.8923,-1.8996,-1.8891,-1.8972,-1.9045,-1.9086,-1.9224,-1.9378,-1.9557,-1.9565,-1.9646,-1.9833,-1.9841,-1.9857,-1.989,-2.0076,-2.0174,-2.0174,-2.0491,-2.0645,-2.0645,-2.0791,-2.0856,-2.0856,-2.0889,-2.0905,-2.0913,-2.0978,-2.0954,-2.0856,-2.0856,-2.0856,-2.0872,-2.101,-2.1067,-2.1043,-2.0905,-2.0856,-2.0832,-2.0694,-2.0645,-2.0621,-2.0474,-2.0426,-2.0426,-2.0426,-2.0426,-2.0426,-2.0426,-2.0426,-2.0426,-2.0426,-2.0531,-2.0645,-2.0645,-2.0751,-2.0856,-2.0856,-2.0856,-2.0864,-2.0897,-2.0905,-2.0929,-2.0994,-2.0978,-2.0945,-2.0913,-2.0905,-2.0921,-2.0954,-2.0962,-2.0962,-2.0962,-2.1124,-2.1246,-2.1278,-2.1278,-2.1278,-2.123,-2.1092,-2.0994,-2.0962,-2.0929,-2.084,-2.0702,-2.2328,-2.2642,-2.1046,-2.6766,-2.8994,-2.7758,-3.1592,-3.316,-1.7843,-1.7997,-1.8119,-1.8144,-1.816,-1.8176,0.0,0.0,-1.8176,-1.8176,-1.8176,-1.8225,-1.8387,-1.8436,-1.8501,-1.8671,-1.8842,-1.8956,-1.8956,-1.911,-1.9281,-1.941,-1.9305,-1.9289,-1.9435,-1.9475,-1.9557,-1.9743,-1.976,-1.9841,-2.0028,-2.0036,-2.0101,-2.0255,-2.0442,-2.0539,-2.0539,-2.0726,-2.0824,-2.0824,-2.0848,-2.0856,-2.0856,-2.1019,-2.1092,-2.1116,-2.1425,-2.166,-2.1782,-2.1782,-2.1782,-2.1782,-2.1806,-2.1806,-2.1741,-2.1092,-2.0856,-2.0848,-2.0832,-2.0824,-2.0824,-2.0799,-2.0791,-2.0791,-2.0791,-2.0791,-2.0791,-2.0791,-2.0791,-2.0791,-2.0791,-2.0807,-2.0824,-2.0824,-2.084,-2.0856,-2.0856,-2.0856,-2.0905,-2.1067,-2.1092,-2.1197,-2.1514,-2.1425,-2.1278,-2.1116,-2.1092,-2.1148,-2.1303,-2.1319,-2.1319,-2.1319,-2.149,-2.166,-2.1831,-2.1847,-2.1766,-2.162,-2.1579,-2.149,-2.1343,-2.1173,-2.1083,-2.1067,-2.1119,-2.2078,-2.3741,-2.6255,-2.8426,-3.007,-3.2299,-3.3374,-1.8046,-1.8119,0.0,0.0,-1.8176,-1.8176,-1.8176,-1.8176,-1.8208,-1.8314,-1.8338,-1.8395,-1.8574,-1.8696,-1.8785,0.0,-1.9029,-1.9142,-1.9142,-1.9297,-1.9435,-1.95,-1.9549,-1.9597,-1.9662,-1.967,-1.9752,-1.9938,-1.9955,-2.0028,-2.0206,-2.032,-2.0409,-2.0483,-2.0653,-2.0751,-2.0751,-2.0921,-2.1059,-2.1165,-2.1278,-2.1384,-2.149,-2.1555,-2.1595,-2.1595,-2.1636,-2.1701,-2.1766,-2.1766,-2.1766,-2.179,-2.1896,-2.1936,-2.1896,-2.1473,-2.1319,-2.1303,-2.1083,-2.101,-2.0994,-2.0889,-2.0856,-2.0856,-2.0856,-2.0856,-2.0856,-2.0856,-2.0856,-2.0856,-2.0856,-2.1002,-2.1165,-2.1165,-2.1319,-2.1449,-2.1343,-2.1408,-2.1465,-2.1449,-2.153,-2.1636,-2.179,-2.1766,-2.1676,-2.1611,-2.1514,-2.1514,-2.1676,-2.1701,-2.1701,-2.1701,-2.1766,-2.1847,-2.1936,-2.1936,-2.1896,-2.1831,-2.1831,-2.179,-2.1701,-2.153,-2.1384,-2.1278,-2.11,-2.1383,-2.2335,-2.4347,-2.6599,-2.8892,-3.0878,-3.2699,-1.8176,0.0,0.0,-1.8176,-1.8176,-1.8184,-1.8241,-1.8249,-1.8306,-1.8493,-1.8525,-1.8582,-1.8761,-1.8899,0.0,-1.9053,-1.9207,-1.9329,-1.9329,-1.9475,-1.9605,-1.9662,-1.9784,-1.9882,-1.993,-1.989,-1.9938,-2.0125,-2.0182,-2.0263,-2.0393,-2.0572,-2.0669,-2.0669,-2.084,-2.0954,-2.1002,-2.1181,-2.136,-2.153,-2.1684,-2.1806,-2.1936,-2.1936,-2.1953,-2.2001,-2.1871,-2.1831,-2.1871,-2.1871,-2.1871,-2.1896,-2.2017,-2.2082,-2.2066,-2.1871,-2.1766,-2.1701,-2.1449,-2.1343,-2.1319,-2.1197,-2.1157,-2.1157,-2.1157,-2.1157,-2.114,-2.1092,-2.1116,-2.114,-2.1092,-2.1303,-2.153,-2.153,-2.1741,-2.1896,-2.1766,-2.1847,-2.1896,-2.1766,-2.1847,-2.1953,-2.2001,-2.1953,-2.1977,-2.2066,-2.1977,-2.1896,-2.1936,-2.1936,-2.1953,-2.2001,-2.2001,-2.2017,-2.2082,-2.2082,-2.2066,-2.2001,-2.2001,-2.2001,-2.2001,-2.1831,-2.1701,-2.162,-2.1449,-2.1254,-2.1075,-2.3787,-2.6054,-2.7682,-3.057,-3.2633,0.0,0.0,-1.8176,-1.8176,-1.8176,-1.8225,-1.8403,-1.8444,-1.8493,-1.868,-1.872,-1.8769,-1.8939,-1.898,-1.9045,-1.9224,-1.9394,-1.95,-1.95,-1.9662,-1.9849,-2.0028,-2.0052,-2.0125,0.0,-2.0158,-2.0133,-2.0296,-2.0483,-2.058,-2.0588,-2.0751,-2.0848,-2.0848,-2.1027,-2.1197,-2.136,-2.1555,-2.1741,-2.1912,-2.1912,-2.1936,-2.1936,-2.1936,-2.2017,-2.2188,-2.2172,-2.2277,-2.2448,-2.2448,-2.2448,-2.2448,-2.2448,-2.2448,-2.2424,-2.2237,-2.2066,-2.1936,-2.1912,-2.1912,-2.1912,-2.1912,-2.1896,-2.1896,-2.1896,-2.1896,-2.1871,-2.1684,-2.1766,-2.1871,-2.1684,-2.1766,-2.1912,-2.1912,-2.1936,-2.1936,-2.1936,-2.1936,-2.1936,-2.1936,-2.1936,-2.1977,-2.2147,-2.2042,-2.2058,-2.2407,-2.2448,-2.2318,-2.1977,-2.1936,-2.2001,-2.2172,-2.2188,-2.2253,-2.2448,-2.2448,-2.2383,-2.2188,-2.2188,-2.2188,-2.2188,-2.2017,-2.2001,-2.2172,-2.2001,-2.1831,-2.1644,-2.6009,-2.7942,-2.7941,-3.2137,-3.4322,0.0,0.0,-1.8208,-1.833,-1.8355,-1.8403,-1.859,-1.8631,-1.868,-1.8858,-1.8899,-1.8956,-1.9134,-1.9167,-1.9224,-1.9402,-1.9475,-1.9557,-1.9678,-1.9857,-1.9995,-2.006,-2.0166,0.0,0.0,0.0,0.0,-2.0491,-2.0564,-2.0645,-2.0759,-2.0937,-2.1092,-2.1205,-2.1384,-2.1571,-2.1741,-2.1806,-2.1936,-2.2107,-2.2237,-2.2342,-2.2464,-2.2464,-2.2553,-2.2724,-2.2724,-2.2765,-2.283,-2.283,-2.283,-2.283,-2.283,-2.283,-2.2805,-2.274,-2.2683,-2.257,-2.2107,-2.1936,-2.1936,-2.1936,-2.1936,-2.1936,-2.1936,-2.1936,-2.1912,-2.1847,-2.1896,-2.1912,-2.1847,-2.1977,-2.2107,-2.2107,-2.2188,-2.2253,-2.2131,-2.2212,-2.2294,-2.2294,-2.2383,-2.2513,-2.27,-2.2675,-2.2683,-2.2805,-2.2724,-2.2635,-2.2635,-2.2635,-2.2659,-2.2724,-2.2724,-2.274,-2.2805,-2.283,-2.2789,-2.2724,-2.2724,-2.2724,-2.2724,-2.2553,-2.2424,-2.2383,-2.2188,-2.2017,-2.1847,-2.331,-2.5673,-2.864,-2.9913,-3.216,0.0,-1.8273,-1.8314,-1.8501,-1.855,-1.8598,-1.8777,-1.8818,-1.8866,-1.9045,-1.9077,-1.9134,-1.9313,-1.9354,-1.941,-1.9581,-1.967,-1.9752,-1.9873,-2.0044,-2.0158,-2.0158,-2.0312,0.0,0.0,0.0,0.0,-2.0677,-2.0751,-2.0864,-2.1035,-2.1222,-2.14,-2.1571,-2.1701,-2.1847,-2.2017,-2.2017,-2.2147,-2.2383,-2.257,-2.2724,-2.283,-2.283,-2.2895,-2.3,-2.3,-2.2756,-2.2772,-2.2992,-2.2772,-2.2284,-2.2756,-2.2756,-2.2772,-2.2992,-2.2756,-2.2708,-2.248,-2.2318,-2.2318,-2.2318,-2.2318,-2.2318,-2.2318,-2.2318,-2.2294,-2.2229,-2.2253,-2.2294,-2.2229,-2.2342,-2.2489,-2.2489,-2.257,-2.2618,-2.2513,-2.2578,-2.2659,-2.2659,-2.274,-2.2846,-2.2976,-2.3,-2.3016,-2.3081,-2.3,-2.2935,-2.3,-2.3,-2.3,-2.3,-2.3,-2.3,-2.3,-2.3,-2.3,-2.3,-2.3,-2.3,-2.3,-2.2895,-2.2765,-2.2659,-2.2529,-2.2399,-2.2212,-2.3115,-2.4876,-2.7916,-2.9437,-3.1757,-1.8403,-1.846,-1.8509,-1.8688,-1.8736,-1.8785,-1.8956,-1.8996,-1.9045,-1.9224,-1.9256,-1.9313,0.0,0.0,-1.9573,-1.9776,-1.9955,-2.0068,-2.0076,-2.0214,-2.032,0.0,0.0,0.0,0.0,0.0,0.0,-2.0897,0.0,-2.1213,-2.1384,-2.1579,-2.1766,-2.1936,-2.1953,-2.2042,-2.2212,-2.2237,-2.2407,-2.274,-2.2911,-2.3,-2.3016,-2.3016,-2.3016,-2.3016,-2.3016,-2.2552,-2.2078,-2.2796,-2.2323,-2.1375,-2.2544,-2.2552,-2.2078,-2.2788,-2.2552,-2.2071,-2.2788,-2.3016,-2.3,-2.3,-2.3,-2.3,-2.3,-2.3,-2.296,-2.2789,-2.287,-2.296,-2.2781,-2.287,-2.3,-2.3,-2.3,-2.3,-2.3,-2.3,-2.3,-2.3016,-2.3016,-2.3016,-2.3016,-2.3016,-2.3081,-2.3252,-2.3276,-2.3211,-2.3041,-2.3016,-2.3016,-2.3016,-2.3016,-2.3016,-2.3016,-2.3016,-2.3016,-2.3016,-2.3016,-2.3016,-2.3016,-2.3016,-2.3016,-2.3016,-2.3016,-2.2911,-2.274,-2.5024,-2.6088,-2.6339,-3.0633,-3.2732,-1.8436,-1.855,-1.8696,-1.8874,-1.8915,-1.8964,-1.9142,-1.9191,-1.9199,-1.9248,-1.9256,-1.9313,0.0,0.0,0.0,-1.9946,-2.0036,0.0,-2.0239,-2.0296,0.0,0.0,0.0,-2.0702,-2.097,-2.1035,0.0,0.0,-2.136,-2.1408,-2.1579,-2.1766,-2.1936,-2.2123,-2.2123,-2.2277,-2.257,-2.2724,-2.283,-2.2935,-2.2976,-2.3065,-2.3195,-2.3195,-2.3252,-2.3398,-2.3398,-2.3398,-2.315,-2.3398,-2.315,-2.2918,-2.3158,-2.2902,-2.2444,-2.2669,-2.2196,-2.1707,-2.1955,-2.2034,-2.2284,-2.2756,-2.3,-2.3,-2.3,-2.3,-2.3,-2.2935,-2.296,-2.2976,-2.2935,-2.296,-2.3,-2.3,-2.3,-2.3,-2.3,-2.3,-2.3041,-2.3171,-2.3293,-2.3398,-2.3398,-2.3398,-2.3398,-2.3447,-2.3463,-2.3447,-2.3398,-2.3398,-2.3398,-2.3398,-2.3398,-2.3398,-2.3398,-2.3398,-2.3398,-2.3398,-2.3398,-2.3398,-2.3398,-2.3398,-2.3341,-2.3195,-2.3195,-2.3106,-2.2935,-2.3624,-2.5688,-2.9313,-3.0214,-3.2608,-1.8639,-1.8761,-1.8883,-1.9061,-1.9102,-1.9134,-1.9232,-1.9256,-1.9281,-1.9354,-1.937,0.0,0.0,0.0,0.0,0.0,0.0,0.0,-2.0304,-2.0393,-2.0483,0.0,-2.0734,0.0,-2.1213,-2.1319,-2.1465,0.0,0.0,-2.162,-2.1871,-2.2001,-2.2172,-2.2424,-2.2424,-2.2553,-2.2846,-2.3016,-2.3106,-2.3106,-2.3187,-2.3276,-2.3382,-2.3382,-2.3422,-2.3528,0.0,-2.3045,-2.2569,-2.2569,-2.2312,-2.1827,-2.2561,-2.2327,-2.1843,-2.2077,-2.1843,-2.1358,-2.185,-2.1963,-2.2042,-2.2512,-2.2981,-2.3236,-2.3236,-2.3236,-2.3236,-2.3236,-2.3236,-2.3236,-2.3236,-2.3236,-2.3236,-2.3236,-2.3236,-2.3236,-2.3236,-2.3236,-2.3252,-2.3358,-2.3463,-2.3528,-2.3528,-2.3528,-2.3528,-2.3528,-2.3528,-2.3528,-2.3528,-2.3528,-2.3528,-2.3528,-2.3528,-2.3528,-2.3528,-2.3528,-2.3528,-2.3528,-2.3528,-2.3528,-2.3528,-2.3528,-2.3487,-2.3382,-2.3382,-2.3317,-2.3236,-2.3236,-2.5342,-2.9079,-2.9796,-3.2436,-1.8899,-1.8996,-1.9053,-1.9216,-1.9256,-1.9256,-1.9256,-1.9272,-1.9337,-1.9484,0.0,-1.9654,-2.0003,0.0,-2.0125,-2.0296,0.0,-2.0328,-2.0353,-2.0491,-2.0612,-2.0661,-2.0962,-2.123,-2.1408,-2.1595,-2.1766,-2.1953,-2.1831,-2.1871,-2.2172,-2.2237,-2.2424,-2.274,-2.2789,-2.287,-2.3041,-2.3211,-2.3301,-2.3301,-2.3447,-2.3528,-2.3528,-2.3528,-2.3528,-2.3278,0.0,0.0,-2.1593,-2.1593,-2.0865,-2.0144,-2.1115,-2.1115,-2.063,-2.1358,-2.1108,-2.063,-2.1843,-2.1827,-2.1593,-2.2561,-2.3045,-2.3528,-2.3528,-2.3528,-2.3528,-2.3528,-2.3528,-2.3528,-2.3528,-2.3528,-2.3528,-2.3528,-2.3528,-2.3528,-2.3528,-2.3528,-2.3528,-2.3528,-2.3528,-2.3528,-2.3528,-2.3528,-2.3528,-2.3528,-2.3528,-2.3528,-2.3528,-2.3528,-2.3528,-2.3528,-2.3528,-2.3528,-2.3528,-2.3528,-2.3528,-2.3528,-2.3528,-2.3528,-2.3528,-2.3528,-2.3528,-2.3528,-2.3528,-2.3528,-2.3528,-2.3528,-2.4958,-2.7788,-2.9734,-3.2208,-1.8964,-1.9094,-1.9216,-1.9248,-1.9256,-1.9256,-1.9256,-1.937,0.0,0.0,0.0,-1.9808,-2.0028,-2.0068,0.0,-2.0296,0.0,0.0,0.0,0.0,-2.0702,0.0,0.0,0.0,0.0,0.0,0.0,0.0,0.0,0.0,0.0,-2.2464,-2.2724,-2.2935,-2.3081,-2.3171,-2.3211,-2.3382,-2.3487,-2.3487,-2.3512,-2.3528,-2.3528,-2.3528,-2.3295,-2.2811,0.0,0.0,-2.1593,-2.1593,-2.1593,-2.1358,-2.1593,-2.1115,-2.063,-2.063,-2.0394,-1.9908,-2.0144,-2.038,-2.1108,-2.2811,-2.3528,-2.3528,-2.3528,-2.3528,-2.3528,-2.3528,-2.3528,-2.3528,-2.3528,-2.3528,-2.3528,-2.3528,-2.3528,-2.3528,-2.3528,-2.3528,-2.3528,-2.3528,-2.3528,-2.3528,-2.3528,-2.3528,-2.3528,-2.3528,-2.3528,-2.3528,-2.3528,-2.3528,-2.3528,-2.3528,-2.3528,-2.3528,-2.3528,-2.3528,-2.3528,-2.3528,-2.3528,-2.3528,-2.3528,-2.3528,-2.3528,-2.3528,-2.3528,-2.3528,-2.3528,-2.3528,-2.5901,-3.0406,-3.0827,-3.3419,-1.9102,-1.9191,-1.9256,-1.9256,-1.9256,-1.9281,-1.937,0.0,0.0,0.0,0.0,-1.9987,-2.0166,0.0,0.0,0.0,0.0,0.0,0.0,0.0,0.0,0.0,0.0,0.0,0.0,0.0,0.0,0.0,0.0,0.0,0.0,-2.2805,-2.3041,-2.313,-2.3301,-2.3406,-2.3406,-2.3487,-2.3528,-2.3528,-2.3528,-2.3278,-2.3045,-2.3045,-2.2569,-2.2077,0.0,0.0,0.0,-2.063,-2.063,-2.063,-2.063,-2.038,-2.0144,-2.0144,-1.9894,-1.9664,-2.0144,-2.0394,-2.088,-2.2077,-2.2561,-2.2561,-2.3045,-2.3045,-2.3045,-2.3528,-2.3528,-2.3528,-2.3528,-2.3528,-2.3528,-2.3528,-2.3528,-2.3528,-2.3528,-2.3528,-2.3528,-2.3528,-2.3528,-2.3528,-2.3528,-2.3528,-2.3528,-2.3528,-2.3528,-2.3528,-2.3528,-2.3528,-2.3528,-2.3528,-2.3528,-2.3528,-2.3528,-2.3528,-2.3528,-2.3528,-2.3528,-2.3528,-2.3528,-2.3528,-2.3528,-2.3528,-2.3528,-2.3528,-2.3528,-2.3528,-2.5421,-2.9228,-2.9228,-3.1117,-1.9216,-1.9256,-1.9256,-1.9256,-1.9256,-1.9305,-1.9475,-1.954,0.0,0.0,0.0,-2.0166,-2.0296,0.0,0.0,0.0,0.0,0.0,0.0,0.0,0.0,0.0,0.0,0.0,0.0,0.0,0.0,0.0,0.0,0.0,0.0,-2.3106,-2.3276,-2.3317,-2.3447,-2.3528,-2.3528,-2.3528,-2.3528,-2.3528,-2.3278,-2.3045,-2.2561,-2.2561,-2.2077,-2.1343,0.0,0.0,0.0,-1.9914,-1.9664,-1.9664,-1.9664,-1.9664,-1.9664,-1.9664,-1.9664,-1.9664,-2.0151,-2.038,-2.038,-2.1108,-2.1343,-2.16,-2.2327,-2.2312,-2.2561,-2.3045,-2.3045,-2.3053,-2.3295,-2.3278,-2.3278,-2.3528,-2.3528,-2.3528,-2.3528,-2.3528,-2.3528,-2.3528,-2.3528,-2.3528,-2.3528,-2.3528,-2.3528,-2.3528,-2.3528,-2.3528,-2.3528,-2.3528,-2.3528,-2.3528,-2.3528,-2.3528,-2.3528,-2.3528,-2.3528,-2.3528,-2.3528,-2.3528,-2.3528,-2.3528,-2.3528,-2.3528,-2.3528,-2.3528,-2.3528,-2.3528,-2.4708,-2.732,-2.732,-2.8742,-1.9256,-1.9256,-1.9256,-1.9256,-1.9256,-1.9305,-1.9475,0.0,0.0,0.0,0.0,0.0,0.0,0.0,0.0,0.0,0.0,-2.0629,0.0,-2.0986,-2.1238,-2.1595,0.0,0.0,0.0,0.0,0.0,0.0,0.0,0.0,0.0,0.0,-2.3341,-2.3504,-2.3528,-2.3528,-2.3528,-2.3528,-2.3528,-2.3528,-2.3045,-2.2569,-2.2561,-2.2077,-2.1365,-2.063,0.0,0.0,0.0,-1.9664,-1.9664,-1.9664,-1.9664,-1.9664,-1.9664,-1.9664,-1.9664,-1.9664,-1.9664,-1.9664,-1.9908,-1.9908,-2.063,-2.1593,-2.16,-2.16,-2.16,-2.1843,-2.1843,-2.1827,-2.2561,-2.2569,-2.2819,-2.3278,-2.3528,-2.3528,-2.3528,-2.3528,-2.3528,-2.3528,-2.3528,-2.3528,-2.3528,-2.3528,-2.3528,-2.3528,-2.3528,-2.3528,-2.3528,-2.3528,-2.3528,-2.3528,-2.3528,-2.3528,-2.3528,-2.3528,-2.3528,-2.3528,-2.3528,-2.3528,-2.3528,-2.3528,-2.3528,-2.3528,-2.3528,-2.3528,-2.3528,-2.3528,-2.4708,-2.732,-2.732,-2.8742,-1.9256,-1.9256,-1.9256,-1.9256,-1.9337,-1.9459,-1.9638,0.0,0.0,0.0,0.0,0.0,-2.032,0.0,0.0,0.0,0.0,0.0,-2.0832,-2.101,-2.1295,-2.1766,0.0,0.0,0.0,0.0,0.0,0.0,0.0,0.0,0.0,0.0,-2.3447,-2.3528,-2.3528,-2.3528,-2.3528,-2.3053,-2.3045,-2.3045,-2.2327,-2.1843,-2.1343,-2.1115,-2.063,0.0,0.0,0.0,0.0,-1.9664,-1.9664,-1.9664,-1.9664,-1.9664,-1.9664,-1.9664,-1.9664,-1.9664,-1.9664,-1.9664,-1.9664,-1.9664,-2.0144,-2.0622,-2.0865,-2.1108,-2.1108,-2.1593,-2.1593,-2.16,-2.1835,-2.2327,-2.2811,-2.3278,-2.3528,-2.3528,-2.3528,-2.3528,-2.3528,-2.3528,-2.3528,-2.3528,-2.3528,-2.3528,-2.3528,-2.3528,-2.3528,-2.3528,-2.3528,-2.3528,-2.3528,-2.3528,-2.3528,-2.3528,-2.3528,-2.3528,-2.3528,-2.3528,-2.3528,-2.3528,-2.3528,-2.3528,-2.3528,-2.3528,-2.3528,-2.3528,-2.3528,-2.3528,-2.3994,-2.4958,-2.4958,-2.567,-1.9256,-1.9256,-1.9256,-1.9256,-1.9386,-1.9565,0.0,0.0,0.0,0.0,0.0,-2.032,-2.032,-2.032,-2.032,-2.032,-2.0474,-2.0653,-2.0832,-2.1059,-2.1384,0.0,0.0,0.0,0.0,0.0,0.0,0.0,0.0,0.0,0.0,0.0,-2.3528,-2.3528,-2.3528,-2.3528,-2.3528,-2.2795,-2.2561,-2.2561,-2.16,-2.1108,-2.063,-2.038,-2.0144,0.0,0.0,0.0,0.0,-1.9664,-1.9664,-1.9664,-1.9664,-1.9664,-1.9664,-1.9664,-1.9664,-1.9664,-1.9664,-1.9664,-1.9664,-1.9664,-1.9664,-1.9664,-2.0144,-2.0394,-2.038,-2.0865,-2.1365,-2.1593,-2.1593,-2.2327,-2.3045,-2.3287,-2.3528,-2.3528,-2.3528,-2.3528,-2.3528,-2.3528,-2.3528,-2.3528,-2.3528,-2.3528,-2.3528,-2.3528,-2.3528,-2.3528,-2.3528,-2.3528,-2.3528,-2.3528,-2.3528,-2.3528,-2.3528,-2.3528,-2.3528,-2.3528,-2.3528,-2.3528,-2.3528,-2.3528,-2.3528,-2.3528,-2.3528,-2.3528,-2.3528,-2.3528,-2.3528,-2.3528,-2.3528,-2.4011,-1.9256,-1.9256,-1.9256,-1.9256,-1.9386,-1.9565,0.0,0.0,0.0,0.0,0.0,-2.032,-2.032,-2.032,-2.032,-2.032,-2.0474,-2.0653,-2.0832,-2.1157,-2.1514,0.0,0.0,0.0,0.0,0.0,0.0,0.0,0.0,0.0,0.0,0.0,0.0,-2.3528,-2.3528,-2.3528,-2.3528,-2.2795,-2.2561,-2.2561,-2.1358,-2.063,-2.063,-1.9894,0.0,0.0,0.0,0.0,0.0,-1.9664,-1.9664,-1.9664,-1.9664,-1.9664,-1.9664,-1.9664,-1.9664,-1.9664,-1.9664,-1.9664,-1.9664,-1.9664,-1.9664,-1.9664,-1.9664,-1.9664,-1.9664,-1.9664,-2.063,-2.1593,-2.1593,-2.2561,-2.3528,-2.3528,-2.3528,-2.3528,-2.3528,-2.3528,-2.3528,-2.3528,-2.3528,-2.3528,-2.3528,-2.3528,-2.3528,-2.3528,-2.3528,-2.3528,-2.3528,-2.3528,-2.3528,-2.3528,-2.3528,-2.3528,-2.3528,-2.3528,-2.3528,-2.3528,-2.3528,-2.3528,-2.3528,-2.3528,-2.3528,-2.3528,-2.3528,-2.3528,-2.3528,-2.3528,-2.3528,-2.3528,-2.3528,-2.4949,-1.9256,-1.9256,-1.9289,-1.9402,-1.9565,-1.9752,-1.9938,0.0,0.0,0.0,0.0,0.0,-2.032,-2.032,-2.032,-2.032,-2.0572,-2.0791,0.0,0.0,0.0,0.0,0.0,0.0,0.0,0.0,0.0,0.0,0.0,0.0,0.0,0.0,0.0,-2.3528,-2.3528,-2.3528,-2.3528,-2.2561,-2.1827,-2.1827,-2.063,-1.9894,-1.9894,0.0,0.0,0.0,0.0,0.0,0.0,-1.9664,-1.9664,-1.9664,-1.9664,-1.9664,-1.9664,-1.9664,-1.9664,-1.9664,-1.9664,-1.9664,-1.9664,-1.9664,-1.9664,-1.9664,-1.9664,-1.9664,-1.9664,-1.9664,-1.9894,-2.038,-2.1343,-2.1827,-2.2312,-2.3278,-2.3528,-2.3528,-2.3528,-2.3528,-2.3528,-2.3528,-2.3528,-2.3528,-2.3528,-2.3528,-2.3528,-2.3528,-2.3528,-2.3528,-2.3528,-2.3528,-2.3528,-2.3528,-2.3528,-2.3528,-2.3528,-2.3528,-2.3528,-2.3528,-2.3528,-2.3528,-2.3528,-2.3528,-2.3528,-2.3528,-2.3528,-2.3528,-2.3528,-2.3528,-2.3528,-2.3528,-2.3528,-2.4958,0.0,-1.9305,-1.9378,-1.9484,-1.9703,0.0,0.0,0.0,0.0,0.0,0.0,0.0,-2.032,-2.032,-2.032,-2.032,-2.0564,-2.0775,-2.0848,0.0,0.0,0.0,0.0,0.0,0.0,0.0,0.0,0.0,0.0,0.0,0.0,0.0,0.0,0.0,-2.3528,-2.3278,-2.3053,-2.2077,-2.1593,-2.1115,-2.0144,-1.9664,-1.9664,0.0,0.0,0.0,0.0,0.0,0.0,-1.9664,-1.9664,-1.9664,-1.9664,-1.9664,-1.9664,-1.9664,-1.9664,-1.9664,-1.9664,-1.9664,-1.9664,-1.9664,-1.9664,-1.9664,-1.9664,-1.9664,-1.9664,-1.9664,-2.0144,-2.063,-2.1343,-2.2077,-2.2561,-2.3278,-2.3528,-2.3528,-2.3528,-2.3528,-2.3528,-2.3528,-2.3528,-2.3528,-2.3528,-2.3528,-2.3528,-2.3528,-2.3528,-2.3528,-2.3528,-2.3593,-2.3634,-2.3634,-2.3699,-2.3723,-2.3723,-2.3617,-2.3528,-2.3528,-2.3528,-2.3528,-2.3528,-2.3528,-2.3528,-2.3528,-2.3528,-2.3528,-2.3528,-2.3528,-2.3528,-2.3528,-2.3528,-2.4252,0.0,0.0,0.0,0.0,0.0,0.0,0.0,0.0,0.0,0.0,0.0,0.0,0.0,-2.032,-2.032,-2.0336,-2.0491,-2.0677,0.0,0.0,0.0,0.0,0.0,0.0,0.0,0.0,0.0,0.0,0.0,0.0,0.0,0.0,0.0,0.0,0.0,-2.3295,-2.2569,-2.2077,-2.1358,-2.063,-1.9894,-1.9664,-1.9664,0.0,0.0,0.0,0.0,0.0,0.0,-1.9664,-1.9664,-1.9664,-1.9664,-1.9664,-1.9664,-1.9664,-1.9664,-1.9664,-1.9664,-1.9664,-1.9664,-1.9664,-1.9664,-1.9664,-1.9664,-1.9664,-1.9664,-1.9664,-2.0622,-2.1593,-2.1593,-2.2561,-2.3278,-2.3528,-2.3528,-2.3528,-2.3528,-2.3528,-2.3528,-2.3528,-2.3528,-2.3528,-2.3528,-2.3552,-2.3552,-2.3552,-2.3552,-2.3569,-2.3569,-2.3723,-2.3829,-2.3829,-2.3975,-2.4064,-2.4064,-2.3764,-2.3569,-2.3569,-2.3569,-2.3569,-2.3569,-2.3552,-2.3552,-2.3552,-2.3528,-2.3528,-2.3528,-2.3528,-2.3528,-2.3528,-2.3528,-2.3528,0.0,0.0,0.0,0.0,0.0,0.0,0.0,0.0,0.0,0.0,0.0,0.0,0.0,0.0,-2.0369,-2.0507,-2.0677,-2.0905,-2.1213,0.0,0.0,0.0,0.0,0.0,0.0,0.0,0.0,0.0,0.0,0.0,0.0,0.0,0.0,0.0,0.0,-2.3045,-2.3278,-2.2085,-2.1593,-2.1343,-2.0144,-1.9664,0.0,0.0,0.0,0.0,0.0,0.0,0.0,-1.9664,-1.9664,-1.9664,-1.9664,-1.9664,-1.9664,-1.9664,-1.9664,-1.9664,-1.9664,-1.9664,-1.9664,-1.9664,-1.9664,-1.9664,-1.9664,-1.9664,-1.9664,-1.9664,-1.9914,-2.0394,-2.1365,-2.1843,-2.2327,-2.3278,-2.3528,-2.3528,-2.3528,-2.3528,-2.3528,-2.3528,-2.3528,-2.3528,-2.3528,-2.3658,-2.3739,-2.3739,-2.3853,-2.3934,-2.3934,-2.3975,-2.3999,-2.3999,-2.404,-2.4064,-2.4064,-2.3975,-2.3934,-2.3934,-2.3934,-2.3934,-2.3934,-2.3804,-2.3739,-2.3739,-2.3593,-2.3528,-2.3528,-2.3528,-2.3528,-2.3528,-2.3528,-2.3528,0.0,0.0,0.0,0.0,0.0,0.0,0.0,0.0,0.0,0.0,0.0,0.0,0.0,0.0,0.0,-2.0564,-2.0742,-2.1035,0.0,0.0,0.0,0.0,0.0,0.0,0.0,0.0,0.0,0.0,0.0,0.0,0.0,0.0,0.0,0.0,0.0,-2.3045,-2.3045,-2.2077,-2.135,-2.1115,-2.0144,-1.9664,0.0,0.0,0.0,0.0,0.0,0.0,-1.9664,-1.9664,-1.9664,-1.9664,-1.9664,-1.9664,-1.9664,-1.9664,-1.9664,-1.9664,-1.9664,-1.9664,-1.9664,-1.9664,-1.9664,-1.9664,-1.9664,-1.9664,-1.9664,-1.9664,-2.0144,-2.063,-2.135,-2.2077,-2.2569,-2.3278,-2.3528,-2.3528,-2.3528,-2.3593,-2.3658,-2.3658,-2.3723,-2.3764,-2.3764,-2.3853,-2.3934,-2.3934,-2.3999,-2.4064,-2.4064,-2.4129,-2.4186,-2.4186,-2.4251,-2.43,-2.43,-2.43,-2.4235,-2.4064,-2.4064,-2.4064,-2.4064,-2.3975,-2.3894,-2.3804,-2.3699,-2.3617,-2.3528,-2.3528,-2.3528,-2.3528,-2.3528,-2.3528,0.0,0.0,0.0,0.0,0.0,0.0,0.0,0.0,0.0,0.0,0.0,0.0,0.0,0.0,0.0,0.0,0.0,0.0,0.0,0.0,0.0,0.0,0.0,0.0,0.0,0.0,0.0,0.0,0.0,0.0,0.0,0.0,0.0,0.0,0.0,0.0,-2.2561,-2.1827,-2.1365,-2.063,-2.0144,-1.9664,-1.9664,0.0,0.0,0.0,0.0,0.0,-1.9698,-1.9698,-1.9712,-1.9732,-1.9732,-1.9732,-1.9732,-1.9732,-1.9732,-1.9732,-1.9732,-1.9732,-1.9732,-1.9732,-1.9732,-1.9732,-1.9732,-1.9732,-1.9732,-1.9732,-2.0679,-2.163,-2.1675,-2.2639,-2.3367,-2.3609,-2.3617,-2.3617,-2.3617,-2.3739,-2.3845,-2.3845,-2.3959,-2.4064,-2.4064,-2.408,-2.4105,-2.4105,-2.4129,-2.4145,-2.4145,-2.4275,-2.4381,-2.4381,-2.4511,-2.4592,-2.4592,-2.4592,-2.4462,-2.417,-2.4145,-2.4129,-2.4105,-2.4105,-2.4023,-2.3845,-2.3829,-2.3723,-2.3569,-2.3552,-2.3528,-2.3528,-2.3528,-2.3528,-1.9435,0.0,0.0,0.0,0.0,0.0,0.0,0.0,0.0,0.0,0.0,0.0,0.0,0.0,0.0,0.0,0.0,0.0,0.0,0.0,0.0,0.0,0.0,0.0,0.0,0.0,0.0,0.0,0.0,0.0,0.0,0.0,0.0,0.0,0.0,0.0,0.0,-2.16,-2.1593,-2.135,-2.0151,-1.9664,-1.9664,-1.9664,0.0,0.0,0.0,0.0,-1.9841,-1.9841,-1.9922,-2.0031,-2.0031,-2.0031,-2.0031,-2.0031,-2.0031,-2.0031,-2.0031,-2.0031,-2.0031,-2.0031,-2.0031,-2.0031,-2.0031,-2.0031,-2.0031,-2.0031,-2.0436,-2.1088,-2.1734,-2.2504,-2.3252,-2.3975,-2.3975,-2.3975,-2.3975,-2.3999,-2.4023,-2.4023,-2.404,-2.4064,-2.4064,-2.4186,-2.4292,-2.4292,-2.4421,-2.4511,-2.4511,-2.4527,-2.4551,-2.4551,-2.4576,-2.4592,-2.4592,-2.4592,-2.4576,-2.4511,-2.4511,-2.4446,-2.4292,-2.4292,-2.421,-2.4023,-2.3869,-2.3788,-2.3764,-2.3617,-2.3528,-2.3528,-2.3528,-2.3528,-1.9467,-1.9646,0.0,0.0,0.0,0.0,0.0,0.0,0.0,0.0,0.0,0.0,0.0,0.0,0.0,0.0,0.0,0.0,0.0,0.0,0.0,0.0,0.0,0.0,0.0,0.0,0.0,0.0,0.0,0.0,0.0,0.0,0.0,0.0,0.0,0.0,0.0,-2.1358,-2.1108,-2.1108,-2.0144,-1.9698,-1.9766,-1.9766,-1.982,0.0,0.0,-1.9942,-1.9997,-1.9997,-2.0031,-2.0098,-2.0098,-2.0098,-2.0098,-2.0098,-2.0098,-2.0098,-2.0098,-2.0098,-2.0098,-2.0098,-2.0098,-2.0098,-2.0098,-2.0098,-2.0119,-2.0207,-2.0851,-2.1741,-2.2062,-2.2812,-2.3817,-2.4056,-2.4064,-2.4064,-2.4064,-2.4145,-2.421,-2.421,-2.4292,-2.4356,-2.4356,-2.4421,-2.4462,-2.4462,-2.4551,-2.4592,-2.4592,-2.4592,-2.4592,-2.4592,-2.4592,-2.4592,-2.4592,-2.4592,-2.4592,-2.4592,-2.4592,-2.4551,-2.4486,-2.4462,-2.4397,-2.421,-2.404,-2.3894,-2.3804,-2.3617,-2.3528,-2.3528,-2.3528,-2.3528,-1.9516,-1.9678,0.0,0.0,0.0,0.0,0.0,0.0,0.0,0.0,0.0,0.0,0.0,0.0,0.0,0.0,0.0,0.0,0.0,0.0,0.0,0.0,0.0,0.0,0.0,0.0,0.0,0.0,0.0,0.0,0.0,0.0,0.0,0.0,0.0,0.0,0.0,-2.0916,-2.0679,-2.0679,-1.9949,-1.9786,-1.9929,-1.9929,-1.9997,-2.0098,-2.0098,-2.0119,-2.0153,-2.0153,-2.0173,-2.0207,-2.0207,-2.0207,-2.0207,-2.0207,-2.0207,-2.0207,-2.0207,-2.0207,-2.0207,-2.0207,-2.0207,-2.0207,-2.0207,-2.0207,-2.0227,-2.0349,-2.1041,-2.194,-2.2196,-2.3192,-2.393,-2.4186,-2.4194,-2.4194,-2.4194,-2.4292,-2.4397,-2.4397,-2.4511,-2.4592,-2.4592,-2.4592,-2.4592,-2.4592,-2.4592,-2.4592,-2.4592,-2.4592,-2.4592,-2.4592,-2.4592,-2.4592,-2.4592,-2.4592,-2.4592,-2.4592,-2.4592,-2.4592,-2.4592,-2.4592,-2.4527,-2.4397,-2.421,-2.404,-2.3869,-2.3682,-2.3569,-2.3528,-2.3528,-2.3528,-1.9678,-1.9776,0.0,0.0,0.0,0.0,0.0,0.0,0.0,0.0,0.0,0.0,0.0,0.0,0.0,0.0,0.0,0.0,0.0,0.0,0.0,0.0,0.0,0.0,0.0,0.0,0.0,0.0,0.0,0.0,0.0,0.0,0.0,0.0,0.0,0.0,0.0,0.0,-2.0829,-2.0829,-2.0093,-1.9942,-2.0085,-2.0085,-2.0085,-2.0098,-2.0098,-2.0187,-2.0315,-2.0315,-2.0383,-2.0505,-2.0505,-2.0505,-2.0505,-2.0505,-2.0505,-2.0505,-2.0505,-2.0505,-2.0505,-2.0505,-2.0505,-2.0505,-2.0505,-2.0505,-2.0505,-2.0526,-2.1033,-2.178,-2.2286,-2.3037,-2.3803,-2.4543,-2.4551,-2.4551,-2.4551,-2.4568,-2.4576,-2.4576,-2.4592,-2.4592,-2.4592,-2.4592,-2.4592,-2.4592,-2.4592,-2.4592,-2.4592,-2.4592,-2.4592,-2.4592,-2.4592,-2.4592,-2.4592,-2.4592,-2.4592,-2.4592,-2.4592,-2.4592,-2.4592,-2.4592,-2.4592,-2.4576,-2.4397,-2.4235,-2.404,-2.3869,-2.3699,-2.3528,-2.3528,-2.3528,-1.9719,-1.9661,0.0,0.0,0.0,0.0,0.0,0.0,0.0,0.0,0.0,0.0,0.0,0.0,0.0,0.0,0.0,0.0,0.0,0.0,0.0,0.0,0.0,0.0,0.0,0.0,0.0,0.0,0.0,0.0,0.0,0.0,0.0,0.0,0.0,0.0,0.0,0.0,-2.0217,-2.0395,-2.0051,-2.0098,-2.0241,-2.0241,-2.0295,-2.0383,-2.0383,-2.0404,-2.0451,-2.0451,-2.0485,-2.0539,-2.0539,-2.0539,-2.0539,-2.0539,-2.0539,-2.0539,-2.0539,-2.0539,-2.0539,-2.0539,-2.0539,-2.0539,-2.0539,-2.0539,-2.0539,-2.0539,-2.08,-2.1308,-2.2323,-2.3075,-2.3842,-2.4331,-2.4592,-2.4592,-2.4592,-2.4592,-2.4592,-2.4592,-2.4592,-2.4592,-2.4592,-2.4592,-2.4592,-2.4592,-2.4592,-2.4592,-2.4592,-2.4592,-2.4592,-2.4592,-2.4592,-2.4592,-2.4592,-2.4592,-2.4592,-2.4592,-2.4592,-2.4592,-2.4592,-2.4592,-2.4592,-2.4592,-2.4421,-2.4251,-2.4064,-2.3894,-2.3723,-2.3528,-2.3528,-2.3528,-1.9735,-1.9718,0.0,0.0,0.0,0.0,0.0,0.0,0.0,0.0,0.0,0.0,0.0,0.0,0.0,0.0,0.0,0.0,0.0,0.0,0.0,0.0,0.0,0.0,0.0,0.0,0.0,0.0,0.0,0.0,0.0,0.0,0.0,0.0,0.0,0.0,0.0,0.0,-2.0119,-2.0329,-2.0275,-2.0295,-2.0397,-2.0397,-2.0451,-2.0539,-2.0539,-2.0539,-2.0539,-2.0539,-2.0539,-2.0539,-2.0539,-2.0539,-2.0539,-2.0539,-2.0539,-2.0539,-2.0539,-2.0539,-2.0539,-2.0539,-2.0539,-2.0539,-2.0539,-2.0539,-2.0539,-2.0539,-2.0539,-2.0786,-2.2055,-2.2569,-2.3075,-2.4087,-2.4348,-2.4348,-2.4592,-2.4592,-2.4592,-2.4592,-2.4592,-2.4592,-2.4592,-2.4592,-2.4592,-2.4592,-2.4592,-2.4592,-2.4592,-2.4592,-2.4592,-2.4592,-2.4592,-2.4592,-2.4592,-2.4592,-2.4592,-2.4592,-2.4592,-2.4592,-2.4592,-2.4592,-2.4592,-2.4592,-2.4486,-2.434,-2.4145,-2.3975,-2.3788,-2.3617,-2.3552,-2.3528,-1.9743,0.0,0.0,0.0,0.0,0.0,0.0,0.0,0.0,0.0,0.0,0.0,0.0,0.0,0.0,0.0,0.0,0.0,0.0,0.0,0.0,0.0,0.0,0.0,0.0,0.0,0.0,0.0,0.0,0.0,0.0,0.0,0.0,0.0,0.0,0.0,0.0,0.0,-2.0329,-2.0329,-2.0471,-2.0539,-2.0539,-2.0539,-2.0539,-2.0539,-2.0539,-2.0539,-2.0539,-2.0539,-2.0539,-2.0539,-2.0539,-2.0539,-2.0539,-2.0539,-2.0539,-2.0539,-2.0539,-2.0539,-2.0539,-2.0539,-2.0539,-2.0539,-2.0539,-2.0539,-2.0539,-2.0539,-2.0539,-2.0546,-2.1294,-2.1555,-2.2055,-2.3336,-2.3581,-2.3842,-2.4331,-2.4592,-2.4592,-2.4592,-2.4592,-2.4592,-2.4592,-2.4592,-2.4592,-2.4592,-2.4592,-2.4592,-2.4592,-2.4592,-2.4592,-2.4592,-2.4592,-2.4592,-2.4592,-2.4592,-2.4592,-2.4592,-2.4592,-2.4592,-2.4592,-2.4592,-2.4592,-2.4592,-2.4592,-2.4511,-2.4332,-2.4145,-2.3975,-2.3804,-2.3617,-2.3528,-1.9938,0.0,0.0,0.0,0.0,0.0,0.0,0.0,0.0,0.0,0.0,0.0,0.0,0.0,0.0,0.0,0.0,0.0,0.0,0.0,0.0,0.0,0.0,0.0,0.0,0.0,0.0,0.0,0.0,0.0,0.0,0.0,0.0,0.0,0.0,0.0,0.0,0.0,0.0,-2.0471,-2.0526,-2.0539,-2.0539,-2.0539,-2.0539,-2.0539,-2.0539,-2.0539,-2.0539,-2.0539,-2.0539,-2.0539,-2.0539,-2.0539,-2.0526,-2.0438,-2.0397,-2.0383,-2.0275,-2.0227,-2.0241,-2.0363,-2.0397,-2.0417,-2.0505,-2.0539,-2.0539,-2.0539,-2.0539,-2.0539,-2.08,-2.1308,-2.2055,-2.3336,-2.3581,-2.3842,-2.4331,-2.4592,-2.4592,-2.4592,-2.4592,-2.4551,-2.4446,-2.4421,-2.4421,-2.4421,-2.4421,-2.4462,-2.4576,-2.4592,-2.4592,-2.4592,-2.4592,-2.4592,-2.4592,-2.4592,-2.4592,-2.4592,-2.4592,-2.4592,-2.4592,-2.4592,-2.4592,-2.4592,-2.4592,-2.4511,-2.4332,-2.4145,-2.3975,-2.3804,-2.3617,-2.3528,0.0,0.0,0.0,0.0,0.0,0.0,0.0,0.0,0.0,0.0,0.0,0.0,0.0,0.0,0.0,0.0,0.0,0.0,0.0,0.0,0.0,0.0,0.0,0.0,0.0,0.0,0.0,0.0,0.0,0.0,0.0,0.0,0.0,0.0,0.0,0.0,0.0,0.0,0.0,-2.0539,-2.0539,-2.0539,-2.0539,-2.0539,-2.0539,-2.0539,-2.0539,-2.0539,-2.0539,-2.0485,-2.0451,-2.0451,-2.0383,-2.0397,-2.0451,-2.0363,-2.0363,-2.0397,-2.0315,-2.0275,-2.0295,-2.0383,-2.0417,-2.0438,-2.0526,-2.0539,-2.0539,-2.0539,-2.0539,-2.0539,-2.0539,-2.1047,-2.1801,-2.3068,-2.3321,-2.3842,-2.4331,-2.4592,-2.4592,-2.4592,-2.4592,-2.4551,-2.4462,-2.4446,-2.4446,-2.4446,-2.4446,-2.4486,-2.4576,-2.4592,-2.4592,-2.4592,-2.4592,-2.4592,-2.4592,-2.4592,-2.4592,-2.4592,-2.4592,-2.4592,-2.4592,-2.4592,-2.4592,-2.4592,-2.4592,-2.4551,-2.4446,-2.4186,-2.4023,-2.3894,-2.3658,-2.3528,0.0,0.0,0.0,0.0,0.0,0.0,0.0,0.0,0.0,0.0,0.0,0.0,0.0,0.0,0.0,0.0,0.0,0.0,0.0,0.0,0.0,0.0,0.0,0.0,0.0,0.0,0.0,0.0,0.0,0.0,0.0,0.0,0.0,0.0,0.0,0.0,0.0,0.0,0.0,0.0,-2.0539,-2.0539,-2.0526,-2.0539,-2.0539,-2.0526,-2.0526,-2.0505,-2.0485,-2.0383,-2.0329,-2.0315,-2.0187,-2.0227,-2.0349,-2.0329,-2.0417,-2.0526,-2.0505,-2.0505,-2.0505,-2.0526,-2.0526,-2.0526,-2.0539,-2.0539,-2.0539,-2.0539,-2.0539,-2.0539,-2.0539,-2.1047,-2.1816,-2.2562,-2.3075,-2.3842,-2.4331,-2.4592,-2.4592,-2.4592,-2.4592,-2.4592,-2.4576,-2.4568,-2.4568,-2.4568,-2.4592,-2.4592,-2.4592,-2.4592,-2.4592,-2.4592,-2.4592,-2.4592,-2.4592,-2.4592,-2.4592,-2.4592,-2.4592,-2.4592,-2.4592,-2.4592,-2.4592,-2.4592,-2.4592,-2.4592,-2.4592,-2.4251,-2.408,-2.4064,-2.3723,-2.3552,0.0,0.0,0.0,0.0,0.0,0.0,0.0,0.0,0.0,0.0,0.0,0.0,0.0,0.0,0.0,0.0,0.0,0.0,0.0,0.0,0.0,0.0,0.0,0.0,0.0,0.0,0.0,0.0,0.0,0.0,0.0,0.0,0.0,0.0,0.0,0.0,0.0,-2.0526,-2.0539,0.0,-2.0539,-2.0485,-2.0383,-2.0485,-2.0485,-2.0383,-2.0383,-2.0309,-2.0207,-2.0295,-2.0329,-2.0329,-2.0417,-2.0471,-2.0485,-2.0363,-2.0349,-2.0363,-2.0241,-2.0187,-2.0227,-2.0329,-2.0383,-2.0397,-2.0505,-2.0539,-2.0539,-2.0539,-2.0539,-2.0539,-2.0539,-2.1047,-2.1816,-2.2562,-2.3075,-2.3842,-2.4331,-2.4592,-2.4592,-2.4592,-2.4592,-2.4551,-2.4421,-2.4397,-2.4397,-2.4397,-2.4511,-2.4592,-2.4592,-2.4592,-2.4592,-2.4592,-2.4592,-2.4592,-2.4592,-2.4592,-2.4592,-2.4592,-2.4592,-2.4592,-2.4592,-2.4592,-2.4592,-2.4592,-2.4592,-2.4592,-2.4592,-2.4381,-2.421,-2.4064,-2.3845,-2.3674,0.0,0.0,0.0,0.0,0.0,0.0,0.0,0.0,0.0,0.0,0.0,0.0,0.0,0.0,0.0,0.0,0.0,0.0,0.0,0.0,0.0,0.0,0.0,0.0,0.0,0.0,0.0,0.0,0.0,0.0,0.0,0.0,0.0,0.0,0.0,0.0,-2.0539,-2.0539,-2.0505,-2.0438,-2.0505,-2.0505,-2.0438,-2.0438,-2.0397,-2.0329,-2.0397,-2.0383,-2.0315,-2.0329,-2.0329,-2.0329,-2.0329,-2.0383,-2.0438,-2.0363,-2.0363,-2.0417,-2.0349,-2.0315,-2.0329,-2.0397,-2.0438,-2.0451,-2.0526,-2.0539,-2.0539,-2.0539,-2.0539,-2.0539,-2.0539,-2.1308,-2.2062,-2.2569,-2.3075,-2.3842,-2.4331,-2.4592,-2.4592,-2.4592,-2.4592,-2.4568,-2.4462,-2.4462,-2.4462,-2.4462,-2.4527,-2.4592,-2.4592,-2.4592,-2.4592,-2.4592,-2.4592,-2.4592,-2.4592,-2.4592,-2.4592,-2.4592,-2.4592,-2.4592,-2.4592,-2.4592,-2.4592,-2.4592,-2.4592,-2.4592,-2.4592,-2.4421,-2.4251,-2.4064,-2.3894,-2.3699,0.0,0.0,0.0,0.0,0.0,0.0,0.0,0.0,0.0,0.0,0.0,0.0,0.0,0.0,0.0,0.0,0.0,0.0,0.0,0.0,0.0,0.0,0.0,0.0,0.0,0.0,0.0,0.0,0.0,0.0,0.0,0.0,0.0,0.0,0.0,-2.0417,-2.0505,-2.0505,-2.0451,-2.0329,-2.0451,-2.0505,-2.0505,-2.0383,-2.0329,-2.0329,-2.0451,-2.0485,-2.0451,-2.0363,-2.0329,-2.0315,-2.0227,-2.0261,-2.0363,-2.0363,-2.0438,-2.0539,-2.0539,-2.0539,-2.0539,-2.0539,-2.0539,-2.0539,-2.0539,-2.0539,-2.0539,-2.0539,-2.0539,-2.0539,-2.0546,-2.1555,-2.2562,-2.283,-2.3075,-2.3842,-2.4331,-2.4592,-2.4592,-2.4592,-2.4592,-2.4592,-2.4592,-2.4592,-2.4592,-2.4592,-2.4592,-2.4592,-2.4592,-2.4592,-2.4592,-2.4592,-2.4592,-2.4592,-2.4592,-2.4592,-2.4592,-2.4592,-2.4592,-2.4592,-2.4592,-2.4592,-2.4592,-2.4592,-2.4592,-2.4592,-2.4592,-2.4446,-2.4275,-2.4064,-2.391,-2.3739,0.0,0.0,0.0,0.0,0.0,0.0,0.0,0.0,0.0,0.0,0.0,0.0,0.0,0.0,0.0,0.0,0.0,0.0,0.0,0.0,0.0,0.0,0.0,0.0,0.0,0.0,0.0,0.0,0.0,0.0,0.0,0.0,-2.0139,-2.0295,-2.0438,0.0,-2.0363,-2.0363,-2.0349,-2.0329,-2.0349,-2.0363,-2.0363,-2.0329,-2.0329,-2.0329,-2.0349,-2.0275,-2.0173,-2.0275,-2.0329,-2.0349,-2.0438,-2.0485,-2.0505,-2.0505,-2.0526,-2.0539,-2.0539,-2.0539,-2.0539,-2.0539,-2.0539,-2.0539,-2.0539,-2.0539,-2.0539,-2.0539,-2.0539,-2.0546,-2.1308,-2.1555,-2.2062,-2.3075,-2.3581,-2.3842,-2.4331,-2.4592,-2.4592,-2.4592,-2.4592,-2.4592,-2.4592,-2.4592,-2.4592,-2.4592,-2.4592,-2.4592,-2.4592,-2.4592,-2.4592,-2.4592,-2.4592,-2.4592,-2.4592,-2.4592,-2.4592,-2.4592,-2.4592,-2.4592,-2.4592,-2.4592,-2.4592,-2.4592,-2.4592,-2.4592,-2.4592,-2.4568,-2.4381,-2.4064,-2.404,-2.3853,0.0,0.0,0.0,0.0,0.0,0.0,0.0,0.0,0.0,0.0,0.0,0.0,0.0,0.0,0.0,0.0,0.0,0.0,0.0,0.0,0.0,0.0,0.0,0.0,0.0,0.0,0.0,0.0,0.0,0.0,0.0,-2.001,-2.0173,-2.0329,-2.0383,0.0,-2.0329,-2.0329,-2.0363,-2.0451,-2.0363,-2.0363,-2.0451,-2.0451,-2.0397,-2.0329,-2.0417,-2.0417,-2.0349,-2.0417,-2.0451,-2.0451,-2.0526,-2.0539,-2.0539,-2.0539,-2.0539,-2.0539,-2.0539,-2.0539,-2.0539,-2.0539,-2.0539,-2.0539,-2.0539,-2.0539,-2.0539,-2.0539,-2.0539,-2.0546,-2.1294,-2.1801,-2.2308,-2.3321,-2.3826,-2.4348,-2.4592,-2.4592,-2.4592,-2.4592,-2.4592,-2.4592,-2.4592,-2.4592,-2.4592,-2.4592,-2.4592,-2.4592,-2.4592,-2.4592,-2.4592,-2.4592,-2.4592,-2.4592,-2.4592,-2.4592,-2.4592,-2.4592,-2.4592,-2.4592,-2.4592,-2.4592,-2.4592,-2.4592,-2.4592,-2.4592,-2.4592,-2.4592,-2.4405,-2.4064,-2.4064,-2.3869,0.0,0.0,0.0,0.0,0.0,0.0,0.0,0.0,0.0,0.0,0.0,0.0,0.0,0.0,0.0,0.0,0.0,0.0,0.0,0.0,0.0,0.0,0.0,0.0,0.0,0.0,0.0,0.0,0.0,0.0,-1.9922,-2.0031,-2.0173,-2.0329,-2.0329,-2.0309,-2.0275,-2.0309,-2.0383,-2.0485,-2.0417,-2.0438,-2.0539,-2.0539,-2.0485,-2.0383,-2.0485,-2.0539,-2.0539,-2.0539,-2.0539,-2.0539,-2.0539,-2.0539,-2.0539,-2.0539,-2.0539,-2.0539,-2.0539,-2.0539,-2.0539,-2.0539,-2.0539,-2.0539,-2.0539,-2.0539,-2.0539,-2.0539,-2.0539,-2.08,-2.1555,-2.2323,-2.283,-2.3581,-2.4348,-2.4592,-2.4592,-2.4592,-2.4592,-2.4592,-2.4592,-2.4592,-2.4592,-2.4592,-2.4592,-2.4592,-2.4592,-2.4592,-2.4592,-2.4592,-2.4592,-2.4592,-2.4592,-2.4592,-2.4592,-2.4592,-2.4592,-2.4592,-2.4592,-2.4592,-2.4592,-2.4592,-2.4592,-2.4592,-2.4592,-2.4592,-2.4592,-2.4592,-2.4446,-2.4129,-2.408,-2.3894,0.0,0.0,0.0,0.0,0.0,0.0,0.0,0.0,0.0,0.0,0.0,0.0,0.0,0.0,0.0,0.0,0.0,0.0,0.0,0.0,0.0,0.0,0.0,0.0,0.0,0.0,0.0,0.0,0.0,0.0,-2.0064,-2.0098,-2.0173,-2.0329,-2.0329,-2.0261,-2.0119,-2.0261,-2.0329,-2.0349,-2.0471,-2.0539,-2.0539,-2.0539,-2.0539,-2.0526,-2.0539,-2.0539,-2.0539,-2.0539,-2.0539,-2.0539,-2.0539,-2.0539,-2.0539,-2.0539,-2.0539,-2.0539,-2.0539,-2.0539,-2.0539,-2.0539,-2.0539,-2.0539,-2.0539,-2.0539,-2.0539,-2.0539,-2.0539,-2.0786,-2.2062,-2.2569,-2.2815,-2.4348,-2.4592,-2.4592,-2.4592,-2.4592,-2.4592,-2.4592,-2.4592,-2.4592,-2.4592,-2.4592,-2.4592,-2.4592,-2.4592,-2.4592,-2.4592,-2.4592,-2.4592,-2.4592,-2.4592,-2.4592,-2.4592,-2.4592,-2.4592,-2.4592,-2.4592,-2.4592,-2.4592,-2.4592,-2.4592,-2.4592,-2.4592,-2.4592,-2.4592,-2.4592,-2.4511,-2.4316,-2.4145,-2.3959,0.0,0.0,0.0,0.0,0.0,0.0,0.0,0.0,0.0,0.0,0.0,0.0,0.0,0.0,0.0,0.0,0.0,0.0,0.0,0.0,0.0,0.0,0.0,0.0,0.0,0.0,0.0,0.0,0.0,0.0,-2.0085,-2.0098,-2.0173,-2.0329,-2.0241,-2.0153,-2.0098,-2.0261,-2.0383,-2.0471,-2.0526,-2.0539,-2.0539,-2.0539,-2.0539,-2.0539,-2.0539,-2.0539,-2.0539,-2.0539,-2.0539,-2.0539,-2.0539,-2.0539,-2.0539,-2.0539,-2.0539,-2.0539,-2.0539,-2.0539,-2.0539,-2.0539,-2.0539,-2.0539,-2.0539,-2.0539,-2.0539,-2.0539,-2.0539,-2.0786,-2.2323,-2.2569,-2.2815,-2.4348,-2.4592,-2.4592,-2.4592,-2.4592,-2.4592,-2.4592,-2.4592,-2.4592,-2.4592,-2.4592,-2.4592,-2.4592,-2.4592,-2.4592,-2.4592,-2.4592,-2.4592,-2.4592,-2.4592,-2.4592,-2.4592,-2.4592,-2.4592,-2.4592,-2.4592,-2.4592,-2.4592,-2.4592,-2.4592,-2.4592,-2.4592,-2.4592,-2.4592,-2.4592,-2.4511,-2.4332,-2.4275,-2.408,0.0,0.0,0.0,0.0,0.0,0.0,0.0,0.0,0.0,0.0,0.0,0.0,0.0,0.0,0.0,0.0,0.0,0.0,0.0,0.0,0.0,0.0,0.0,0.0,0.0,0.0,0.0,0.0,0.0,0.0,-2.0085,-2.0051,-2.0098,-2.0241,-2.0153,-2.0119,-2.0173,-2.0329,-2.0451,-2.0539,-2.0539,-2.0539,-2.0539,-2.0539,-2.0539,-2.0539,-2.0539,-2.0539,-2.0539,-2.0539,-2.0539,-2.0539,-2.0539,-2.0539,-2.0539,-2.0539,-2.0539,-2.0539,-2.0539,-2.0539,-2.0539,-2.0539,-2.0539,-2.0539,-2.0539,-2.0539,-2.0539,-2.0539,-2.0539,-2.0786,-2.2323,-2.2815,-2.3574,-2.4331,-2.4592,-2.4592,-2.4592,-2.4592,-2.4592,-2.4592,-2.4592,-2.4592,-2.4592,-2.4592,-2.4592,-2.4592,-2.4592,-2.4592,-2.4592,-2.4592,-2.4592,-2.4592,-2.4592,-2.4592,-2.4592,-2.4592,-2.4592,-2.4592,-2.4592,-2.4592,-2.4592,-2.4592,-2.4592,-2.4592,-2.4592,-2.4592,-2.4592,-2.4592,-2.4527,-2.4421,-2.4356,-2.4145,0.0,0.0,0.0,0.0,0.0,0.0,0.0,0.0,0.0,0.0,0.0,0.0,0.0,0.0,0.0,0.0,0.0,0.0,0.0,0.0,0.0,0.0,0.0,0.0,0.0,0.0,0.0,0.0,0.0,-1.9786,-2.0085,-1.9963,-1.9942,-2.0098,-2.0098,-2.0173,-2.0329,-2.0471,-2.0539,-2.0539,-2.0539,-2.0539,-2.0539,-2.0539,-2.0539,-2.0539,-2.0539,-2.0539,-2.0539,-2.0539,-2.0539,-2.0539,-2.0539,-2.0539,-2.0539,-2.0539,-2.0539,-2.0539,-2.0539,-2.0539,-2.0539,-2.0539,-2.0539,-2.0539,-2.0539,-2.0539,-2.0539,-2.0539,-2.0539,-2.0807,-2.2323,-2.3581,-2.4592,-2.4592,-2.4592,-2.4592,-2.4592,-2.4592,-2.4592,-2.4592,-2.4592,-2.4592,-2.4592,-2.4592,-2.4592,-2.4592,-2.4592,-2.4592,-2.4592,-2.4592,-2.4592,-2.4592,-2.4592,-2.4592,-2.4592,-2.4592,-2.4592,-2.4592,-2.4592,-2.4592,-2.4592,-2.4592,-2.4592,-2.4592,-2.4592,-2.4592,-2.4592,-2.4592,-2.4592,-2.4592,-2.4397,-2.4145,-1.6978,0.0,0.0,0.0,0.0,0.0,0.0,0.0,0.0,0.0,0.0,0.0,0.0,0.0,0.0,0.0,0.0,0.0,0.0,0.0,0.0,0.0,0.0,0.0,0.0,0.0,0.0,0.0,0.0,-1.9786,-2.0085,-2.0064,-2.0064,-2.0098,-2.0098,-2.0173,-2.0329,-2.0471,-2.0539,-2.0539,-2.0539,-2.0539,-2.0539,-2.0539,-2.0539,-2.0539,-2.0539,-2.0539,-2.0539,-2.0539,-2.0539,-2.0539,-2.0539,-2.0539,-2.0539,-2.0539,-2.0539,-2.0539,-2.0539,-2.0539,-2.0539,-2.0539,-2.0539,-2.0539,-2.0539,-2.0539,-2.0539,-2.0539,-2.0627,-2.0965,-2.2493,-2.3761,-2.4763,-2.4616,-2.4592,-2.4592,-2.4592,-2.4592,-2.4592,-2.4592,-2.4592,-2.4592,-2.4592,-2.4592,-2.4592,-2.4592,-2.4592,-2.4592,-2.4592,-2.4592,-2.4592,-2.4592,-2.4592,-2.4592,-2.4592,-2.4592,-2.4592,-2.4592,-2.4592,-2.4592,-2.4592,-2.4592,-2.4592,-2.4592,-2.4592,-2.4592,-2.4592,-2.4592,-2.4592,-2.4592,-2.4275,-2.408,0.0,0.0,0.0,0.0,0.0,0.0,0.0,-1.8091,0.0,0.0,0.0,0.0,0.0,0.0,0.0,0.0,0.0,0.0,0.0,0.0,0.0,0.0,0.0,0.0,0.0,0.0,0.0,0.0,-1.9664,-1.9732,-1.9908,-1.9976,-2.0031,-2.0098,-2.0098,-2.0207,-2.0417,-2.0505,-2.0539,-2.0539,-2.0539,-2.0539,-2.0539,-2.0539,-2.0539,-2.0539,-2.0539,-2.0539,-2.0539,-2.0539,-2.0539,-2.0539,-2.0539,-2.0539,-2.0539,-2.0539,-2.0539,-2.0539,-2.0539,-2.0539,-2.0539,-2.0539,-2.058,-2.0627,-2.0627,-2.0682,-2.0736,-2.0736,-2.1318,-2.189,-2.3177,-2.4212,-2.4933,-2.4746,-2.4698,-2.4681,-2.4616,-2.4592,-2.4592,-2.4592,-2.4592,-2.4592,-2.4592,-2.4592,-2.4592,-2.4592,-2.4592,-2.4592,-2.4592,-2.4592,-2.4592,-2.4592,-2.4592,-2.4592,-2.4592,-2.4592,-2.4592,-2.4592,-2.4592,-2.4592,-2.4592,-2.4592,-2.4592,-2.4592,-2.4592,-2.4592,-2.4592,-2.4592,-2.4592,-2.4592,-2.4235,-2.4064,0.0,0.0,0.0,0.0,0.0,0.0,-1.7826,-1.8091,-1.8321,0.0,0.0,0.0,0.0,0.0,0.0,0.0,0.0,0.0,0.0,0.0,0.0,0.0,0.0,0.0,0.0,0.0,0.0,-1.9664,-1.9678,-1.9678,-1.9664,-1.98,-1.9942,-2.0098,-2.0098,-2.0241,-2.0539,-2.0539,-2.0539,-2.0539,-2.0539,-2.0539,-2.0539,-2.0539,-2.0539,-2.0539,-2.0539,-2.0539,-2.0539,-2.0539,-2.0539,-2.0539,-2.0539,-2.0539,-2.0539,-2.056,-2.056,-2.0573,-2.0594,-2.0594,-2.0594,-2.0594,-2.0682,-2.079,-2.079,-2.0892,-2.1001,-2.1021,-2.206,-2.3365,-2.3868,-2.4644,-2.512,-2.4917,-2.4868,-2.4828,-2.4633,-2.4592,-2.4592,-2.4592,-2.4592,-2.4592,-2.4592,-2.4592,-2.4592,-2.4592,-2.4592,-2.4592,-2.4592,-2.4592,-2.4592,-2.4592,-2.4592,-2.4592,-2.4592,-2.4592,-2.4592,-2.4592,-2.4592,-2.4592,-2.4592,-2.4592,-2.4592,-2.4592,-2.4592,-2.4592,-2.4592,-2.4592,-2.4592,-2.4592,-2.4235,-2.4064,0.0,0.0,0.0,0.0,0.0,0.0,-1.7826,-1.8091,-1.8321,0.0,0.0,0.0,0.0,0.0,0.0,0.0,0.0,0.0,0.0,0.0,0.0,0.0,0.0,0.0,0.0,0.0,-1.9664,-1.9664,-1.9766,-1.9786,-1.9664,-1.98,-1.9942,-2.0098,-2.0098,-2.0241,-2.0539,-2.0539,-2.0539,-2.0539,-2.0539,-2.0539,-2.0539,-2.0539,-2.0539,-2.0539,-2.0539,-2.0539,-2.0539,-2.0539,-2.0539,-2.0539,-2.0539,-2.0539,-2.056,-2.0682,-2.0716,-2.0736,-2.0858,-2.0912,-2.0912,-2.0912,-2.0933,-2.0946,-2.0946,-2.098,-2.1021,-2.1927,-2.3001,-2.4045,-2.4313,-2.4835,-2.5274,-2.4957,-2.4868,-2.4828,-2.4633,-2.4592,-2.4592,-2.4592,-2.4592,-2.4592,-2.4592,-2.4592,-2.4592,-2.4592,-2.4592,-2.4592,-2.4592,-2.4592,-2.4592,-2.4592,-2.4592,-2.4592,-2.4592,-2.4592,-2.4592,-2.4592,-2.4592,-2.4592,-2.4592,-2.4592,-2.4592,-2.4592,-2.4592,-2.4592,-2.4592,-2.4592,-2.4592,-2.4592,-2.4235,-2.4064,0.0,0.0,0.0,-1.7629,0.0,0.0,0.0,-1.8091,-1.8321,0.0,0.0,0.0,0.0,0.0,0.0,0.0,0.0,0.0,0.0,0.0,0.0,0.0,0.0,0.0,0.0,0.0,-1.9664,-1.9664,-1.9732,-1.9732,-1.9664,-1.9732,-1.9875,-2.0098,-2.0098,-2.0241,-2.0539,-2.0539,-2.0539,-2.0539,-2.0539,-2.0539,-2.0539,-2.0539,-2.0539,-2.0539,-2.0539,-2.0539,-2.0539,-2.0539,-2.0539,-2.0539,-2.0539,-2.0539,-2.056,-2.0627,-2.0668,-2.0668,-2.075,-2.077,-2.077,-2.077,-2.0824,-2.0892,-2.0892,-2.1199,-2.1541,-2.2385,-2.3463,-2.4236,-2.4747,-2.5023,-2.5225,-2.5039,-2.4998,-2.4957,-2.4763,-2.4722,-2.4698,-2.4616,-2.4592,-2.4592,-2.4592,-2.4592,-2.4592,-2.4592,-2.4592,-2.4592,-2.4592,-2.4592,-2.4592,-2.4592,-2.4592,-2.4592,-2.4592,-2.4592,-2.4592,-2.4592,-2.4592,-2.4592,-2.4592,-2.4592,-2.4592,-2.4592,-2.4592,-2.4592,-2.4592,-2.4592,-2.4592,-2.4592,-2.4235,-2.4064,0.0,0.0,0.0,0.0,0.0,-1.786,0.0,0.0,0.0,-1.8355,0.0,0.0,0.0,0.0,0.0,0.0,0.0,0.0,0.0,0.0,0.0,0.0,0.0,0.0,0.0,0.0,-1.9664,-1.9664,-1.9664,-1.9664,-1.9664,-1.9664,-1.98,-2.0085,-2.0098,-2.0241,-2.0539,-2.0539,-2.0539,-2.0539,-2.0539,-2.0539,-2.0539,-2.0539,-2.0539,-2.0539,-2.0539,-2.0539,-2.0539,-2.0539,-2.0539,-2.0539,-2.0539,-2.0539,-2.0539,-2.0573,-2.0594,-2.0594,-2.0614,-2.0627,-2.0627,-2.0627,-2.0716,-2.0811,-2.1068,-2.1674,-2.2291,-2.3076,-2.386,-2.4362,-2.4878,-2.5144,-2.5144,-2.5144,-2.5144,-2.5104,-2.4909,-2.4868,-2.4803,-2.4633,-2.4592,-2.4592,-2.4592,-2.4592,-2.4592,-2.4592,-2.4592,-2.4592,-2.4592,-2.4592,-2.4592,-2.4592,-2.4592,-2.4592,-2.4592,-2.4592,-2.4592,-2.4592,-2.4592,-2.4592,-2.4592,-2.4592,-2.4592,-2.4592,-2.4592,-2.4592,-2.4592,-2.4592,-2.4592,-2.4592,-2.4235,-2.4064,0.0,0.0,0.0,0.0,-1.7846,0.0,0.0,0.0,-1.8355,-1.8477,0.0,0.0,0.0,0.0,0.0,0.0,0.0,0.0,0.0,0.0,0.0,0.0,0.0,0.0,0.0,0.0,0.0,-1.9664,-1.9664,-1.9664,-1.9664,-1.9664,-1.98,-2.0085,-2.0098,-2.0241,-2.0539,-2.0539,-2.0539,-2.0539,-2.0539,-2.0539,-2.0539,-2.0539,-2.0539,-2.0539,-2.0539,-2.0539,-2.0539,-2.0539,-2.0539,-2.0539,-2.0539,-2.0539,-2.056,-2.0702,-2.0756,-2.077,-2.0892,-2.0946,-2.0946,-2.0946,-2.0967,-2.0967,-2.1751,-2.2291,-2.3076,-2.386,-2.4362,-2.4878,-2.5144,-2.5144,-2.5144,-2.5144,-2.5144,-2.5104,-2.4909,-2.4868,-2.4803,-2.4633,-2.4592,-2.4592,-2.4592,-2.4592,-2.4592,-2.4592,-2.4592,-2.4592,-2.4592,-2.4592,-2.4592,-2.4592,-2.4592,-2.4592,-2.4592,-2.4592,-2.4592,-2.4592,-2.4592,-2.4592,-2.4592,-2.4592,-2.4592,-2.4592,-2.4592,-2.4592,-2.4592,-2.4592,-2.4592,-2.4592,-2.4235,-2.4064,0.0,0.0,0.0,0.0,0.0,0.0,0.0,0.0,-1.8464,0.0,0.0,0.0,0.0,0.0,0.0,0.0,0.0,0.0,0.0,0.0,0.0,0.0,0.0,0.0,0.0,0.0,0.0,0.0,0.0,-1.9664,-1.9664,-1.9664,-1.98,-2.0085,-2.0098,-2.0241,-2.0539,-2.0539,-2.0539,-2.0539,-2.0539,-2.0539,-2.0539,-2.0539,-2.0539,-2.0539,-2.0539,-2.0539,-2.0539,-2.0539,-2.0539,-2.0539,-2.0539,-2.0539,-2.0539,-2.0614,-2.0627,-2.0648,-2.0716,-2.0736,-2.0736,-2.0736,-2.0736,-2.0736,-2.1498,-2.2266,-2.3041,-2.3544,-2.4318,-2.4828,-2.4828,-2.4828,-2.4868,-2.5104,-2.5144,-2.5144,-2.5169,-2.5104,-2.4974,-2.4787,-2.4657,-2.4592,-2.4592,-2.4592,-2.4592,-2.4592,-2.4592,-2.4592,-2.4592,-2.4592,-2.4592,-2.4592,-2.4592,-2.4592,-2.4592,-2.4592,-2.4592,-2.4592,-2.4592,-2.4592,-2.4592,-2.4592,-2.4592,-2.4592,-2.4592,-2.4592,-2.4592,-2.4592,-2.4592,-2.4592,-2.4235,-2.4064,-1.8287,0.0,0.0,0.0,0.0,0.0,0.0,0.0,0.0,0.0,0.0,0.0,0.0,0.0,0.0,0.0,0.0,0.0,0.0,0.0,0.0,0.0,0.0,0.0,0.0,0.0,0.0,0.0,-1.9664,0.0,-1.9664,-1.9664,-1.9786,-2.0031,-2.0085,-2.0227,-2.0485,-2.0526,-2.0539,-2.0539,-2.0539,-2.0539,-2.0539,-2.0539,-2.0539,-2.0539,-2.0539,-2.0539,-2.0539,-2.0539,-2.0539,-2.0539,-2.0539,-2.0539,-2.0539,-2.0539,-2.0539,-2.0539,-2.0539,-2.0539,-2.0539,-2.0539,-2.0539,-2.0546,-2.1555,-2.2323,-2.283,-2.3581,-2.4348,-2.4592,-2.4592,-2.4592,-2.4681,-2.5055,-2.5144,-2.5185,-2.5355,-2.5274,-2.5079,-2.4909,-2.4722,-2.4592,-2.4592,-2.4592,-2.4592,-2.4592,-2.4592,-2.4592,-2.4592,-2.4592,-2.4592,-2.4592,-2.4592,-2.4592,-2.4592,-2.4592,-2.4592,-2.4592,-2.4592,-2.4592,-2.4592,-2.4592,-2.4592,-2.4592,-2.4592,-2.4592,-2.4592,-2.4592,-2.4592,-2.4592,-2.4235,-2.4064,0.0,0.0,0.0,0.0,0.0,0.0,0.0,0.0,-1.8565,0.0,0.0,0.0,0.0,0.0,0.0,0.0,0.0,0.0,0.0,0.0,0.0,0.0,0.0,0.0,0.0,0.0,0.0,-1.9664,-1.9664,0.0,-1.9664,-1.9664,-1.9732,-1.9875,-2.0031,-2.0173,-2.0329,-2.0471,-2.0539,-2.0539,-2.0539,-2.0539,-2.0539,-2.0539,-2.0539,-2.0539,-2.0539,-2.0539,-2.0539,-2.0539,-2.0539,-2.0539,-2.0539,-2.0539,-2.0539,-2.0539,-2.0539,-2.0539,-2.0539,-2.0539,-2.0539,-2.0539,-2.0539,-2.08,-2.2062,-2.2569,-2.2815,-2.4095,-2.4592,-2.4592,-2.4592,-2.4592,-2.4681,-2.5055,-2.5144,-2.5185,-2.5355,-2.5274,-2.5079,-2.4909,-2.4722,-2.4592,-2.4592,-2.4592,-2.4592,-2.4592,-2.4592,-2.4592,-2.4592,-2.4592,-2.4592,-2.4592,-2.4592,-2.4592,-2.4592,-2.4592,-2.4592,-2.4592,-2.4592,-2.4592,-2.4592,-2.4592,-2.4592,-2.4592,-2.4592,-2.4592,-2.4592,-2.4592,-2.4592,-2.4592,-2.4235,-2.4064,0.0,0.0,-1.862,-1.862,0.0,0.0,0.0,0.0,0.0,0.0,0.0,0.0,0.0,0.0,-1.8918,-1.8972,-1.9183,0.0,0.0,0.0,0.0,0.0,0.0,0.0,0.0,0.0,0.0,-1.9664,-1.9664,-1.9664,0.0,-1.9664,-1.9732,-1.9875,-2.001,-2.0173,-2.0329,-2.0471,-2.0539,-2.0539,-2.0539,-2.0539,-2.0539,-2.0539,-2.0539,-2.0539,-2.0539,-2.0539,-2.0539,-2.0539,-2.0539,-2.0539,-2.0539,-2.0539,-2.0539,-2.0539,-2.0539,-2.0539,-2.0539,-2.0539,-2.0539,-2.0539,-2.0539,-2.0786,-2.2062,-2.2569,-2.2815,-2.4348,-2.4592,-2.4592,-2.4592,-2.4592,-2.4681,-2.5055,-2.5144,-2.5225,-2.5526,-2.5355,-2.512,-2.5063,-2.4803,-2.4592,-2.4592,-2.4592,-2.4592,-2.4592,-2.4592,-2.4592,-2.4592,-2.4592,-2.4592,-2.4592,-2.4592,-2.4592,-2.4592,-2.4592,-2.4592,-2.4592,-2.4592,-2.4592,-2.4592,-2.4592,-2.4592,-2.4592,-2.4592,-2.4592,-2.4592,-2.4592,-2.4592,-2.4592,-2.4356,-2.4186,-1.8796,-1.885,0.0,0.0,-1.8918,0.0,0.0,0.0,0.0,0.0,0.0,0.0,0.0,0.0,0.0,-1.9183,-1.9325,-1.9447,0.0,0.0,0.0,0.0,0.0,0.0,0.0,0.0,-1.9664,-1.9664,-1.9664,-1.9664,0.0,0.0,-1.9698,-1.98,-1.9997,-2.0153,-2.0241,-2.0438,-2.0539,-2.0539,-2.0539,-2.0539,-2.0539,-2.0539,-2.0539,-2.0539,-2.0539,-2.0539,-2.0539,-2.0539,-2.0539,-2.0539,-2.0539,-2.0539,-2.0539,-2.0539,-2.0539,-2.0539,-2.0539,-2.0539,-2.0539,-2.0539,-2.0573,-2.0876,-2.2142,-2.2703,-2.3026,-2.4685,-2.4892,-2.4828,-2.4957,-2.4892,-2.4868,-2.5169,-2.5225,-2.5315,-2.5615,-2.5445,-2.5209,-2.5161,-2.4892,-2.4681,-2.4616,-2.4592,-2.4592,-2.4592,-2.4592,-2.4592,-2.4592,-2.4592,-2.4592,-2.4592,-2.4592,-2.4592,-2.4592,-2.4592,-2.4592,-2.4592,-2.4592,-2.4592,-2.4592,-2.4592,-2.4592,-2.4592,-2.4592,-2.4592,-2.4592,-2.4592,-2.4592,-2.4592,-2.4421,-2.4235]}]]